<?xml version="1.0" encoding="UTF-8"?>
<gpx version="1.1" creator="https://www.youtrack.es" xsi:schemaLocation="http://www.topografix.com/GPX/1/1 http://www.topografix.com/GPX/1/1/gpx.xsd http://www.garmin.com/xmlschemas/GpxExtensions/v3 http://www.garmin.com/xmlschemas/GpxExtensionsv3.xsd http://www.garmin.com/xmlschemas/TrackPointExtension/v1 http://www.garmin.com/xmlschemas/TrackPointExtensionv1.xsd" xmlns:gpxtpx="http://www.garmin.com/xmlschemas/TrackPointExtension/v1" xmlns:gpxx="http://www.garmin.com/xmlschemas/GpxExtensions/v3" xmlns:xsi="http://www.w3.org/2001/XMLSchema-instance">
  <metadata>
    <author>
      <name>Omar Álvarez</name>
      <email id="omaralgu" domain="gmail.com"/>
    </author>
    <link href="https://www.youtrack.es">
      <text>YouTrack.es</text>
    </link>
    <time>2026-05-08T14:28:28Z</time>
  </metadata>
  <trk>
    <src>https://www.youtrack.es</src>
    <link href="https://www.youtrack.es/ruta/28232-montanas-vacias">
      <text>YouTrack.es</text>
    </link>
    <trkseg>
      <trkpt lat="40.586461" lon="-1.789836">
        <ele>1364.227</ele>
        <time>2021-06-15T09:55:44Z</time>
      </trkpt>
      <trkpt lat="40.587822" lon="-1.789536">
        <ele>1358.068</ele>
        <time>2021-06-15T09:57:29Z</time>
      </trkpt>
      <trkpt lat="40.589647" lon="-1.790284">
        <ele>1349.014</ele>
        <time>2021-06-15T09:58:06Z</time>
      </trkpt>
      <trkpt lat="40.590858" lon="-1.789673">
        <ele>1347.308</ele>
        <time>2021-06-15T09:58:42Z</time>
      </trkpt>
      <trkpt lat="40.591766" lon="-1.789923">
        <ele>1346.979</ele>
        <time>2021-06-15T09:59:08Z</time>
      </trkpt>
      <trkpt lat="40.593844" lon="-1.789271">
        <ele>1345.137</ele>
        <time>2021-06-15T10:00:03Z</time>
      </trkpt>
      <trkpt lat="40.595407" lon="-1.789309">
        <ele>1340.521</ele>
        <time>2021-06-15T10:00:27Z</time>
      </trkpt>
      <trkpt lat="40.596745" lon="-1.790323">
        <ele>1341.654</ele>
        <time>2021-06-15T10:00:57Z</time>
      </trkpt>
      <trkpt lat="40.597897" lon="-1.792304">
        <ele>1338.717</ele>
        <time>2021-06-15T10:01:35Z</time>
      </trkpt>
      <trkpt lat="40.599282" lon="-1.794017">
        <ele>1335.127</ele>
        <time>2021-06-15T10:02:06Z</time>
      </trkpt>
      <trkpt lat="40.600814" lon="-1.798989">
        <ele>1330.857</ele>
        <time>2021-06-15T10:03:12Z</time>
      </trkpt>
      <trkpt lat="40.600742" lon="-1.801817">
        <ele>1329.241</ele>
        <time>2021-06-15T10:03:47Z</time>
      </trkpt>
      <trkpt lat="40.601123" lon="-1.803437">
        <ele>1329.678</ele>
        <time>2021-06-15T10:04:08Z</time>
      </trkpt>
      <trkpt lat="40.602918" lon="-1.806395">
        <ele>1325.533</ele>
        <time>2021-06-15T10:04:48Z</time>
      </trkpt>
      <trkpt lat="40.605600" lon="-1.808700">
        <ele>1320.326</ele>
        <time>2021-06-15T10:05:24Z</time>
      </trkpt>
      <trkpt lat="40.607359" lon="-1.810902">
        <ele>1321.208</ele>
        <time>2021-06-15T10:06:01Z</time>
      </trkpt>
      <trkpt lat="40.606148" lon="-1.812454">
        <ele>1315.264</ele>
        <time>2021-06-15T10:06:23Z</time>
      </trkpt>
      <trkpt lat="40.606028" lon="-1.813751">
        <ele>1324.642</ele>
        <time>2021-06-15T10:06:57Z</time>
      </trkpt>
      <trkpt lat="40.604614" lon="-1.814398">
        <ele>1335.596</ele>
        <time>2021-06-15T10:08:15Z</time>
      </trkpt>
      <trkpt lat="40.602778" lon="-1.814202">
        <ele>1349.589</ele>
        <time>2021-06-15T10:10:10Z</time>
      </trkpt>
      <trkpt lat="40.601610" lon="-1.816836">
        <ele>1367.152</ele>
        <time>2021-06-15T10:12:50Z</time>
      </trkpt>
      <trkpt lat="40.601960" lon="-1.817450">
        <ele>1365.672</ele>
        <time>2021-06-15T10:14:34Z</time>
      </trkpt>
      <trkpt lat="40.602284" lon="-1.819574">
        <ele>1359.822</ele>
        <time>2021-06-15T10:15:12Z</time>
      </trkpt>
      <trkpt lat="40.602671" lon="-1.820745">
        <ele>1361.116</ele>
        <time>2021-06-15T10:15:30Z</time>
      </trkpt>
      <trkpt lat="40.602803" lon="-1.821909">
        <ele>1360.874</ele>
        <time>2021-06-15T10:15:56Z</time>
      </trkpt>
      <trkpt lat="40.604034" lon="-1.823353">
        <ele>1364.556</ele>
        <time>2021-06-15T10:17:37Z</time>
      </trkpt>
      <trkpt lat="40.603837" lon="-1.823235">
        <ele>1365.321</ele>
        <time>2021-06-15T10:19:14Z</time>
      </trkpt>
      <trkpt lat="40.604260" lon="-1.824653">
        <ele>1363.308</ele>
        <time>2021-06-15T10:20:06Z</time>
      </trkpt>
      <trkpt lat="40.604891" lon="-1.825333">
        <ele>1363.874</ele>
        <time>2021-06-15T10:20:46Z</time>
      </trkpt>
      <trkpt lat="40.604702" lon="-1.825350">
        <ele>1363.022</ele>
        <time>2021-06-15T10:22:42Z</time>
      </trkpt>
      <trkpt lat="40.604796" lon="-1.826383">
        <ele>1360.966</ele>
        <time>2021-06-15T10:23:04Z</time>
      </trkpt>
      <trkpt lat="40.605679" lon="-1.827342">
        <ele>1361.659</ele>
        <time>2021-06-15T10:24:15Z</time>
      </trkpt>
      <trkpt lat="40.605641" lon="-1.827714">
        <ele>1362.882</ele>
        <time>2021-06-15T10:27:33Z</time>
      </trkpt>
      <trkpt lat="40.605715" lon="-1.827428">
        <ele>1362.652</ele>
        <time>2021-06-15T10:30:43Z</time>
      </trkpt>
      <trkpt lat="40.605952" lon="-1.828344">
        <ele>1364.112</ele>
        <time>2021-06-15T10:32:11Z</time>
      </trkpt>
      <trkpt lat="40.606344" lon="-1.828454">
        <ele>1364.936</ele>
        <time>2021-06-15T10:32:27Z</time>
      </trkpt>
      <trkpt lat="40.607173" lon="-1.831053">
        <ele>1353.438</ele>
        <time>2021-06-15T10:33:23Z</time>
      </trkpt>
      <trkpt lat="40.608518" lon="-1.832006">
        <ele>1349.370</ele>
        <time>2021-06-15T10:33:42Z</time>
      </trkpt>
      <trkpt lat="40.609316" lon="-1.833419">
        <ele>1343.017</ele>
        <time>2021-06-15T10:33:59Z</time>
      </trkpt>
      <trkpt lat="40.609787" lon="-1.834835">
        <ele>1336.608</ele>
        <time>2021-06-15T10:34:12Z</time>
      </trkpt>
      <trkpt lat="40.609417" lon="-1.835308">
        <ele>1333.550</ele>
        <time>2021-06-15T10:34:18Z</time>
      </trkpt>
      <trkpt lat="40.609675" lon="-1.836041">
        <ele>1332.688</ele>
        <time>2021-06-15T10:34:28Z</time>
      </trkpt>
      <trkpt lat="40.608552" lon="-1.837737">
        <ele>1313.662</ele>
        <time>2021-06-15T10:34:43Z</time>
      </trkpt>
      <trkpt lat="40.608526" lon="-1.838067">
        <ele>1309.535</ele>
        <time>2021-06-15T10:34:46Z</time>
      </trkpt>
      <trkpt lat="40.609068" lon="-1.838533">
        <ele>1317.098</ele>
        <time>2021-06-15T10:35:18Z</time>
      </trkpt>
      <trkpt lat="40.610474" lon="-1.841609">
        <ele>1327.078</ele>
        <time>2021-06-15T10:37:10Z</time>
      </trkpt>
      <trkpt lat="40.612159" lon="-1.842676">
        <ele>1344.818</ele>
        <time>2021-06-15T10:39:26Z</time>
      </trkpt>
      <trkpt lat="40.612778" lon="-1.843872">
        <ele>1350.252</ele>
        <time>2021-06-15T10:40:29Z</time>
      </trkpt>
      <trkpt lat="40.613504" lon="-1.844524">
        <ele>1362.782</ele>
        <time>2021-06-15T10:41:48Z</time>
      </trkpt>
      <trkpt lat="40.611780" lon="-1.845176">
        <ele>1395.343</ele>
        <time>2021-06-15T10:45:28Z</time>
      </trkpt>
      <trkpt lat="40.610560" lon="-1.847079">
        <ele>1404.117</ele>
        <time>2021-06-15T10:47:04Z</time>
      </trkpt>
      <trkpt lat="40.610549" lon="-1.848065">
        <ele>1407.508</ele>
        <time>2021-06-15T10:47:33Z</time>
      </trkpt>
      <trkpt lat="40.609108" lon="-1.849844">
        <ele>1410.595</ele>
        <time>2021-06-15T10:48:36Z</time>
      </trkpt>
      <trkpt lat="40.608709" lon="-1.850062">
        <ele>1409.063</ele>
        <time>2021-06-15T10:48:43Z</time>
      </trkpt>
      <trkpt lat="40.607483" lon="-1.849972">
        <ele>1409.197</ele>
        <time>2021-06-15T10:49:05Z</time>
      </trkpt>
      <trkpt lat="40.605980" lon="-1.849455">
        <ele>1416.290</ele>
        <time>2021-06-15T10:50:14Z</time>
      </trkpt>
      <trkpt lat="40.605075" lon="-1.849517">
        <ele>1425.393</ele>
        <time>2021-06-15T10:51:20Z</time>
      </trkpt>
      <trkpt lat="40.603967" lon="-1.848658">
        <ele>1448.063</ele>
        <time>2021-06-15T10:53:42Z</time>
      </trkpt>
      <trkpt lat="40.602099" lon="-1.847894">
        <ele>1471.413</ele>
        <time>2021-06-15T10:56:44Z</time>
      </trkpt>
      <trkpt lat="40.600630" lon="-1.848471">
        <ele>1492.097</ele>
        <time>2021-06-15T10:59:21Z</time>
      </trkpt>
      <trkpt lat="40.599073" lon="-1.848236">
        <ele>1509.985</ele>
        <time>2021-06-15T11:01:31Z</time>
      </trkpt>
      <trkpt lat="40.597328" lon="-1.849160">
        <ele>1530.389</ele>
        <time>2021-06-15T11:04:24Z</time>
      </trkpt>
      <trkpt lat="40.596576" lon="-1.849276">
        <ele>1539.117</ele>
        <time>2021-06-15T11:05:29Z</time>
      </trkpt>
      <trkpt lat="40.597293" lon="-1.849786">
        <ele>1548.008</ele>
        <time>2021-06-15T11:06:35Z</time>
      </trkpt>
      <trkpt lat="40.597926" lon="-1.849786">
        <ele>1554.245</ele>
        <time>2021-06-15T11:07:14Z</time>
      </trkpt>
      <trkpt lat="40.598137" lon="-1.850119">
        <ele>1557.483</ele>
        <time>2021-06-15T11:07:36Z</time>
      </trkpt>
      <trkpt lat="40.595029" lon="-1.853648">
        <ele>1549.067</ele>
        <time>2021-06-15T11:10:53Z</time>
      </trkpt>
      <trkpt lat="40.594895" lon="-1.854081">
        <ele>1547.340</ele>
        <time>2021-06-15T11:10:57Z</time>
      </trkpt>
      <trkpt lat="40.595043" lon="-1.854398">
        <ele>1547.853</ele>
        <time>2021-06-15T11:11:01Z</time>
      </trkpt>
      <trkpt lat="40.596831" lon="-1.855116">
        <ele>1552.573</ele>
        <time>2021-06-15T11:11:51Z</time>
      </trkpt>
      <trkpt lat="40.599447" lon="-1.857620">
        <ele>1541.953</ele>
        <time>2021-06-15T11:12:34Z</time>
      </trkpt>
      <trkpt lat="40.599611" lon="-1.859202">
        <ele>1529.967</ele>
        <time>2021-06-15T11:12:47Z</time>
      </trkpt>
      <trkpt lat="40.598633" lon="-1.861218">
        <ele>1518.698</ele>
        <time>2021-06-15T11:13:05Z</time>
      </trkpt>
      <trkpt lat="40.598595" lon="-1.861690">
        <ele>1519.415</ele>
        <time>2021-06-15T11:13:11Z</time>
      </trkpt>
      <trkpt lat="40.599366" lon="-1.863117">
        <ele>1524.626</ele>
        <time>2021-06-15T11:13:50Z</time>
      </trkpt>
      <trkpt lat="40.602708" lon="-1.866634">
        <ele>1499.708</ele>
        <time>2021-06-15T11:14:58Z</time>
      </trkpt>
      <trkpt lat="40.603776" lon="-1.869504">
        <ele>1480.116</ele>
        <time>2021-06-15T11:15:18Z</time>
      </trkpt>
      <trkpt lat="40.603107" lon="-1.871743">
        <ele>1461.574</ele>
        <time>2021-06-15T11:15:34Z</time>
      </trkpt>
      <trkpt lat="40.602655" lon="-1.874195">
        <ele>1440.128</ele>
        <time>2021-06-15T11:15:48Z</time>
      </trkpt>
      <trkpt lat="40.603191" lon="-1.875681">
        <ele>1430.111</ele>
        <time>2021-06-15T11:15:59Z</time>
      </trkpt>
      <trkpt lat="40.602987" lon="-1.876480">
        <ele>1425.444</ele>
        <time>2021-06-15T11:16:05Z</time>
      </trkpt>
      <trkpt lat="40.603187" lon="-1.877056">
        <ele>1420.394</ele>
        <time>2021-06-15T11:16:10Z</time>
      </trkpt>
      <trkpt lat="40.602851" lon="-1.878081">
        <ele>1411.214</ele>
        <time>2021-06-15T11:16:18Z</time>
      </trkpt>
      <trkpt lat="40.602823" lon="-1.879177">
        <ele>1400.398</ele>
        <time>2021-06-15T11:16:26Z</time>
      </trkpt>
      <trkpt lat="40.603804" lon="-1.879710">
        <ele>1392.023</ele>
        <time>2021-06-15T11:16:36Z</time>
      </trkpt>
      <trkpt lat="40.604278" lon="-1.880785">
        <ele>1386.983</ele>
        <time>2021-06-15T11:16:44Z</time>
      </trkpt>
      <trkpt lat="40.605166" lon="-1.881761">
        <ele>1378.611</ele>
        <time>2021-06-15T11:16:53Z</time>
      </trkpt>
      <trkpt lat="40.608847" lon="-1.883120">
        <ele>1360.708</ele>
        <time>2021-06-15T11:17:25Z</time>
      </trkpt>
      <trkpt lat="40.610098" lon="-1.887123">
        <ele>1362.549</ele>
        <time>2021-06-15T11:24:01Z</time>
      </trkpt>
      <trkpt lat="40.609974" lon="-1.887874">
        <ele>1357.417</ele>
        <time>2021-06-15T11:24:11Z</time>
      </trkpt>
      <trkpt lat="40.609502" lon="-1.888316">
        <ele>1351.141</ele>
        <time>2021-06-15T11:24:21Z</time>
      </trkpt>
      <trkpt lat="40.609872" lon="-1.889471">
        <ele>1338.594</ele>
        <time>2021-06-15T11:24:32Z</time>
      </trkpt>
      <trkpt lat="40.609500" lon="-1.890077">
        <ele>1332.447</ele>
        <time>2021-06-15T11:24:40Z</time>
      </trkpt>
      <trkpt lat="40.609507" lon="-1.890545">
        <ele>1327.367</ele>
        <time>2021-06-15T11:24:44Z</time>
      </trkpt>
      <trkpt lat="40.610269" lon="-1.891673">
        <ele>1314.617</ele>
        <time>2021-06-15T11:24:54Z</time>
      </trkpt>
      <trkpt lat="40.611487" lon="-1.891954">
        <ele>1306.741</ele>
        <time>2021-06-15T11:25:06Z</time>
      </trkpt>
      <trkpt lat="40.612092" lon="-1.892356">
        <ele>1302.024</ele>
        <time>2021-06-15T11:25:12Z</time>
      </trkpt>
      <trkpt lat="40.612234" lon="-1.892704">
        <ele>1301.004</ele>
        <time>2021-06-15T11:25:15Z</time>
      </trkpt>
      <trkpt lat="40.612092" lon="-1.898071">
        <ele>1307.714</ele>
        <time>2021-06-15T11:27:11Z</time>
      </trkpt>
      <trkpt lat="40.610887" lon="-1.897686">
        <ele>1303.908</ele>
        <time>2021-06-15T11:30:42Z</time>
      </trkpt>
      <trkpt lat="40.610058" lon="-1.898024">
        <ele>1302.569</ele>
        <time>2021-06-15T11:30:57Z</time>
      </trkpt>
      <trkpt lat="40.609440" lon="-1.897622">
        <ele>1303.287</ele>
        <time>2021-06-15T11:31:13Z</time>
      </trkpt>
      <trkpt lat="40.607007" lon="-1.897522">
        <ele>1292.861</ele>
        <time>2021-06-15T11:31:46Z</time>
      </trkpt>
      <trkpt lat="40.605931" lon="-1.897170">
        <ele>1287.944</ele>
        <time>2021-06-15T11:31:57Z</time>
      </trkpt>
      <trkpt lat="40.604418" lon="-1.898260">
        <ele>1277.387</ele>
        <time>2021-06-15T11:32:14Z</time>
      </trkpt>
      <trkpt lat="40.603943" lon="-1.898073">
        <ele>1274.647</ele>
        <time>2021-06-15T11:32:19Z</time>
      </trkpt>
      <trkpt lat="40.603050" lon="-1.898212">
        <ele>1269.527</ele>
        <time>2021-06-15T11:32:28Z</time>
      </trkpt>
      <trkpt lat="40.602014" lon="-1.898751">
        <ele>1262.571</ele>
        <time>2021-06-15T11:32:39Z</time>
      </trkpt>
      <trkpt lat="40.601361" lon="-1.898302">
        <ele>1258.486</ele>
        <time>2021-06-15T11:32:47Z</time>
      </trkpt>
      <trkpt lat="40.599217" lon="-1.899182">
        <ele>1247.960</ele>
        <time>2021-06-15T11:33:15Z</time>
      </trkpt>
      <trkpt lat="40.597696" lon="-1.900224">
        <ele>1238.226</ele>
        <time>2021-06-15T11:33:36Z</time>
      </trkpt>
      <trkpt lat="40.596548" lon="-1.901455">
        <ele>1232.608</ele>
        <time>2021-06-15T11:33:54Z</time>
      </trkpt>
      <trkpt lat="40.596283" lon="-1.902301">
        <ele>1232.145</ele>
        <time>2021-06-15T11:34:05Z</time>
      </trkpt>
      <trkpt lat="40.595667" lon="-1.902855">
        <ele>1231.153</ele>
        <time>2021-06-15T11:34:18Z</time>
      </trkpt>
      <trkpt lat="40.595585" lon="-1.903632">
        <ele>1227.217</ele>
        <time>2021-06-15T11:34:26Z</time>
      </trkpt>
      <trkpt lat="40.595115" lon="-1.904476">
        <ele>1222.640</ele>
        <time>2021-06-15T11:34:36Z</time>
      </trkpt>
      <trkpt lat="40.594399" lon="-1.904786">
        <ele>1217.423</ele>
        <time>2021-06-15T11:34:45Z</time>
      </trkpt>
      <trkpt lat="40.594171" lon="-1.905314">
        <ele>1214.273</ele>
        <time>2021-06-15T11:34:51Z</time>
      </trkpt>
      <trkpt lat="40.594464" lon="-1.906592">
        <ele>1207.033</ele>
        <time>2021-06-15T11:35:07Z</time>
      </trkpt>
      <trkpt lat="40.594303" lon="-1.906701">
        <ele>1206.197</ele>
        <time>2021-06-15T11:35:19Z</time>
      </trkpt>
      <trkpt lat="40.594394" lon="-1.908158">
        <ele>1201.767</ele>
        <time>2021-06-15T11:51:55Z</time>
      </trkpt>
      <trkpt lat="40.594151" lon="-1.909287">
        <ele>1200.681</ele>
        <time>2021-06-15T11:52:54Z</time>
      </trkpt>
      <trkpt lat="40.593847" lon="-1.909385">
        <ele>1203.019</ele>
        <time>2021-06-15T12:14:13Z</time>
      </trkpt>
      <trkpt lat="40.594112" lon="-1.909266">
        <ele>1202.608</ele>
        <time>2021-06-15T12:14:27Z</time>
      </trkpt>
      <trkpt lat="40.594406" lon="-1.908222">
        <ele>1203.783</ele>
        <time>2021-06-15T12:14:58Z</time>
      </trkpt>
      <trkpt lat="40.594285" lon="-1.906910">
        <ele>1205.431</ele>
        <time>2021-06-15T12:15:39Z</time>
      </trkpt>
      <trkpt lat="40.594414" lon="-1.906565">
        <ele>1207.465</ele>
        <time>2021-06-15T12:15:55Z</time>
      </trkpt>
      <trkpt lat="40.594584" lon="-1.909355">
        <ele>1206.218</ele>
        <time>2021-06-15T12:16:58Z</time>
      </trkpt>
      <trkpt lat="40.594299" lon="-1.910904">
        <ele>1204.591</ele>
        <time>2021-06-15T12:17:28Z</time>
      </trkpt>
      <trkpt lat="40.594313" lon="-1.913189">
        <ele>1200.861</ele>
        <time>2021-06-15T12:18:00Z</time>
      </trkpt>
      <trkpt lat="40.594861" lon="-1.914117">
        <ele>1199.661</ele>
        <time>2021-06-15T12:18:16Z</time>
      </trkpt>
      <trkpt lat="40.595257" lon="-1.915587">
        <ele>1199.125</ele>
        <time>2021-06-15T12:18:38Z</time>
      </trkpt>
      <trkpt lat="40.595253" lon="-1.919096">
        <ele>1194.384</ele>
        <time>2021-06-15T12:19:23Z</time>
      </trkpt>
      <trkpt lat="40.595053" lon="-1.919750">
        <ele>1192.707</ele>
        <time>2021-06-15T12:19:32Z</time>
      </trkpt>
      <trkpt lat="40.593373" lon="-1.921268">
        <ele>1182.517</ele>
        <time>2021-06-15T12:19:59Z</time>
      </trkpt>
      <trkpt lat="40.592713" lon="-1.922693">
        <ele>1176.808</ele>
        <time>2021-06-15T12:20:14Z</time>
      </trkpt>
      <trkpt lat="40.593890" lon="-1.924833">
        <ele>1176.165</ele>
        <time>2021-06-15T12:20:47Z</time>
      </trkpt>
      <trkpt lat="40.593702" lon="-1.926651">
        <ele>1178.213</ele>
        <time>2021-06-15T12:21:19Z</time>
      </trkpt>
      <trkpt lat="40.594434" lon="-1.931064">
        <ele>1179.927</ele>
        <time>2021-06-15T12:22:50Z</time>
      </trkpt>
      <trkpt lat="40.595068" lon="-1.933056">
        <ele>1180.330</ele>
        <time>2021-06-15T12:23:33Z</time>
      </trkpt>
      <trkpt lat="40.596582" lon="-1.936276">
        <ele>1177.113</ele>
        <time>2021-06-15T12:24:33Z</time>
      </trkpt>
      <trkpt lat="40.597121" lon="-1.938608">
        <ele>1175.613</ele>
        <time>2021-06-15T12:25:12Z</time>
      </trkpt>
      <trkpt lat="40.599244" lon="-1.940419">
        <ele>1173.613</ele>
        <time>2021-06-15T12:26:08Z</time>
      </trkpt>
      <trkpt lat="40.599544" lon="-1.940944">
        <ele>1171.737</ele>
        <time>2021-06-15T12:26:16Z</time>
      </trkpt>
      <trkpt lat="40.599658" lon="-1.942890">
        <ele>1169.826</ele>
        <time>2021-06-15T12:26:39Z</time>
      </trkpt>
      <trkpt lat="40.600544" lon="-1.947855">
        <ele>1167.247</ele>
        <time>2021-06-15T12:27:54Z</time>
      </trkpt>
      <trkpt lat="40.599749" lon="-1.952960">
        <ele>1168.911</ele>
        <time>2021-06-15T12:29:48Z</time>
      </trkpt>
      <trkpt lat="40.600063" lon="-1.954017">
        <ele>1173.408</ele>
        <time>2021-06-15T12:31:47Z</time>
      </trkpt>
      <trkpt lat="40.600754" lon="-1.954838">
        <ele>1170.899</ele>
        <time>2021-06-15T12:32:20Z</time>
      </trkpt>
      <trkpt lat="40.601567" lon="-1.955101">
        <ele>1164.657</ele>
        <time>2021-06-15T12:32:34Z</time>
      </trkpt>
      <trkpt lat="40.602261" lon="-1.955690">
        <ele>1163.771</ele>
        <time>2021-06-15T12:32:50Z</time>
      </trkpt>
      <trkpt lat="40.602902" lon="-1.955527">
        <ele>1164.554</ele>
        <time>2021-06-15T12:33:12Z</time>
      </trkpt>
      <trkpt lat="40.603256" lon="-1.955753">
        <ele>1161.617</ele>
        <time>2021-06-15T12:33:20Z</time>
      </trkpt>
      <trkpt lat="40.604265" lon="-1.955572">
        <ele>1154.797</ele>
        <time>2021-06-15T12:33:44Z</time>
      </trkpt>
      <trkpt lat="40.605649" lon="-1.956178">
        <ele>1149.017</ele>
        <time>2021-06-15T12:34:13Z</time>
      </trkpt>
      <trkpt lat="40.607001" lon="-1.957555">
        <ele>1147.991</ele>
        <time>2021-06-15T12:35:31Z</time>
      </trkpt>
      <trkpt lat="40.607807" lon="-1.957876">
        <ele>1149.254</ele>
        <time>2021-06-15T12:36:16Z</time>
      </trkpt>
      <trkpt lat="40.610511" lon="-1.960100">
        <ele>1145.456</ele>
        <time>2021-06-15T12:38:02Z</time>
      </trkpt>
      <trkpt lat="40.611534" lon="-1.961260">
        <ele>1140.211</ele>
        <time>2021-06-15T12:38:37Z</time>
      </trkpt>
      <trkpt lat="40.612024" lon="-1.963094">
        <ele>1139.108</ele>
        <time>2021-06-15T12:39:26Z</time>
      </trkpt>
      <trkpt lat="40.611478" lon="-1.965946">
        <ele>1142.582</ele>
        <time>2021-06-15T12:41:44Z</time>
      </trkpt>
      <trkpt lat="40.611070" lon="-1.966253">
        <ele>1144.510</ele>
        <time>2021-06-15T12:42:04Z</time>
      </trkpt>
      <trkpt lat="40.610426" lon="-1.966230">
        <ele>1146.934</ele>
        <time>2021-06-15T12:42:37Z</time>
      </trkpt>
      <trkpt lat="40.608723" lon="-1.967878">
        <ele>1171.987</ele>
        <time>2021-06-15T12:45:42Z</time>
      </trkpt>
      <trkpt lat="40.608534" lon="-1.968631">
        <ele>1181.120</ele>
        <time>2021-06-15T12:46:41Z</time>
      </trkpt>
      <trkpt lat="40.609006" lon="-1.969228">
        <ele>1186.140</ele>
        <time>2021-06-15T12:47:41Z</time>
      </trkpt>
      <trkpt lat="40.608998" lon="-1.969526">
        <ele>1185.760</ele>
        <time>2021-06-15T12:48:31Z</time>
      </trkpt>
      <trkpt lat="40.610674" lon="-1.970228">
        <ele>1167.234</ele>
        <time>2021-06-15T12:52:39Z</time>
      </trkpt>
      <trkpt lat="40.611522" lon="-1.970301">
        <ele>1157.253</ele>
        <time>2021-06-15T12:53:03Z</time>
      </trkpt>
      <trkpt lat="40.613070" lon="-1.969043">
        <ele>1140.704</ele>
        <time>2021-06-15T12:53:49Z</time>
      </trkpt>
      <trkpt lat="40.613757" lon="-1.968983">
        <ele>1135.214</ele>
        <time>2021-06-15T12:54:03Z</time>
      </trkpt>
      <trkpt lat="40.614173" lon="-1.969411">
        <ele>1133.308</ele>
        <time>2021-06-15T12:54:11Z</time>
      </trkpt>
      <trkpt lat="40.615163" lon="-1.971800">
        <ele>1135.162</ele>
        <time>2021-06-15T12:55:11Z</time>
      </trkpt>
      <trkpt lat="40.615973" lon="-1.972300">
        <ele>1136.340</ele>
        <time>2021-06-15T12:55:42Z</time>
      </trkpt>
      <trkpt lat="40.617068" lon="-1.971729">
        <ele>1128.934</ele>
        <time>2021-06-15T12:56:03Z</time>
      </trkpt>
      <trkpt lat="40.617589" lon="-1.970703">
        <ele>1128.417</ele>
        <time>2021-06-15T12:56:20Z</time>
      </trkpt>
      <trkpt lat="40.617949" lon="-1.970545">
        <ele>1127.980</ele>
        <time>2021-06-15T12:56:28Z</time>
      </trkpt>
      <trkpt lat="40.618491" lon="-1.971080">
        <ele>1131.720</ele>
        <time>2021-06-15T12:57:34Z</time>
      </trkpt>
      <trkpt lat="40.618464" lon="-1.971757">
        <ele>1137.370</ele>
        <time>2021-06-15T12:58:12Z</time>
      </trkpt>
      <trkpt lat="40.619022" lon="-1.973845">
        <ele>1142.124</ele>
        <time>2021-06-15T12:59:25Z</time>
      </trkpt>
      <trkpt lat="40.618923" lon="-1.974418">
        <ele>1140.957</ele>
        <time>2021-06-15T13:00:57Z</time>
      </trkpt>
      <trkpt lat="40.619353" lon="-1.975184">
        <ele>1136.900</ele>
        <time>2021-06-15T13:01:17Z</time>
      </trkpt>
      <trkpt lat="40.620554" lon="-1.975522">
        <ele>1136.520</ele>
        <time>2021-06-15T13:01:46Z</time>
      </trkpt>
      <trkpt lat="40.622398" lon="-1.974787">
        <ele>1127.008</ele>
        <time>2021-06-15T13:02:26Z</time>
      </trkpt>
      <trkpt lat="40.623494" lon="-1.975006">
        <ele>1125.182</ele>
        <time>2021-06-15T13:02:49Z</time>
      </trkpt>
      <trkpt lat="40.624170" lon="-1.975750">
        <ele>1129.380</ele>
        <time>2021-06-15T13:03:25Z</time>
      </trkpt>
      <trkpt lat="40.624349" lon="-1.976260">
        <ele>1132.734</ele>
        <time>2021-06-15T13:03:49Z</time>
      </trkpt>
      <trkpt lat="40.624108" lon="-1.977656">
        <ele>1138.717</ele>
        <time>2021-06-15T13:04:51Z</time>
      </trkpt>
      <trkpt lat="40.624306" lon="-1.978239">
        <ele>1139.540</ele>
        <time>2021-06-15T13:05:16Z</time>
      </trkpt>
      <trkpt lat="40.624938" lon="-1.977761">
        <ele>1139.280</ele>
        <time>2021-06-15T13:06:04Z</time>
      </trkpt>
      <trkpt lat="40.625591" lon="-1.975465">
        <ele>1132.950</ele>
        <time>2021-06-15T13:06:38Z</time>
      </trkpt>
      <trkpt lat="40.626282" lon="-1.974488">
        <ele>1135.664</ele>
        <time>2021-06-15T13:07:09Z</time>
      </trkpt>
      <trkpt lat="40.626088" lon="-1.973242">
        <ele>1136.023</ele>
        <time>2021-06-15T13:07:43Z</time>
      </trkpt>
      <trkpt lat="40.625674" lon="-1.972694">
        <ele>1139.083</ele>
        <time>2021-06-15T13:08:01Z</time>
      </trkpt>
      <trkpt lat="40.625700" lon="-1.972390">
        <ele>1139.311</ele>
        <time>2021-06-15T13:08:09Z</time>
      </trkpt>
      <trkpt lat="40.626306" lon="-1.973027">
        <ele>1138.608</ele>
        <time>2021-06-15T13:08:31Z</time>
      </trkpt>
      <trkpt lat="40.626681" lon="-1.974237">
        <ele>1138.039</ele>
        <time>2021-06-15T13:08:59Z</time>
      </trkpt>
      <trkpt lat="40.627214" lon="-1.974047">
        <ele>1137.767</ele>
        <time>2021-06-15T13:09:16Z</time>
      </trkpt>
      <trkpt lat="40.627948" lon="-1.974356">
        <ele>1134.991</ele>
        <time>2021-06-15T13:09:33Z</time>
      </trkpt>
      <trkpt lat="40.629022" lon="-1.975538">
        <ele>1120.544</ele>
        <time>2021-06-15T13:09:54Z</time>
      </trkpt>
      <trkpt lat="40.630351" lon="-1.976387">
        <ele>1118.637</ele>
        <time>2021-06-15T13:10:16Z</time>
      </trkpt>
      <trkpt lat="40.631344" lon="-1.977408">
        <ele>1120.827</ele>
        <time>2021-06-15T13:10:47Z</time>
      </trkpt>
      <trkpt lat="40.632049" lon="-1.977531">
        <ele>1122.447</ele>
        <time>2021-06-15T13:11:07Z</time>
      </trkpt>
      <trkpt lat="40.634076" lon="-1.977046">
        <ele>1121.581</ele>
        <time>2021-06-15T13:11:50Z</time>
      </trkpt>
      <trkpt lat="40.636033" lon="-1.977952">
        <ele>1131.385</ele>
        <time>2021-06-15T13:12:56Z</time>
      </trkpt>
      <trkpt lat="40.636355" lon="-1.978335">
        <ele>1134.489</ele>
        <time>2021-06-15T13:13:16Z</time>
      </trkpt>
      <trkpt lat="40.637120" lon="-1.978603">
        <ele>1139.517</ele>
        <time>2021-06-15T13:13:50Z</time>
      </trkpt>
      <trkpt lat="40.637932" lon="-1.978455">
        <ele>1141.208</ele>
        <time>2021-06-15T13:14:21Z</time>
      </trkpt>
      <trkpt lat="40.639015" lon="-1.977429">
        <ele>1130.255</ele>
        <time>2021-06-15T13:14:42Z</time>
      </trkpt>
      <trkpt lat="40.639707" lon="-1.976330">
        <ele>1125.363</ele>
        <time>2021-06-15T13:14:56Z</time>
      </trkpt>
      <trkpt lat="40.639702" lon="-1.975895">
        <ele>1126.557</ele>
        <time>2021-06-15T13:15:03Z</time>
      </trkpt>
      <trkpt lat="40.639204" lon="-1.975492">
        <ele>1129.690</ele>
        <time>2021-06-15T13:15:24Z</time>
      </trkpt>
      <trkpt lat="40.641958" lon="-1.970258">
        <ele>1174.893</ele>
        <time>2021-06-15T13:21:51Z</time>
      </trkpt>
      <trkpt lat="40.642864" lon="-1.970964">
        <ele>1169.023</ele>
        <time>2021-06-15T13:22:18Z</time>
      </trkpt>
      <trkpt lat="40.643161" lon="-1.971825">
        <ele>1164.933</ele>
        <time>2021-06-15T13:22:30Z</time>
      </trkpt>
      <trkpt lat="40.643757" lon="-1.971181">
        <ele>1158.287</ele>
        <time>2021-06-15T13:22:43Z</time>
      </trkpt>
      <trkpt lat="40.644381" lon="-1.971297">
        <ele>1155.546</ele>
        <time>2021-06-15T13:22:54Z</time>
      </trkpt>
      <trkpt lat="40.644828" lon="-1.971008">
        <ele>1150.888</ele>
        <time>2021-06-15T13:23:03Z</time>
      </trkpt>
      <trkpt lat="40.645687" lon="-1.971411">
        <ele>1148.216</ele>
        <time>2021-06-15T13:23:19Z</time>
      </trkpt>
      <trkpt lat="40.646482" lon="-1.971050">
        <ele>1144.108</ele>
        <time>2021-06-15T13:23:32Z</time>
      </trkpt>
      <trkpt lat="40.648613" lon="-1.971534">
        <ele>1148.811</ele>
        <time>2021-06-15T13:24:45Z</time>
      </trkpt>
      <trkpt lat="40.649107" lon="-1.972725">
        <ele>1154.889</ele>
        <time>2021-06-15T13:25:47Z</time>
      </trkpt>
      <trkpt lat="40.649768" lon="-1.973026">
        <ele>1148.413</ele>
        <time>2021-06-15T13:26:05Z</time>
      </trkpt>
      <trkpt lat="40.649742" lon="-1.973555">
        <ele>1144.886</ele>
        <time>2021-06-15T13:26:14Z</time>
      </trkpt>
      <trkpt lat="40.649987" lon="-1.974002">
        <ele>1143.939</ele>
        <time>2021-06-15T13:26:26Z</time>
      </trkpt>
      <trkpt lat="40.649934" lon="-1.974301">
        <ele>1144.399</ele>
        <time>2021-06-15T13:28:44Z</time>
      </trkpt>
      <trkpt lat="40.650090" lon="-1.974410">
        <ele>1144.959</ele>
        <time>2021-06-15T13:32:00Z</time>
      </trkpt>
      <trkpt lat="40.650043" lon="-1.973978">
        <ele>1144.223</ele>
        <time>2021-06-15T13:33:24Z</time>
      </trkpt>
      <trkpt lat="40.649503" lon="-1.973148">
        <ele>1140.352</ele>
        <time>2021-06-15T13:34:02Z</time>
      </trkpt>
      <trkpt lat="40.648478" lon="-1.973151">
        <ele>1129.953</ele>
        <time>2021-06-15T13:34:29Z</time>
      </trkpt>
      <trkpt lat="40.647876" lon="-1.972827">
        <ele>1119.408</ele>
        <time>2021-06-15T13:34:39Z</time>
      </trkpt>
      <trkpt lat="40.647194" lon="-1.973699">
        <ele>1114.708</ele>
        <time>2021-06-15T13:36:27Z</time>
      </trkpt>
      <trkpt lat="40.647697" lon="-1.973200">
        <ele>1115.822</ele>
        <time>2021-06-15T13:37:41Z</time>
      </trkpt>
      <trkpt lat="40.647476" lon="-1.973102">
        <ele>1112.680</ele>
        <time>2021-06-15T13:39:08Z</time>
      </trkpt>
      <trkpt lat="40.647545" lon="-1.973926">
        <ele>1112.944</ele>
        <time>2021-06-15T13:47:33Z</time>
      </trkpt>
      <trkpt lat="40.647192" lon="-1.974348">
        <ele>1110.517</ele>
        <time>2021-06-15T13:49:25Z</time>
      </trkpt>
      <trkpt lat="40.647274" lon="-1.974836">
        <ele>1117.210</ele>
        <time>2021-06-15T15:03:05Z</time>
      </trkpt>
      <trkpt lat="40.647112" lon="-1.974634">
        <ele>1123.040</ele>
        <time>2021-06-15T15:37:27Z</time>
      </trkpt>
      <trkpt lat="40.646813" lon="-1.975327">
        <ele>1124.580</ele>
        <time>2021-06-15T15:38:26Z</time>
      </trkpt>
      <trkpt lat="40.646737" lon="-1.976509">
        <ele>1132.244</ele>
        <time>2021-06-15T15:40:30Z</time>
      </trkpt>
      <trkpt lat="40.647001" lon="-1.976771">
        <ele>1132.245</ele>
        <time>2021-06-15T15:41:29Z</time>
      </trkpt>
      <trkpt lat="40.647060" lon="-1.977247">
        <ele>1138.047</ele>
        <time>2021-06-15T15:42:34Z</time>
      </trkpt>
      <trkpt lat="40.647494" lon="-1.977847">
        <ele>1141.511</ele>
        <time>2021-06-15T15:43:47Z</time>
      </trkpt>
      <trkpt lat="40.648206" lon="-1.977921">
        <ele>1148.608</ele>
        <time>2021-06-15T15:45:26Z</time>
      </trkpt>
      <trkpt lat="40.648477" lon="-1.978746">
        <ele>1146.521</ele>
        <time>2021-06-15T15:47:07Z</time>
      </trkpt>
      <trkpt lat="40.648250" lon="-1.979697">
        <ele>1135.989</ele>
        <time>2021-06-15T15:47:43Z</time>
      </trkpt>
      <trkpt lat="40.648551" lon="-1.980752">
        <ele>1128.523</ele>
        <time>2021-06-15T15:51:29Z</time>
      </trkpt>
      <trkpt lat="40.649316" lon="-1.981472">
        <ele>1124.796</ele>
        <time>2021-06-15T15:51:47Z</time>
      </trkpt>
      <trkpt lat="40.650281" lon="-1.981903">
        <ele>1120.179</ele>
        <time>2021-06-15T15:52:09Z</time>
      </trkpt>
      <trkpt lat="40.651072" lon="-1.982650">
        <ele>1114.229</ele>
        <time>2021-06-15T15:52:28Z</time>
      </trkpt>
      <trkpt lat="40.651696" lon="-1.984144">
        <ele>1112.269</ele>
        <time>2021-06-15T15:52:51Z</time>
      </trkpt>
      <trkpt lat="40.651695" lon="-1.987000">
        <ele>1109.853</ele>
        <time>2021-06-15T15:53:35Z</time>
      </trkpt>
      <trkpt lat="40.652598" lon="-1.989893">
        <ele>1110.767</ele>
        <time>2021-06-15T15:54:47Z</time>
      </trkpt>
      <trkpt lat="40.654084" lon="-1.991753">
        <ele>1109.981</ele>
        <time>2021-06-15T15:56:08Z</time>
      </trkpt>
      <trkpt lat="40.654340" lon="-1.992484">
        <ele>1109.319</ele>
        <time>2021-06-15T15:56:46Z</time>
      </trkpt>
      <trkpt lat="40.658803" lon="-1.998644">
        <ele>1112.808</ele>
        <time>2021-06-15T15:59:52Z</time>
      </trkpt>
      <trkpt lat="40.660680" lon="-2.000852">
        <ele>1107.383</ele>
        <time>2021-06-15T16:00:36Z</time>
      </trkpt>
      <trkpt lat="40.662284" lon="-2.004001">
        <ele>1101.361</ele>
        <time>2021-06-15T16:01:32Z</time>
      </trkpt>
      <trkpt lat="40.662488" lon="-2.005327">
        <ele>1103.155</ele>
        <time>2021-06-15T16:01:49Z</time>
      </trkpt>
      <trkpt lat="40.662910" lon="-2.006208">
        <ele>1105.368</ele>
        <time>2021-06-15T16:02:14Z</time>
      </trkpt>
      <trkpt lat="40.663626" lon="-2.006613">
        <ele>1106.531</ele>
        <time>2021-06-15T16:02:41Z</time>
      </trkpt>
      <trkpt lat="40.665076" lon="-2.005792">
        <ele>1109.581</ele>
        <time>2021-06-15T16:03:29Z</time>
      </trkpt>
      <trkpt lat="40.665633" lon="-2.006482">
        <ele>1106.861</ele>
        <time>2021-06-15T16:03:46Z</time>
      </trkpt>
      <trkpt lat="40.665410" lon="-2.007408">
        <ele>1103.185</ele>
        <time>2021-06-15T16:03:57Z</time>
      </trkpt>
      <trkpt lat="40.662509" lon="-2.010350">
        <ele>1091.392</ele>
        <time>2021-06-15T16:04:47Z</time>
      </trkpt>
      <trkpt lat="40.662365" lon="-2.011735">
        <ele>1094.773</ele>
        <time>2021-06-15T16:05:25Z</time>
      </trkpt>
      <trkpt lat="40.663016" lon="-2.012947">
        <ele>1091.620</ele>
        <time>2021-06-15T16:05:50Z</time>
      </trkpt>
      <trkpt lat="40.663288" lon="-2.015135">
        <ele>1082.308</ele>
        <time>2021-06-15T16:06:22Z</time>
      </trkpt>
      <trkpt lat="40.663003" lon="-2.017966">
        <ele>1084.596</ele>
        <time>2021-06-15T16:07:11Z</time>
      </trkpt>
      <trkpt lat="40.663088" lon="-2.018605">
        <ele>1089.434</ele>
        <time>2021-06-15T16:07:30Z</time>
      </trkpt>
      <trkpt lat="40.663870" lon="-2.019664">
        <ele>1083.818</ele>
        <time>2021-06-15T16:07:51Z</time>
      </trkpt>
      <trkpt lat="40.664706" lon="-2.019748">
        <ele>1079.481</ele>
        <time>2021-06-15T16:08:01Z</time>
      </trkpt>
      <trkpt lat="40.665735" lon="-2.019371">
        <ele>1079.864</ele>
        <time>2021-06-15T16:08:21Z</time>
      </trkpt>
      <trkpt lat="40.666604" lon="-2.020056">
        <ele>1087.154</ele>
        <time>2021-06-15T16:09:41Z</time>
      </trkpt>
      <trkpt lat="40.666549" lon="-2.020667">
        <ele>1087.264</ele>
        <time>2021-06-15T16:09:57Z</time>
      </trkpt>
      <trkpt lat="40.665326" lon="-2.022357">
        <ele>1080.098</ele>
        <time>2021-06-15T16:10:25Z</time>
      </trkpt>
      <trkpt lat="40.664933" lon="-2.023331">
        <ele>1079.767</ele>
        <time>2021-06-15T16:10:36Z</time>
      </trkpt>
      <trkpt lat="40.664677" lon="-2.026030">
        <ele>1079.281</ele>
        <time>2021-06-15T16:11:06Z</time>
      </trkpt>
      <trkpt lat="40.664325" lon="-2.027006">
        <ele>1080.619</ele>
        <time>2021-06-15T16:11:24Z</time>
      </trkpt>
      <trkpt lat="40.664748" lon="-2.029004">
        <ele>1082.608</ele>
        <time>2021-06-15T16:13:01Z</time>
      </trkpt>
      <trkpt lat="40.665543" lon="-2.029756">
        <ele>1080.573</ele>
        <time>2021-06-15T16:13:23Z</time>
      </trkpt>
      <trkpt lat="40.668853" lon="-2.029989">
        <ele>1073.921</ele>
        <time>2021-06-15T16:14:18Z</time>
      </trkpt>
      <trkpt lat="40.670099" lon="-2.031572">
        <ele>1076.475</ele>
        <time>2021-06-15T16:14:53Z</time>
      </trkpt>
      <trkpt lat="40.670422" lon="-2.033461">
        <ele>1081.798</ele>
        <time>2021-06-15T16:15:35Z</time>
      </trkpt>
      <trkpt lat="40.671138" lon="-2.034582">
        <ele>1082.461</ele>
        <time>2021-06-15T16:16:05Z</time>
      </trkpt>
      <trkpt lat="40.671663" lon="-2.034913">
        <ele>1082.261</ele>
        <time>2021-06-15T16:16:18Z</time>
      </trkpt>
      <trkpt lat="40.673881" lon="-2.037568">
        <ele>1078.681</ele>
        <time>2021-06-15T16:17:00Z</time>
      </trkpt>
      <trkpt lat="40.675990" lon="-2.038231">
        <ele>1080.675</ele>
        <time>2021-06-15T16:17:51Z</time>
      </trkpt>
      <trkpt lat="40.676983" lon="-2.039535">
        <ele>1074.076</ele>
        <time>2021-06-15T16:18:12Z</time>
      </trkpt>
      <trkpt lat="40.677214" lon="-2.040333">
        <ele>1070.790</ele>
        <time>2021-06-15T16:18:21Z</time>
      </trkpt>
      <trkpt lat="40.676988" lon="-2.040844">
        <ele>1069.719</ele>
        <time>2021-06-15T16:18:27Z</time>
      </trkpt>
      <trkpt lat="40.676151" lon="-2.041213">
        <ele>1077.908</ele>
        <time>2021-06-15T16:19:01Z</time>
      </trkpt>
      <trkpt lat="40.675366" lon="-2.040978">
        <ele>1084.964</ele>
        <time>2021-06-15T16:19:47Z</time>
      </trkpt>
      <trkpt lat="40.675233" lon="-2.041229">
        <ele>1085.222</ele>
        <time>2021-06-15T16:20:00Z</time>
      </trkpt>
      <trkpt lat="40.675720" lon="-2.041782">
        <ele>1086.786</ele>
        <time>2021-06-15T16:20:26Z</time>
      </trkpt>
      <trkpt lat="40.675730" lon="-2.042304">
        <ele>1086.929</ele>
        <time>2021-06-15T16:20:39Z</time>
      </trkpt>
      <trkpt lat="40.676166" lon="-2.043077">
        <ele>1085.912</ele>
        <time>2021-06-15T16:23:20Z</time>
      </trkpt>
      <trkpt lat="40.676544" lon="-2.044871">
        <ele>1075.762</ele>
        <time>2021-06-15T16:23:48Z</time>
      </trkpt>
      <trkpt lat="40.678996" lon="-2.047902">
        <ele>1077.242</ele>
        <time>2021-06-15T16:26:04Z</time>
      </trkpt>
      <trkpt lat="40.679745" lon="-2.047931">
        <ele>1077.356</ele>
        <time>2021-06-15T16:26:18Z</time>
      </trkpt>
      <trkpt lat="40.681251" lon="-2.048573">
        <ele>1083.975</ele>
        <time>2021-06-15T16:27:05Z</time>
      </trkpt>
      <trkpt lat="40.682515" lon="-2.047601">
        <ele>1081.228</ele>
        <time>2021-06-15T16:27:38Z</time>
      </trkpt>
      <trkpt lat="40.683256" lon="-2.047831">
        <ele>1079.720</ele>
        <time>2021-06-15T16:27:53Z</time>
      </trkpt>
      <trkpt lat="40.684716" lon="-2.047794">
        <ele>1083.008</ele>
        <time>2021-06-15T16:28:28Z</time>
      </trkpt>
      <trkpt lat="40.686869" lon="-2.048513">
        <ele>1075.884</ele>
        <time>2021-06-15T16:29:09Z</time>
      </trkpt>
      <trkpt lat="40.689382" lon="-2.047535">
        <ele>1072.352</ele>
        <time>2021-06-15T16:29:59Z</time>
      </trkpt>
      <trkpt lat="40.690730" lon="-2.049691">
        <ele>1064.766</ele>
        <time>2021-06-15T16:30:46Z</time>
      </trkpt>
      <trkpt lat="40.691882" lon="-2.050821">
        <ele>1073.369</ele>
        <time>2021-06-15T16:31:35Z</time>
      </trkpt>
      <trkpt lat="40.692860" lon="-2.051404">
        <ele>1083.552</ele>
        <time>2021-06-15T16:32:36Z</time>
      </trkpt>
      <trkpt lat="40.693093" lon="-2.050411">
        <ele>1089.512</ele>
        <time>2021-06-15T16:33:20Z</time>
      </trkpt>
      <trkpt lat="40.693455" lon="-2.050076">
        <ele>1093.592</ele>
        <time>2021-06-15T16:43:54Z</time>
      </trkpt>
      <trkpt lat="40.694206" lon="-2.049969">
        <ele>1088.546</ele>
        <time>2021-06-15T16:46:45Z</time>
      </trkpt>
      <trkpt lat="40.695257" lon="-2.048867">
        <ele>1078.349</ele>
        <time>2021-06-15T16:47:07Z</time>
      </trkpt>
      <trkpt lat="40.696179" lon="-2.048751">
        <ele>1076.502</ele>
        <time>2021-06-15T16:47:26Z</time>
      </trkpt>
      <trkpt lat="40.696754" lon="-2.048286">
        <ele>1077.122</ele>
        <time>2021-06-15T16:47:44Z</time>
      </trkpt>
      <trkpt lat="40.696900" lon="-2.048436">
        <ele>1076.908</ele>
        <time>2021-06-15T16:47:52Z</time>
      </trkpt>
      <trkpt lat="40.696599" lon="-2.049644">
        <ele>1069.391</ele>
        <time>2021-06-15T16:48:15Z</time>
      </trkpt>
      <trkpt lat="40.697223" lon="-2.050565">
        <ele>1064.049</ele>
        <time>2021-06-15T16:48:48Z</time>
      </trkpt>
      <trkpt lat="40.699118" lon="-2.049835">
        <ele>1059.233</ele>
        <time>2021-06-15T16:49:29Z</time>
      </trkpt>
      <trkpt lat="40.700019" lon="-2.049924">
        <ele>1058.786</ele>
        <time>2021-06-15T16:49:46Z</time>
      </trkpt>
      <trkpt lat="40.700548" lon="-2.050588">
        <ele>1057.889</ele>
        <time>2021-06-15T16:50:00Z</time>
      </trkpt>
      <trkpt lat="40.700557" lon="-2.052542">
        <ele>1057.619</ele>
        <time>2021-06-15T16:50:35Z</time>
      </trkpt>
      <trkpt lat="40.700936" lon="-2.053397">
        <ele>1060.319</ele>
        <time>2021-06-15T16:50:59Z</time>
      </trkpt>
      <trkpt lat="40.701485" lon="-2.053549">
        <ele>1060.143</ele>
        <time>2021-06-15T16:51:17Z</time>
      </trkpt>
      <trkpt lat="40.702521" lon="-2.052135">
        <ele>1058.942</ele>
        <time>2021-06-15T16:51:49Z</time>
      </trkpt>
      <trkpt lat="40.703176" lon="-2.052143">
        <ele>1058.422</ele>
        <time>2021-06-15T16:52:02Z</time>
      </trkpt>
      <trkpt lat="40.703990" lon="-2.052530">
        <ele>1058.014</ele>
        <time>2021-06-15T16:52:23Z</time>
      </trkpt>
      <trkpt lat="40.704215" lon="-2.052872">
        <ele>1057.708</ele>
        <time>2021-06-15T16:52:31Z</time>
      </trkpt>
      <trkpt lat="40.704481" lon="-2.055016">
        <ele>1058.541</ele>
        <time>2021-06-15T16:53:11Z</time>
      </trkpt>
      <trkpt lat="40.704818" lon="-2.056171">
        <ele>1057.059</ele>
        <time>2021-06-15T16:53:31Z</time>
      </trkpt>
      <trkpt lat="40.704898" lon="-2.057479">
        <ele>1057.453</ele>
        <time>2021-06-15T16:53:54Z</time>
      </trkpt>
      <trkpt lat="40.705634" lon="-2.058597">
        <ele>1060.136</ele>
        <time>2021-06-15T16:54:22Z</time>
      </trkpt>
      <trkpt lat="40.706779" lon="-2.059252">
        <ele>1056.459</ele>
        <time>2021-06-15T16:54:51Z</time>
      </trkpt>
      <trkpt lat="40.708292" lon="-2.060566">
        <ele>1058.369</ele>
        <time>2021-06-15T16:55:36Z</time>
      </trkpt>
      <trkpt lat="40.709076" lon="-2.060850">
        <ele>1057.189</ele>
        <time>2021-06-15T16:55:56Z</time>
      </trkpt>
      <trkpt lat="40.709469" lon="-2.061327">
        <ele>1056.833</ele>
        <time>2021-06-15T16:56:09Z</time>
      </trkpt>
      <trkpt lat="40.709697" lon="-2.062600">
        <ele>1054.117</ele>
        <time>2021-06-15T16:56:32Z</time>
      </trkpt>
      <trkpt lat="40.709206" lon="-2.065501">
        <ele>1069.087</ele>
        <time>2021-06-15T16:58:28Z</time>
      </trkpt>
      <trkpt lat="40.709388" lon="-2.066308">
        <ele>1070.315</ele>
        <time>2021-06-15T16:58:53Z</time>
      </trkpt>
      <trkpt lat="40.709807" lon="-2.066563">
        <ele>1069.308</ele>
        <time>2021-06-15T16:59:15Z</time>
      </trkpt>
      <trkpt lat="40.709475" lon="-2.066576">
        <ele>1070.068</ele>
        <time>2021-06-15T17:10:01Z</time>
      </trkpt>
      <trkpt lat="40.709723" lon="-2.067309">
        <ele>1066.576</ele>
        <time>2021-06-15T17:10:24Z</time>
      </trkpt>
      <trkpt lat="40.710456" lon="-2.067914">
        <ele>1057.230</ele>
        <time>2021-06-15T17:10:43Z</time>
      </trkpt>
      <trkpt lat="40.711729" lon="-2.067943">
        <ele>1053.923</ele>
        <time>2021-06-15T17:11:15Z</time>
      </trkpt>
      <trkpt lat="40.715066" lon="-2.069746">
        <ele>1049.116</ele>
        <time>2021-06-15T17:12:38Z</time>
      </trkpt>
      <trkpt lat="40.716285" lon="-2.069846">
        <ele>1051.146</ele>
        <time>2021-06-15T17:13:14Z</time>
      </trkpt>
      <trkpt lat="40.717320" lon="-2.070483">
        <ele>1052.116</ele>
        <time>2021-06-15T17:13:49Z</time>
      </trkpt>
      <trkpt lat="40.717976" lon="-2.071625">
        <ele>1051.530</ele>
        <time>2021-06-15T17:14:19Z</time>
      </trkpt>
      <trkpt lat="40.717915" lon="-2.073438">
        <ele>1051.856</ele>
        <time>2021-06-15T17:14:52Z</time>
      </trkpt>
      <trkpt lat="40.718478" lon="-2.074746">
        <ele>1052.959</ele>
        <time>2021-06-15T17:15:18Z</time>
      </trkpt>
      <trkpt lat="40.719143" lon="-2.075521">
        <ele>1049.914</ele>
        <time>2021-06-15T17:15:37Z</time>
      </trkpt>
      <trkpt lat="40.724023" lon="-2.077311">
        <ele>1057.008</ele>
        <time>2021-06-15T17:18:00Z</time>
      </trkpt>
      <trkpt lat="40.724389" lon="-2.076912">
        <ele>1059.952</ele>
        <time>2021-06-15T17:18:21Z</time>
      </trkpt>
      <trkpt lat="40.725091" lon="-2.077720">
        <ele>1066.360</ele>
        <time>2021-06-15T17:19:17Z</time>
      </trkpt>
      <trkpt lat="40.725450" lon="-2.077505">
        <ele>1069.064</ele>
        <time>2021-06-15T17:19:37Z</time>
      </trkpt>
      <trkpt lat="40.725536" lon="-2.076945">
        <ele>1072.627</ele>
        <time>2021-06-15T17:20:04Z</time>
      </trkpt>
      <trkpt lat="40.726988" lon="-2.077987">
        <ele>1086.650</ele>
        <time>2021-06-15T17:22:03Z</time>
      </trkpt>
      <trkpt lat="40.727932" lon="-2.077364">
        <ele>1095.460</ele>
        <time>2021-06-15T17:23:09Z</time>
      </trkpt>
      <trkpt lat="40.728490" lon="-2.078345">
        <ele>1087.110</ele>
        <time>2021-06-15T17:23:38Z</time>
      </trkpt>
      <trkpt lat="40.728414" lon="-2.079522">
        <ele>1081.194</ele>
        <time>2021-06-15T17:23:56Z</time>
      </trkpt>
      <trkpt lat="40.728854" lon="-2.079667">
        <ele>1078.625</ele>
        <time>2021-06-15T17:24:05Z</time>
      </trkpt>
      <trkpt lat="40.729718" lon="-2.080724">
        <ele>1066.926</ele>
        <time>2021-06-15T17:24:25Z</time>
      </trkpt>
      <trkpt lat="40.731564" lon="-2.081828">
        <ele>1050.508</ele>
        <time>2021-06-15T17:25:05Z</time>
      </trkpt>
      <trkpt lat="40.732454" lon="-2.081970">
        <ele>1043.408</ele>
        <time>2021-06-15T17:25:21Z</time>
      </trkpt>
      <trkpt lat="40.735717" lon="-2.080598">
        <ele>1036.159</ele>
        <time>2021-06-15T17:26:42Z</time>
      </trkpt>
      <trkpt lat="40.738491" lon="-2.081845">
        <ele>1030.537</ele>
        <time>2021-06-15T17:27:41Z</time>
      </trkpt>
      <trkpt lat="40.739306" lon="-2.081945">
        <ele>1029.131</ele>
        <time>2021-06-15T17:27:56Z</time>
      </trkpt>
      <trkpt lat="40.740515" lon="-2.081653">
        <ele>1030.164</ele>
        <time>2021-06-15T17:28:22Z</time>
      </trkpt>
      <trkpt lat="40.741222" lon="-2.081824">
        <ele>1031.957</ele>
        <time>2021-06-15T17:28:47Z</time>
      </trkpt>
      <trkpt lat="40.741690" lon="-2.082623">
        <ele>1028.467</ele>
        <time>2021-06-15T17:29:06Z</time>
      </trkpt>
      <trkpt lat="40.741042" lon="-2.083519">
        <ele>1026.237</ele>
        <time>2021-06-15T17:29:25Z</time>
      </trkpt>
      <trkpt lat="40.739964" lon="-2.086093">
        <ele>1025.561</ele>
        <time>2021-06-15T17:30:11Z</time>
      </trkpt>
      <trkpt lat="40.739872" lon="-2.087076">
        <ele>1028.788</ele>
        <time>2021-06-15T17:30:33Z</time>
      </trkpt>
      <trkpt lat="40.740203" lon="-2.088087">
        <ele>1028.124</ele>
        <time>2021-06-15T17:30:50Z</time>
      </trkpt>
      <trkpt lat="40.740888" lon="-2.088748">
        <ele>1023.126</ele>
        <time>2021-06-15T17:31:03Z</time>
      </trkpt>
      <trkpt lat="40.742612" lon="-2.089140">
        <ele>1025.708</ele>
        <time>2021-06-15T17:31:32Z</time>
      </trkpt>
      <trkpt lat="40.745624" lon="-2.090420">
        <ele>1023.915</ele>
        <time>2021-06-15T17:32:23Z</time>
      </trkpt>
      <trkpt lat="40.747334" lon="-2.091552">
        <ele>1023.663</ele>
        <time>2021-06-15T17:32:58Z</time>
      </trkpt>
      <trkpt lat="40.747796" lon="-2.091585">
        <ele>1023.367</ele>
        <time>2021-06-15T17:33:07Z</time>
      </trkpt>
      <trkpt lat="40.748266" lon="-2.091241">
        <ele>1024.780</ele>
        <time>2021-06-15T17:33:16Z</time>
      </trkpt>
      <trkpt lat="40.748088" lon="-2.090230">
        <ele>1027.163</ele>
        <time>2021-06-15T17:33:36Z</time>
      </trkpt>
      <trkpt lat="40.747288" lon="-2.089487">
        <ele>1026.933</ele>
        <time>2021-06-15T17:35:35Z</time>
      </trkpt>
      <trkpt lat="40.747020" lon="-2.088520">
        <ele>1025.533</ele>
        <time>2021-06-15T17:36:01Z</time>
      </trkpt>
      <trkpt lat="40.747260" lon="-2.087213">
        <ele>1023.197</ele>
        <time>2021-06-15T17:36:25Z</time>
      </trkpt>
      <trkpt lat="40.748179" lon="-2.086732">
        <ele>1023.248</ele>
        <time>2021-06-15T17:36:51Z</time>
      </trkpt>
      <trkpt lat="40.748701" lon="-2.086731">
        <ele>1022.261</ele>
        <time>2021-06-15T17:37:02Z</time>
      </trkpt>
      <trkpt lat="40.750606" lon="-2.087750">
        <ele>1019.617</ele>
        <time>2021-06-15T17:37:43Z</time>
      </trkpt>
      <trkpt lat="40.752554" lon="-2.089840">
        <ele>1020.208</ele>
        <time>2021-06-15T17:38:33Z</time>
      </trkpt>
      <trkpt lat="40.754172" lon="-2.090674">
        <ele>1020.761</ele>
        <time>2021-06-15T17:39:06Z</time>
      </trkpt>
      <trkpt lat="40.754066" lon="-2.092254">
        <ele>1027.339</ele>
        <time>2021-06-15T17:40:00Z</time>
      </trkpt>
      <trkpt lat="40.754889" lon="-2.093102">
        <ele>1024.833</ele>
        <time>2021-06-15T17:40:40Z</time>
      </trkpt>
      <trkpt lat="40.755608" lon="-2.093409">
        <ele>1023.296</ele>
        <time>2021-06-15T17:40:55Z</time>
      </trkpt>
      <trkpt lat="40.755373" lon="-2.094092">
        <ele>1022.079</ele>
        <time>2021-06-15T17:41:11Z</time>
      </trkpt>
      <trkpt lat="40.755441" lon="-2.094954">
        <ele>1026.949</ele>
        <time>2021-06-15T17:41:45Z</time>
      </trkpt>
      <trkpt lat="40.756334" lon="-2.095687">
        <ele>1033.979</ele>
        <time>2021-06-15T17:42:40Z</time>
      </trkpt>
      <trkpt lat="40.756108" lon="-2.097767">
        <ele>1025.873</ele>
        <time>2021-06-15T17:43:09Z</time>
      </trkpt>
      <trkpt lat="40.756318" lon="-2.099591">
        <ele>1015.295</ele>
        <time>2021-06-15T17:43:28Z</time>
      </trkpt>
      <trkpt lat="40.755562" lon="-2.102911">
        <ele>1016.849</ele>
        <time>2021-06-15T17:44:25Z</time>
      </trkpt>
      <trkpt lat="40.755812" lon="-2.103896">
        <ele>1014.623</ele>
        <time>2021-06-15T17:44:37Z</time>
      </trkpt>
      <trkpt lat="40.756253" lon="-2.104496">
        <ele>1013.308</ele>
        <time>2021-06-15T17:44:47Z</time>
      </trkpt>
      <trkpt lat="40.757379" lon="-2.104937">
        <ele>1012.016</ele>
        <time>2021-06-15T17:45:11Z</time>
      </trkpt>
      <trkpt lat="40.758259" lon="-2.104294">
        <ele>1013.234</ele>
        <time>2021-06-15T17:45:30Z</time>
      </trkpt>
      <trkpt lat="40.758946" lon="-2.103257">
        <ele>1014.358</ele>
        <time>2021-06-15T17:46:00Z</time>
      </trkpt>
      <trkpt lat="40.760360" lon="-2.102881">
        <ele>1012.171</ele>
        <time>2021-06-15T17:46:33Z</time>
      </trkpt>
      <trkpt lat="40.761038" lon="-2.102416">
        <ele>1012.384</ele>
        <time>2021-06-15T17:46:51Z</time>
      </trkpt>
      <trkpt lat="40.762152" lon="-2.102724">
        <ele>1013.194</ele>
        <time>2021-06-15T17:47:22Z</time>
      </trkpt>
      <trkpt lat="40.762848" lon="-2.103865">
        <ele>1013.394</ele>
        <time>2021-06-15T17:48:00Z</time>
      </trkpt>
      <trkpt lat="40.763759" lon="-2.106902">
        <ele>1017.168</ele>
        <time>2021-06-15T17:49:07Z</time>
      </trkpt>
      <trkpt lat="40.763874" lon="-2.107972">
        <ele>1018.429</ele>
        <time>2021-06-15T17:49:30Z</time>
      </trkpt>
      <trkpt lat="40.764310" lon="-2.107417">
        <ele>1017.600</ele>
        <time>2021-06-15T17:49:44Z</time>
      </trkpt>
      <trkpt lat="40.766124" lon="-2.107092">
        <ele>1012.820</ele>
        <time>2021-06-15T17:50:13Z</time>
      </trkpt>
      <trkpt lat="40.767491" lon="-2.107399">
        <ele>1015.008</ele>
        <time>2021-06-15T17:50:43Z</time>
      </trkpt>
      <trkpt lat="40.768471" lon="-2.108628">
        <ele>1010.789</ele>
        <time>2021-06-15T17:51:09Z</time>
      </trkpt>
      <trkpt lat="40.769372" lon="-2.111362">
        <ele>1009.217</ele>
        <time>2021-06-15T17:51:52Z</time>
      </trkpt>
      <trkpt lat="40.770079" lon="-2.112288">
        <ele>1006.881</ele>
        <time>2021-06-15T17:52:09Z</time>
      </trkpt>
      <trkpt lat="40.771551" lon="-2.112224">
        <ele>1008.874</ele>
        <time>2021-06-15T17:52:39Z</time>
      </trkpt>
      <trkpt lat="40.772993" lon="-2.111325">
        <ele>1010.877</ele>
        <time>2021-06-15T17:53:19Z</time>
      </trkpt>
      <trkpt lat="40.774743" lon="-2.111587">
        <ele>1005.927</ele>
        <time>2021-06-15T17:53:52Z</time>
      </trkpt>
      <trkpt lat="40.777028" lon="-2.111212">
        <ele>1002.477</ele>
        <time>2021-06-15T17:54:29Z</time>
      </trkpt>
      <trkpt lat="40.779123" lon="-2.111459">
        <ele>1005.041</ele>
        <time>2021-06-15T17:55:16Z</time>
      </trkpt>
      <trkpt lat="40.779862" lon="-2.112340">
        <ele>1008.522</ele>
        <time>2021-06-15T17:55:49Z</time>
      </trkpt>
      <trkpt lat="40.780157" lon="-2.113657">
        <ele>1006.262</ele>
        <time>2021-06-15T17:56:18Z</time>
      </trkpt>
      <trkpt lat="40.780579" lon="-2.114360">
        <ele>1001.608</ele>
        <time>2021-06-15T17:56:28Z</time>
      </trkpt>
      <trkpt lat="40.781587" lon="-2.114964">
        <ele>1002.908</ele>
        <time>2021-06-15T17:56:52Z</time>
      </trkpt>
      <trkpt lat="40.782943" lon="-2.118277">
        <ele>1009.549</ele>
        <time>2021-06-15T17:58:25Z</time>
      </trkpt>
      <trkpt lat="40.782924" lon="-2.119302">
        <ele>1008.197</ele>
        <time>2021-06-15T17:58:49Z</time>
      </trkpt>
      <trkpt lat="40.781950" lon="-2.123423">
        <ele>1001.181</ele>
        <time>2021-06-15T17:59:55Z</time>
      </trkpt>
      <trkpt lat="40.782507" lon="-2.129011">
        <ele>1002.974</ele>
        <time>2021-06-15T18:02:00Z</time>
      </trkpt>
      <trkpt lat="40.782261" lon="-2.129956">
        <ele>999.257</ele>
        <time>2021-06-15T18:06:52Z</time>
      </trkpt>
      <trkpt lat="40.782361" lon="-2.131065">
        <ele>997.217</ele>
        <time>2021-06-15T18:07:11Z</time>
      </trkpt>
      <trkpt lat="40.782196" lon="-2.133066">
        <ele>994.597</ele>
        <time>2021-06-15T18:07:45Z</time>
      </trkpt>
      <trkpt lat="40.781685" lon="-2.134584">
        <ele>997.151</ele>
        <time>2021-06-15T18:08:14Z</time>
      </trkpt>
      <trkpt lat="40.781660" lon="-2.137324">
        <ele>1000.526</ele>
        <time>2021-06-15T18:09:14Z</time>
      </trkpt>
      <trkpt lat="40.781848" lon="-2.138572">
        <ele>1007.647</ele>
        <time>2021-06-15T18:09:56Z</time>
      </trkpt>
      <trkpt lat="40.782652" lon="-2.140674">
        <ele>1004.211</ele>
        <time>2021-06-15T18:10:37Z</time>
      </trkpt>
      <trkpt lat="40.782208" lon="-2.143137">
        <ele>1003.308</ele>
        <time>2021-06-15T18:11:21Z</time>
      </trkpt>
      <trkpt lat="40.782386" lon="-2.144148">
        <ele>1002.289</ele>
        <time>2021-06-15T18:11:37Z</time>
      </trkpt>
      <trkpt lat="40.782278" lon="-2.147378">
        <ele>995.917</ele>
        <time>2021-06-15T18:12:24Z</time>
      </trkpt>
      <trkpt lat="40.783647" lon="-2.151756">
        <ele>984.611</ele>
        <time>2021-06-15T18:13:22Z</time>
      </trkpt>
      <trkpt lat="40.783290" lon="-2.152399">
        <ele>980.814</ele>
        <time>2021-06-15T18:13:31Z</time>
      </trkpt>
      <trkpt lat="40.783346" lon="-2.153075">
        <ele>977.817</ele>
        <time>2021-06-15T18:13:38Z</time>
      </trkpt>
      <trkpt lat="40.784582" lon="-2.154527">
        <ele>979.277</ele>
        <time>2021-06-15T18:14:06Z</time>
      </trkpt>
      <trkpt lat="40.785037" lon="-2.154073">
        <ele>984.487</ele>
        <time>2021-06-15T18:14:33Z</time>
      </trkpt>
      <trkpt lat="40.785861" lon="-2.154719">
        <ele>989.221</ele>
        <time>2021-06-15T18:15:15Z</time>
      </trkpt>
      <trkpt lat="40.786067" lon="-2.155872">
        <ele>983.877</ele>
        <time>2021-06-15T18:15:30Z</time>
      </trkpt>
      <trkpt lat="40.786435" lon="-2.156551">
        <ele>978.461</ele>
        <time>2021-06-15T18:15:38Z</time>
      </trkpt>
      <trkpt lat="40.787954" lon="-2.157821">
        <ele>972.627</ele>
        <time>2021-06-15T18:15:55Z</time>
      </trkpt>
      <trkpt lat="40.788557" lon="-2.157952">
        <ele>978.008</ele>
        <time>2021-06-15T18:16:11Z</time>
      </trkpt>
      <trkpt lat="40.789941" lon="-2.159100">
        <ele>986.244</ele>
        <time>2021-06-15T18:17:09Z</time>
      </trkpt>
      <trkpt lat="40.790573" lon="-2.158610">
        <ele>989.022</ele>
        <time>2021-06-15T18:17:41Z</time>
      </trkpt>
      <trkpt lat="40.790734" lon="-2.158029">
        <ele>992.586</ele>
        <time>2021-06-15T18:17:57Z</time>
      </trkpt>
      <trkpt lat="40.791517" lon="-2.157466">
        <ele>990.799</ele>
        <time>2021-06-15T18:18:30Z</time>
      </trkpt>
      <trkpt lat="40.791885" lon="-2.157593">
        <ele>990.672</ele>
        <time>2021-06-15T18:18:49Z</time>
      </trkpt>
      <trkpt lat="40.792623" lon="-2.159252">
        <ele>988.332</ele>
        <time>2021-06-15T18:21:37Z</time>
      </trkpt>
      <trkpt lat="40.792774" lon="-2.160786">
        <ele>989.682</ele>
        <time>2021-06-15T18:22:04Z</time>
      </trkpt>
      <trkpt lat="40.792388" lon="-2.162728">
        <ele>997.156</ele>
        <time>2021-06-15T18:23:11Z</time>
      </trkpt>
      <trkpt lat="40.791382" lon="-2.164445">
        <ele>1006.714</ele>
        <time>2021-06-15T18:24:31Z</time>
      </trkpt>
      <trkpt lat="40.790573" lon="-2.166668">
        <ele>1020.554</ele>
        <time>2021-06-15T18:26:00Z</time>
      </trkpt>
      <trkpt lat="40.789366" lon="-2.168265">
        <ele>1024.809</ele>
        <time>2021-06-15T18:26:52Z</time>
      </trkpt>
      <trkpt lat="40.788950" lon="-2.168291">
        <ele>1027.408</ele>
        <time>2021-06-15T18:27:06Z</time>
      </trkpt>
      <trkpt lat="40.788034" lon="-2.167770">
        <ele>1031.638</ele>
        <time>2021-06-15T18:27:36Z</time>
      </trkpt>
      <trkpt lat="40.785721" lon="-2.167991">
        <ele>1040.336</ele>
        <time>2021-06-15T18:28:44Z</time>
      </trkpt>
      <trkpt lat="40.785028" lon="-2.167508">
        <ele>1043.170</ele>
        <time>2021-06-15T18:29:06Z</time>
      </trkpt>
      <trkpt lat="40.784411" lon="-2.167859">
        <ele>1045.153</ele>
        <time>2021-06-15T18:29:23Z</time>
      </trkpt>
      <trkpt lat="40.784045" lon="-2.168719">
        <ele>1047.216</ele>
        <time>2021-06-15T18:29:42Z</time>
      </trkpt>
      <trkpt lat="40.783166" lon="-2.169035">
        <ele>1048.086</ele>
        <time>2021-06-15T18:30:00Z</time>
      </trkpt>
      <trkpt lat="40.781517" lon="-2.170542">
        <ele>1050.156</ele>
        <time>2021-06-15T18:30:34Z</time>
      </trkpt>
      <trkpt lat="40.779422" lon="-2.174719">
        <ele>1057.460</ele>
        <time>2021-06-15T18:32:06Z</time>
      </trkpt>
      <trkpt lat="40.777548" lon="-2.181001">
        <ele>1070.471</ele>
        <time>2021-06-15T18:34:04Z</time>
      </trkpt>
      <trkpt lat="40.777000" lon="-2.183688">
        <ele>1077.741</ele>
        <time>2021-06-15T18:35:08Z</time>
      </trkpt>
      <trkpt lat="40.776318" lon="-2.185364">
        <ele>1087.015</ele>
        <time>2021-06-15T18:36:16Z</time>
      </trkpt>
      <trkpt lat="40.776561" lon="-2.186560">
        <ele>1093.408</ele>
        <time>2021-06-15T18:37:00Z</time>
      </trkpt>
      <trkpt lat="40.777453" lon="-2.187939">
        <ele>1100.874</ele>
        <time>2021-06-15T18:37:59Z</time>
      </trkpt>
      <trkpt lat="40.776824" lon="-2.189640">
        <ele>1109.552</ele>
        <time>2021-06-15T18:39:13Z</time>
      </trkpt>
      <trkpt lat="40.777661" lon="-2.190649">
        <ele>1114.836</ele>
        <time>2021-06-15T18:40:09Z</time>
      </trkpt>
      <trkpt lat="40.777776" lon="-2.191419">
        <ele>1118.959</ele>
        <time>2021-06-15T18:40:41Z</time>
      </trkpt>
      <trkpt lat="40.777550" lon="-2.192597">
        <ele>1125.122</ele>
        <time>2021-06-15T18:41:35Z</time>
      </trkpt>
      <trkpt lat="40.778269" lon="-2.193763">
        <ele>1132.462</ele>
        <time>2021-06-15T18:42:47Z</time>
      </trkpt>
      <trkpt lat="40.777788" lon="-2.195311">
        <ele>1139.592</ele>
        <time>2021-06-15T18:43:58Z</time>
      </trkpt>
      <trkpt lat="40.777638" lon="-2.198011">
        <ele>1152.996</ele>
        <time>2021-06-15T18:45:50Z</time>
      </trkpt>
      <trkpt lat="40.777036" lon="-2.198402">
        <ele>1155.212</ele>
        <time>2021-06-15T18:46:21Z</time>
      </trkpt>
      <trkpt lat="40.776442" lon="-2.199305">
        <ele>1159.932</ele>
        <time>2021-06-15T18:46:59Z</time>
      </trkpt>
      <trkpt lat="40.776584" lon="-2.201112">
        <ele>1167.205</ele>
        <time>2021-06-15T18:48:12Z</time>
      </trkpt>
      <trkpt lat="40.775829" lon="-2.201585">
        <ele>1172.008</ele>
        <time>2021-06-15T18:49:03Z</time>
      </trkpt>
      <trkpt lat="40.775111" lon="-2.203360">
        <ele>1180.138</ele>
        <time>2021-06-15T18:50:42Z</time>
      </trkpt>
      <trkpt lat="40.774820" lon="-2.203505">
        <ele>1181.276</ele>
        <time>2021-06-15T18:50:59Z</time>
      </trkpt>
      <trkpt lat="40.773414" lon="-2.202715">
        <ele>1190.070</ele>
        <time>2021-06-15T18:52:34Z</time>
      </trkpt>
      <trkpt lat="40.772633" lon="-2.202921">
        <ele>1195.283</ele>
        <time>2021-06-15T18:53:26Z</time>
      </trkpt>
      <trkpt lat="40.771884" lon="-2.202182">
        <ele>1199.846</ele>
        <time>2021-06-15T18:54:24Z</time>
      </trkpt>
      <trkpt lat="40.771055" lon="-2.201918">
        <ele>1205.086</ele>
        <time>2021-06-15T18:55:14Z</time>
      </trkpt>
      <trkpt lat="40.770835" lon="-2.201493">
        <ele>1206.686</ele>
        <time>2021-06-15T18:55:36Z</time>
      </trkpt>
      <trkpt lat="40.770840" lon="-2.200120">
        <ele>1213.550</ele>
        <time>2021-06-15T18:56:36Z</time>
      </trkpt>
      <trkpt lat="40.770300" lon="-2.199741">
        <ele>1217.942</ele>
        <time>2021-06-15T18:57:10Z</time>
      </trkpt>
      <trkpt lat="40.769151" lon="-2.199711">
        <ele>1226.022</ele>
        <time>2021-06-15T18:58:16Z</time>
      </trkpt>
      <trkpt lat="40.768063" lon="-2.199353">
        <ele>1231.614</ele>
        <time>2021-06-15T18:59:12Z</time>
      </trkpt>
      <trkpt lat="40.765709" lon="-2.199301">
        <ele>1244.008</ele>
        <time>2021-06-15T19:01:07Z</time>
      </trkpt>
      <trkpt lat="40.765081" lon="-2.199536">
        <ele>1247.741</ele>
        <time>2021-06-15T19:01:42Z</time>
      </trkpt>
      <trkpt lat="40.764513" lon="-2.200605">
        <ele>1253.049</ele>
        <time>2021-06-15T19:02:38Z</time>
      </trkpt>
      <trkpt lat="40.763317" lon="-2.200461">
        <ele>1259.323</ele>
        <time>2021-06-15T19:03:53Z</time>
      </trkpt>
      <trkpt lat="40.762464" lon="-2.199123">
        <ele>1267.446</ele>
        <time>2021-06-15T19:05:14Z</time>
      </trkpt>
      <trkpt lat="40.762332" lon="-2.199144">
        <ele>1243.018</ele>
        <time>2021-05-28T09:24:52Z</time>
      </trkpt>
      <trkpt lat="40.762020" lon="-2.200085">
        <ele>1232.298</ele>
        <time>2021-05-28T09:31:00Z</time>
      </trkpt>
      <trkpt lat="40.761683" lon="-2.200260">
        <ele>1234.217</ele>
        <time>2021-05-28T09:31:12Z</time>
      </trkpt>
      <trkpt lat="40.759132" lon="-2.198466">
        <ele>1248.308</ele>
        <time>2021-05-28T09:32:42Z</time>
      </trkpt>
      <trkpt lat="40.755158" lon="-2.196920">
        <ele>1260.758</ele>
        <time>2021-05-28T09:34:26Z</time>
      </trkpt>
      <trkpt lat="40.752863" lon="-2.196391">
        <ele>1263.665</ele>
        <time>2021-05-28T09:35:18Z</time>
      </trkpt>
      <trkpt lat="40.753019" lon="-2.196291">
        <ele>1263.473</ele>
        <time>2021-05-28T09:35:25Z</time>
      </trkpt>
      <trkpt lat="40.754998" lon="-2.196796">
        <ele>1261.547</ele>
        <time>2021-05-28T09:36:07Z</time>
      </trkpt>
      <trkpt lat="40.755025" lon="-2.196672">
        <ele>1262.237</ele>
        <time>2021-05-28T09:36:30Z</time>
      </trkpt>
      <trkpt lat="40.751034" lon="-2.195823">
        <ele>1270.843</ele>
        <time>2021-05-28T09:38:35Z</time>
      </trkpt>
      <trkpt lat="40.750247" lon="-2.194826">
        <ele>1269.183</ele>
        <time>2021-05-28T09:38:57Z</time>
      </trkpt>
      <trkpt lat="40.748323" lon="-2.191322">
        <ele>1266.863</ele>
        <time>2021-05-28T09:39:48Z</time>
      </trkpt>
      <trkpt lat="40.746986" lon="-2.190131">
        <ele>1271.136</ele>
        <time>2021-05-28T09:40:23Z</time>
      </trkpt>
      <trkpt lat="40.745553" lon="-2.187621">
        <ele>1278.717</ele>
        <time>2021-05-28T09:41:22Z</time>
      </trkpt>
      <trkpt lat="40.744535" lon="-2.184343">
        <ele>1285.018</ele>
        <time>2021-05-28T09:42:26Z</time>
      </trkpt>
      <trkpt lat="40.744235" lon="-2.183772">
        <ele>1288.008</ele>
        <time>2021-05-28T09:42:41Z</time>
      </trkpt>
      <trkpt lat="40.743340" lon="-2.182993">
        <ele>1294.440</ele>
        <time>2021-05-28T09:43:16Z</time>
      </trkpt>
      <trkpt lat="40.742542" lon="-2.182877">
        <ele>1298.277</ele>
        <time>2021-05-28T09:43:44Z</time>
      </trkpt>
      <trkpt lat="40.740985" lon="-2.181796">
        <ele>1297.415</ele>
        <time>2021-05-28T09:44:21Z</time>
      </trkpt>
      <trkpt lat="40.738923" lon="-2.179545">
        <ele>1301.779</ele>
        <time>2021-05-28T09:45:15Z</time>
      </trkpt>
      <trkpt lat="40.738343" lon="-2.178380">
        <ele>1302.769</ele>
        <time>2021-05-28T09:45:36Z</time>
      </trkpt>
      <trkpt lat="40.736218" lon="-2.175787">
        <ele>1306.725</ele>
        <time>2021-05-28T09:46:35Z</time>
      </trkpt>
      <trkpt lat="40.734006" lon="-2.172565">
        <ele>1306.895</ele>
        <time>2021-05-28T09:47:30Z</time>
      </trkpt>
      <trkpt lat="40.733041" lon="-2.171598">
        <ele>1305.265</ele>
        <time>2021-05-28T09:47:48Z</time>
      </trkpt>
      <trkpt lat="40.731603" lon="-2.170858">
        <ele>1301.116</ele>
        <time>2021-05-28T09:48:08Z</time>
      </trkpt>
      <trkpt lat="40.729503" lon="-2.170247">
        <ele>1306.676</ele>
        <time>2021-05-28T09:48:46Z</time>
      </trkpt>
      <trkpt lat="40.728212" lon="-2.170226">
        <ele>1305.513</ele>
        <time>2021-05-28T09:49:06Z</time>
      </trkpt>
      <trkpt lat="40.726688" lon="-2.169490">
        <ele>1309.208</ele>
        <time>2021-05-28T09:49:36Z</time>
      </trkpt>
      <trkpt lat="40.725176" lon="-2.169522">
        <ele>1314.088</ele>
        <time>2021-05-28T09:50:08Z</time>
      </trkpt>
      <trkpt lat="40.722690" lon="-2.167997">
        <ele>1324.095</ele>
        <time>2021-05-28T09:51:19Z</time>
      </trkpt>
      <trkpt lat="40.721376" lon="-2.166961">
        <ele>1325.363</ele>
        <time>2021-05-28T09:51:54Z</time>
      </trkpt>
      <trkpt lat="40.719313" lon="-2.166370">
        <ele>1327.827</ele>
        <time>2021-05-28T09:52:39Z</time>
      </trkpt>
      <trkpt lat="40.717529" lon="-2.166214">
        <ele>1333.227</ele>
        <time>2021-05-28T09:53:22Z</time>
      </trkpt>
      <trkpt lat="40.715934" lon="-2.164890">
        <ele>1337.013</ele>
        <time>2021-05-28T09:54:06Z</time>
      </trkpt>
      <trkpt lat="40.714409" lon="-2.164017">
        <ele>1331.633</ele>
        <time>2021-05-28T09:54:33Z</time>
      </trkpt>
      <trkpt lat="40.713018" lon="-2.162247">
        <ele>1326.563</ele>
        <time>2021-05-28T09:55:00Z</time>
      </trkpt>
      <trkpt lat="40.712595" lon="-2.159758">
        <ele>1333.323</ele>
        <time>2021-05-28T09:55:38Z</time>
      </trkpt>
      <trkpt lat="40.712050" lon="-2.151823">
        <ele>1344.683</ele>
        <time>2021-05-28T09:57:50Z</time>
      </trkpt>
      <trkpt lat="40.712319" lon="-2.150654">
        <ele>1344.511</ele>
        <time>2021-05-28T09:58:08Z</time>
      </trkpt>
      <trkpt lat="40.711835" lon="-2.147324">
        <ele>1344.508</ele>
        <time>2021-05-28T09:58:58Z</time>
      </trkpt>
      <trkpt lat="40.711974" lon="-2.145782">
        <ele>1344.149</ele>
        <time>2021-05-28T09:59:18Z</time>
      </trkpt>
      <trkpt lat="40.712338" lon="-2.144831">
        <ele>1344.746</ele>
        <time>2021-05-28T09:59:33Z</time>
      </trkpt>
      <trkpt lat="40.712366" lon="-2.144267">
        <ele>1345.544</ele>
        <time>2021-05-28T09:59:41Z</time>
      </trkpt>
      <trkpt lat="40.711055" lon="-2.141944">
        <ele>1337.638</ele>
        <time>2021-05-28T10:00:14Z</time>
      </trkpt>
      <trkpt lat="40.709822" lon="-2.140540">
        <ele>1331.688</ele>
        <time>2021-05-28T10:00:36Z</time>
      </trkpt>
      <trkpt lat="40.709470" lon="-2.138113">
        <ele>1331.644</ele>
        <time>2021-05-28T10:01:06Z</time>
      </trkpt>
      <trkpt lat="40.707159" lon="-2.133563">
        <ele>1334.614</ele>
        <time>2021-05-28T10:07:37Z</time>
      </trkpt>
      <trkpt lat="40.706424" lon="-2.131387">
        <ele>1336.074</ele>
        <time>2021-05-28T10:08:20Z</time>
      </trkpt>
      <trkpt lat="40.705624" lon="-2.129970">
        <ele>1338.015</ele>
        <time>2021-05-28T10:08:53Z</time>
      </trkpt>
      <trkpt lat="40.705155" lon="-2.128530">
        <ele>1335.765</ele>
        <time>2021-05-28T10:09:18Z</time>
      </trkpt>
      <trkpt lat="40.704018" lon="-2.126136">
        <ele>1333.211</ele>
        <time>2021-05-28T10:10:02Z</time>
      </trkpt>
      <trkpt lat="40.703838" lon="-2.126166">
        <ele>1332.108</ele>
        <time>2021-05-28T10:10:07Z</time>
      </trkpt>
      <trkpt lat="40.702214" lon="-2.128571">
        <ele>1329.738</ele>
        <time>2021-05-28T10:10:58Z</time>
      </trkpt>
      <trkpt lat="40.700935" lon="-2.130096">
        <ele>1330.935</ele>
        <time>2021-05-28T10:11:39Z</time>
      </trkpt>
      <trkpt lat="40.700393" lon="-2.131363">
        <ele>1332.163</ele>
        <time>2021-05-28T10:12:05Z</time>
      </trkpt>
      <trkpt lat="40.700183" lon="-2.133011">
        <ele>1332.467</ele>
        <time>2021-05-28T10:12:33Z</time>
      </trkpt>
      <trkpt lat="40.698873" lon="-2.135262">
        <ele>1323.987</ele>
        <time>2021-05-28T10:13:10Z</time>
      </trkpt>
      <trkpt lat="40.698376" lon="-2.136657">
        <ele>1320.753</ele>
        <time>2021-05-28T10:13:30Z</time>
      </trkpt>
      <trkpt lat="40.697475" lon="-2.137040">
        <ele>1323.643</ele>
        <time>2021-05-28T10:13:50Z</time>
      </trkpt>
      <trkpt lat="40.693479" lon="-2.140396">
        <ele>1316.143</ele>
        <time>2021-05-28T10:15:20Z</time>
      </trkpt>
      <trkpt lat="40.693259" lon="-2.140967">
        <ele>1313.636</ele>
        <time>2021-05-28T10:15:29Z</time>
      </trkpt>
      <trkpt lat="40.691794" lon="-2.142840">
        <ele>1318.917</ele>
        <time>2021-05-28T10:16:18Z</time>
      </trkpt>
      <trkpt lat="40.691322" lon="-2.143947">
        <ele>1327.618</ele>
        <time>2021-05-28T10:17:05Z</time>
      </trkpt>
      <trkpt lat="40.690784" lon="-2.144613">
        <ele>1333.108</ele>
        <time>2021-05-28T10:17:42Z</time>
      </trkpt>
      <trkpt lat="40.689993" lon="-2.146225">
        <ele>1334.950</ele>
        <time>2021-05-28T10:18:22Z</time>
      </trkpt>
      <trkpt lat="40.689812" lon="-2.146989">
        <ele>1332.897</ele>
        <time>2021-05-28T10:18:33Z</time>
      </trkpt>
      <trkpt lat="40.689065" lon="-2.147900">
        <ele>1332.435</ele>
        <time>2021-05-28T10:18:51Z</time>
      </trkpt>
      <trkpt lat="40.688345" lon="-2.150072">
        <ele>1339.799</ele>
        <time>2021-05-28T10:19:41Z</time>
      </trkpt>
      <trkpt lat="40.687482" lon="-2.150720">
        <ele>1340.419</ele>
        <time>2021-05-28T10:20:06Z</time>
      </trkpt>
      <trkpt lat="40.686857" lon="-2.152233">
        <ele>1339.585</ele>
        <time>2021-05-28T10:20:32Z</time>
      </trkpt>
      <trkpt lat="40.682724" lon="-2.158158">
        <ele>1351.755</ele>
        <time>2021-05-28T10:23:11Z</time>
      </trkpt>
      <trkpt lat="40.682132" lon="-2.160750">
        <ele>1344.835</ele>
        <time>2021-05-28T10:23:47Z</time>
      </trkpt>
      <trkpt lat="40.681415" lon="-2.161937">
        <ele>1339.983</ele>
        <time>2021-05-28T10:24:01Z</time>
      </trkpt>
      <trkpt lat="40.681082" lon="-2.164856">
        <ele>1332.725</ele>
        <time>2021-05-28T10:24:37Z</time>
      </trkpt>
      <trkpt lat="40.683163" lon="-2.169597">
        <ele>1328.317</ele>
        <time>2021-05-28T10:25:46Z</time>
      </trkpt>
      <trkpt lat="40.683842" lon="-2.171973">
        <ele>1325.408</ele>
        <time>2021-05-28T10:26:15Z</time>
      </trkpt>
      <trkpt lat="40.687199" lon="-2.181343">
        <ele>1316.325</ele>
        <time>2021-05-28T10:28:11Z</time>
      </trkpt>
      <trkpt lat="40.688414" lon="-2.185173">
        <ele>1315.352</ele>
        <time>2021-05-28T10:29:04Z</time>
      </trkpt>
      <trkpt lat="40.688117" lon="-2.185316">
        <ele>1314.470</ele>
        <time>2021-05-28T10:29:14Z</time>
      </trkpt>
      <trkpt lat="40.687456" lon="-2.185061">
        <ele>1314.724</ele>
        <time>2021-05-28T10:29:28Z</time>
      </trkpt>
      <trkpt lat="40.686239" lon="-2.184994">
        <ele>1314.944</ele>
        <time>2021-05-28T10:29:55Z</time>
      </trkpt>
      <trkpt lat="40.685814" lon="-2.184724">
        <ele>1314.340</ele>
        <time>2021-05-28T10:30:05Z</time>
      </trkpt>
      <trkpt lat="40.680210" lon="-2.174702">
        <ele>1324.440</ele>
        <time>2021-05-28T10:33:50Z</time>
      </trkpt>
      <trkpt lat="40.678572" lon="-2.172407">
        <ele>1327.270</ele>
        <time>2021-05-28T10:34:47Z</time>
      </trkpt>
      <trkpt lat="40.676391" lon="-2.170260">
        <ele>1325.197</ele>
        <time>2021-05-28T10:35:43Z</time>
      </trkpt>
      <trkpt lat="40.674885" lon="-2.169272">
        <ele>1324.223</ele>
        <time>2021-05-28T10:36:18Z</time>
      </trkpt>
      <trkpt lat="40.672580" lon="-2.167242">
        <ele>1327.125</ele>
        <time>2021-05-28T10:37:22Z</time>
      </trkpt>
      <trkpt lat="40.671771" lon="-2.167485">
        <ele>1325.908</ele>
        <time>2021-05-28T10:37:40Z</time>
      </trkpt>
      <trkpt lat="40.671377" lon="-2.167821">
        <ele>1325.826</ele>
        <time>2021-05-28T10:37:51Z</time>
      </trkpt>
      <trkpt lat="40.670754" lon="-2.169054">
        <ele>1328.163</ele>
        <time>2021-05-28T10:38:22Z</time>
      </trkpt>
      <trkpt lat="40.670418" lon="-2.169117">
        <ele>1330.111</ele>
        <time>2021-05-28T10:38:32Z</time>
      </trkpt>
      <trkpt lat="40.665975" lon="-2.166323">
        <ele>1337.985</ele>
        <time>2021-05-28T10:40:40Z</time>
      </trkpt>
      <trkpt lat="40.661465" lon="-2.162153">
        <ele>1346.175</ele>
        <time>2021-05-28T10:42:54Z</time>
      </trkpt>
      <trkpt lat="40.660858" lon="-2.159989">
        <ele>1349.951</ele>
        <time>2021-05-28T10:43:41Z</time>
      </trkpt>
      <trkpt lat="40.660381" lon="-2.155991">
        <ele>1356.921</ele>
        <time>2021-05-28T10:45:07Z</time>
      </trkpt>
      <trkpt lat="40.658713" lon="-2.155876">
        <ele>1363.681</ele>
        <time>2021-05-28T10:46:01Z</time>
      </trkpt>
      <trkpt lat="40.655664" lon="-2.154022">
        <ele>1369.034</ele>
        <time>2021-05-28T10:47:34Z</time>
      </trkpt>
      <trkpt lat="40.650952" lon="-2.153615">
        <ele>1384.155</ele>
        <time>2021-05-28T10:50:01Z</time>
      </trkpt>
      <trkpt lat="40.649967" lon="-2.153173">
        <ele>1384.510</ele>
        <time>2021-05-28T10:50:26Z</time>
      </trkpt>
      <trkpt lat="40.648795" lon="-2.152287">
        <ele>1384.608</ele>
        <time>2021-05-28T10:51:01Z</time>
      </trkpt>
      <trkpt lat="40.648427" lon="-2.151466">
        <ele>1383.480</ele>
        <time>2021-05-28T10:51:14Z</time>
      </trkpt>
      <trkpt lat="40.648087" lon="-2.149990">
        <ele>1382.257</ele>
        <time>2021-05-28T10:51:40Z</time>
      </trkpt>
      <trkpt lat="40.647532" lon="-2.149612">
        <ele>1381.675</ele>
        <time>2021-05-28T10:51:55Z</time>
      </trkpt>
      <trkpt lat="40.646544" lon="-2.148130">
        <ele>1381.189</ele>
        <time>2021-05-28T10:52:29Z</time>
      </trkpt>
      <trkpt lat="40.646194" lon="-2.145551">
        <ele>1381.099</ele>
        <time>2021-05-28T10:53:13Z</time>
      </trkpt>
      <trkpt lat="40.645800" lon="-2.144885">
        <ele>1381.215</ele>
        <time>2021-05-28T10:53:27Z</time>
      </trkpt>
      <trkpt lat="40.645387" lon="-2.143121">
        <ele>1381.745</ele>
        <time>2021-05-28T10:53:56Z</time>
      </trkpt>
      <trkpt lat="40.644707" lon="-2.142339">
        <ele>1383.145</ele>
        <time>2021-05-28T10:54:16Z</time>
      </trkpt>
      <trkpt lat="40.643802" lon="-2.140671">
        <ele>1385.117</ele>
        <time>2021-05-28T10:54:51Z</time>
      </trkpt>
      <trkpt lat="40.643333" lon="-2.140131">
        <ele>1383.587</ele>
        <time>2021-05-28T10:55:04Z</time>
      </trkpt>
      <trkpt lat="40.642589" lon="-2.138757">
        <ele>1385.115</ele>
        <time>2021-05-28T10:55:30Z</time>
      </trkpt>
      <trkpt lat="40.642434" lon="-2.137801">
        <ele>1384.908</ele>
        <time>2021-05-28T10:55:44Z</time>
      </trkpt>
      <trkpt lat="40.641935" lon="-2.136852">
        <ele>1386.738</ele>
        <time>2021-05-28T10:56:05Z</time>
      </trkpt>
      <trkpt lat="40.641739" lon="-2.136765">
        <ele>1387.485</ele>
        <time>2021-05-28T10:56:24Z</time>
      </trkpt>
      <trkpt lat="40.641692" lon="-2.136356">
        <ele>1385.913</ele>
        <time>2021-05-28T11:03:48Z</time>
      </trkpt>
      <trkpt lat="40.641365" lon="-2.135875">
        <ele>1386.187</ele>
        <time>2021-05-28T11:03:59Z</time>
      </trkpt>
      <trkpt lat="40.641096" lon="-2.133664">
        <ele>1385.717</ele>
        <time>2021-05-28T11:04:42Z</time>
      </trkpt>
      <trkpt lat="40.639488" lon="-2.132148">
        <ele>1383.113</ele>
        <time>2021-05-28T11:05:15Z</time>
      </trkpt>
      <trkpt lat="40.638895" lon="-2.131278">
        <ele>1385.143</ele>
        <time>2021-05-28T11:05:33Z</time>
      </trkpt>
      <trkpt lat="40.638292" lon="-2.130929">
        <ele>1385.313</ele>
        <time>2021-05-28T11:05:47Z</time>
      </trkpt>
      <trkpt lat="40.637142" lon="-2.129538">
        <ele>1383.164</ele>
        <time>2021-05-28T11:06:18Z</time>
      </trkpt>
      <trkpt lat="40.636871" lon="-2.128963">
        <ele>1380.706</ele>
        <time>2021-05-28T11:06:28Z</time>
      </trkpt>
      <trkpt lat="40.635446" lon="-2.129960">
        <ele>1373.716</ele>
        <time>2021-05-28T11:06:53Z</time>
      </trkpt>
      <trkpt lat="40.634697" lon="-2.130881">
        <ele>1373.408</ele>
        <time>2021-05-28T11:07:08Z</time>
      </trkpt>
      <trkpt lat="40.634297" lon="-2.130356">
        <ele>1372.493</ele>
        <time>2021-05-28T11:07:18Z</time>
      </trkpt>
      <trkpt lat="40.633748" lon="-2.127191">
        <ele>1382.120</ele>
        <time>2021-05-28T11:08:19Z</time>
      </trkpt>
      <trkpt lat="40.632937" lon="-2.124364">
        <ele>1392.868</ele>
        <time>2021-05-28T11:09:26Z</time>
      </trkpt>
      <trkpt lat="40.632848" lon="-2.122717">
        <ele>1396.572</ele>
        <time>2021-05-28T11:10:00Z</time>
      </trkpt>
      <trkpt lat="40.632037" lon="-2.120172">
        <ele>1398.962</ele>
        <time>2021-05-28T11:10:51Z</time>
      </trkpt>
      <trkpt lat="40.632072" lon="-2.118187">
        <ele>1382.198</ele>
        <time>2021-05-28T11:11:10Z</time>
      </trkpt>
      <trkpt lat="40.631398" lon="-2.117855">
        <ele>1374.488</ele>
        <time>2021-05-28T11:11:22Z</time>
      </trkpt>
      <trkpt lat="40.631221" lon="-2.116789">
        <ele>1369.098</ele>
        <time>2021-05-28T11:11:35Z</time>
      </trkpt>
      <trkpt lat="40.629543" lon="-2.114024">
        <ele>1357.662</ele>
        <time>2021-05-28T11:12:16Z</time>
      </trkpt>
      <trkpt lat="40.628810" lon="-2.112495">
        <ele>1354.283</ele>
        <time>2021-05-28T11:12:37Z</time>
      </trkpt>
      <trkpt lat="40.628272" lon="-2.112208">
        <ele>1352.911</ele>
        <time>2021-05-28T11:12:46Z</time>
      </trkpt>
      <trkpt lat="40.627331" lon="-2.112211">
        <ele>1352.608</ele>
        <time>2021-05-28T11:13:01Z</time>
      </trkpt>
      <trkpt lat="40.625444" lon="-2.113478">
        <ele>1349.413</ele>
        <time>2021-05-28T11:13:37Z</time>
      </trkpt>
      <trkpt lat="40.624874" lon="-2.114404">
        <ele>1349.190</ele>
        <time>2021-05-28T11:13:53Z</time>
      </trkpt>
      <trkpt lat="40.624177" lon="-2.114786">
        <ele>1353.078</ele>
        <time>2021-05-28T11:14:11Z</time>
      </trkpt>
      <trkpt lat="40.623322" lon="-2.114842">
        <ele>1356.282</ele>
        <time>2021-05-28T11:14:33Z</time>
      </trkpt>
      <trkpt lat="40.623140" lon="-2.114690">
        <ele>1355.452</ele>
        <time>2021-05-28T11:14:41Z</time>
      </trkpt>
      <trkpt lat="40.623051" lon="-2.113542">
        <ele>1353.598</ele>
        <time>2021-05-28T11:15:03Z</time>
      </trkpt>
      <trkpt lat="40.623373" lon="-2.112274">
        <ele>1340.188</ele>
        <time>2021-05-28T11:15:18Z</time>
      </trkpt>
      <trkpt lat="40.622158" lon="-2.110100">
        <ele>1325.328</ele>
        <time>2021-05-28T11:15:43Z</time>
      </trkpt>
      <trkpt lat="40.622094" lon="-2.108532">
        <ele>1316.469</ele>
        <time>2021-05-28T11:15:58Z</time>
      </trkpt>
      <trkpt lat="40.622796" lon="-2.107065">
        <ele>1311.904</ele>
        <time>2021-05-28T11:16:14Z</time>
      </trkpt>
      <trkpt lat="40.623644" lon="-2.106173">
        <ele>1309.524</ele>
        <time>2021-05-28T11:16:32Z</time>
      </trkpt>
      <trkpt lat="40.624369" lon="-2.105786">
        <ele>1306.708</ele>
        <time>2021-05-28T11:16:46Z</time>
      </trkpt>
      <trkpt lat="40.624677" lon="-2.105076">
        <ele>1301.383</ele>
        <time>2021-05-28T11:17:05Z</time>
      </trkpt>
      <trkpt lat="40.624664" lon="-2.104751">
        <ele>1298.580</ele>
        <time>2021-05-28T11:17:12Z</time>
      </trkpt>
      <trkpt lat="40.622117" lon="-2.102208">
        <ele>1278.238</ele>
        <time>2021-05-28T11:17:49Z</time>
      </trkpt>
      <trkpt lat="40.620795" lon="-2.101310">
        <ele>1267.992</ele>
        <time>2021-05-28T11:18:07Z</time>
      </trkpt>
      <trkpt lat="40.618756" lon="-2.098425">
        <ele>1248.912</ele>
        <time>2021-05-28T11:18:57Z</time>
      </trkpt>
      <trkpt lat="40.617285" lon="-2.097311">
        <ele>1234.378</ele>
        <time>2021-05-28T11:19:22Z</time>
      </trkpt>
      <trkpt lat="40.617347" lon="-2.097117">
        <ele>1232.468</ele>
        <time>2021-05-28T11:19:28Z</time>
      </trkpt>
      <trkpt lat="40.618082" lon="-2.096975">
        <ele>1222.888</ele>
        <time>2021-05-28T11:19:40Z</time>
      </trkpt>
      <trkpt lat="40.618051" lon="-2.096409">
        <ele>1212.927</ele>
        <time>2021-05-28T11:19:52Z</time>
      </trkpt>
      <trkpt lat="40.618908" lon="-2.096228">
        <ele>1203.768</ele>
        <time>2021-05-28T11:20:04Z</time>
      </trkpt>
      <trkpt lat="40.619071" lon="-2.095692">
        <ele>1200.714</ele>
        <time>2021-05-28T11:20:11Z</time>
      </trkpt>
      <trkpt lat="40.618731" lon="-2.094669">
        <ele>1210.608</ele>
        <time>2021-05-28T11:20:48Z</time>
      </trkpt>
      <trkpt lat="40.618161" lon="-2.094387">
        <ele>1216.059</ele>
        <time>2021-05-28T11:21:19Z</time>
      </trkpt>
      <trkpt lat="40.617843" lon="-2.093713">
        <ele>1220.836</ele>
        <time>2021-05-28T11:21:56Z</time>
      </trkpt>
      <trkpt lat="40.617223" lon="-2.093349">
        <ele>1219.594</ele>
        <time>2021-05-28T11:43:12Z</time>
      </trkpt>
      <trkpt lat="40.617310" lon="-2.093402">
        <ele>1220.168</ele>
        <time>2021-05-28T12:10:35Z</time>
      </trkpt>
      <trkpt lat="40.616646" lon="-2.093268">
        <ele>1219.568</ele>
        <time>2021-05-28T12:12:38Z</time>
      </trkpt>
      <trkpt lat="40.615504" lon="-2.092163">
        <ele>1217.114</ele>
        <time>2021-05-28T12:13:12Z</time>
      </trkpt>
      <trkpt lat="40.613643" lon="-2.091477">
        <ele>1204.924</ele>
        <time>2021-05-28T12:13:34Z</time>
      </trkpt>
      <trkpt lat="40.612251" lon="-2.090239">
        <ele>1192.364</ele>
        <time>2021-05-28T12:13:48Z</time>
      </trkpt>
      <trkpt lat="40.609369" lon="-2.089501">
        <ele>1184.095</ele>
        <time>2021-05-28T12:14:13Z</time>
      </trkpt>
      <trkpt lat="40.607795" lon="-2.089960">
        <ele>1192.149</ele>
        <time>2021-05-28T12:14:53Z</time>
      </trkpt>
      <trkpt lat="40.605556" lon="-2.090075">
        <ele>1188.223</ele>
        <time>2021-05-28T12:15:20Z</time>
      </trkpt>
      <trkpt lat="40.604003" lon="-2.090751">
        <ele>1191.508</ele>
        <time>2021-05-28T12:15:47Z</time>
      </trkpt>
      <trkpt lat="40.602648" lon="-2.091003">
        <ele>1184.176</ele>
        <time>2021-05-28T12:16:05Z</time>
      </trkpt>
      <trkpt lat="40.600135" lon="-2.090630">
        <ele>1169.173</ele>
        <time>2021-05-28T12:16:29Z</time>
      </trkpt>
      <trkpt lat="40.597278" lon="-2.092150">
        <ele>1175.891</ele>
        <time>2021-05-28T12:17:17Z</time>
      </trkpt>
      <trkpt lat="40.591828" lon="-2.094090">
        <ele>1158.215</ele>
        <time>2021-05-28T12:18:25Z</time>
      </trkpt>
      <trkpt lat="40.590793" lon="-2.093975">
        <ele>1153.365</ele>
        <time>2021-05-28T12:18:35Z</time>
      </trkpt>
      <trkpt lat="40.587502" lon="-2.092636">
        <ele>1139.941</ele>
        <time>2021-05-28T12:19:08Z</time>
      </trkpt>
      <trkpt lat="40.585631" lon="-2.092454">
        <ele>1140.561</ele>
        <time>2021-05-28T12:19:31Z</time>
      </trkpt>
      <trkpt lat="40.584728" lon="-2.091837">
        <ele>1143.541</ele>
        <time>2021-05-28T12:19:50Z</time>
      </trkpt>
      <trkpt lat="40.584260" lon="-2.091208">
        <ele>1145.714</ele>
        <time>2021-05-28T12:20:04Z</time>
      </trkpt>
      <trkpt lat="40.582221" lon="-2.087006">
        <ele>1154.154</ele>
        <time>2021-05-28T12:21:31Z</time>
      </trkpt>
      <trkpt lat="40.581643" lon="-2.085231">
        <ele>1152.909</ele>
        <time>2021-05-28T12:21:55Z</time>
      </trkpt>
      <trkpt lat="40.581266" lon="-2.082336">
        <ele>1153.808</ele>
        <time>2021-05-28T12:22:38Z</time>
      </trkpt>
      <trkpt lat="40.580628" lon="-2.081080">
        <ele>1152.328</ele>
        <time>2021-05-28T12:22:54Z</time>
      </trkpt>
      <trkpt lat="40.578992" lon="-2.079431">
        <ele>1145.915</ele>
        <time>2021-05-28T12:23:19Z</time>
      </trkpt>
      <trkpt lat="40.577443" lon="-2.079054">
        <ele>1144.393</ele>
        <time>2021-05-28T12:23:40Z</time>
      </trkpt>
      <trkpt lat="40.576216" lon="-2.077891">
        <ele>1144.167</ele>
        <time>2021-05-28T12:24:03Z</time>
      </trkpt>
      <trkpt lat="40.575552" lon="-2.078065">
        <ele>1148.137</ele>
        <time>2021-05-28T12:24:18Z</time>
      </trkpt>
      <trkpt lat="40.575190" lon="-2.079902">
        <ele>1153.083</ele>
        <time>2021-05-28T12:24:50Z</time>
      </trkpt>
      <trkpt lat="40.573875" lon="-2.078806">
        <ele>1161.243</ele>
        <time>2021-05-28T12:25:43Z</time>
      </trkpt>
      <trkpt lat="40.574337" lon="-2.077334">
        <ele>1170.923</ele>
        <time>2021-05-28T12:26:33Z</time>
      </trkpt>
      <trkpt lat="40.574826" lon="-2.076698">
        <ele>1178.572</ele>
        <time>2021-05-28T12:27:06Z</time>
      </trkpt>
      <trkpt lat="40.574843" lon="-2.076348">
        <ele>1180.813</ele>
        <time>2021-05-28T12:27:20Z</time>
      </trkpt>
      <trkpt lat="40.574348" lon="-2.076553">
        <ele>1186.314</ele>
        <time>2021-05-28T12:28:14Z</time>
      </trkpt>
      <trkpt lat="40.573834" lon="-2.077190">
        <ele>1191.608</ele>
        <time>2021-05-28T12:28:40Z</time>
      </trkpt>
      <trkpt lat="40.573702" lon="-2.076999">
        <ele>1193.944</ele>
        <time>2021-05-28T12:28:48Z</time>
      </trkpt>
      <trkpt lat="40.573874" lon="-2.076449">
        <ele>1197.561</ele>
        <time>2021-05-28T12:29:05Z</time>
      </trkpt>
      <trkpt lat="40.573781" lon="-2.076326">
        <ele>1198.629</ele>
        <time>2021-05-28T12:29:11Z</time>
      </trkpt>
      <trkpt lat="40.573383" lon="-2.077127">
        <ele>1206.053</ele>
        <time>2021-05-28T12:29:41Z</time>
      </trkpt>
      <trkpt lat="40.573209" lon="-2.076472">
        <ele>1211.063</ele>
        <time>2021-05-28T12:30:05Z</time>
      </trkpt>
      <trkpt lat="40.571928" lon="-2.076066">
        <ele>1219.169</ele>
        <time>2021-05-28T12:31:00Z</time>
      </trkpt>
      <trkpt lat="40.571739" lon="-2.076565">
        <ele>1217.249</ele>
        <time>2021-05-28T12:31:52Z</time>
      </trkpt>
      <trkpt lat="40.571862" lon="-2.076007">
        <ele>1219.239</ele>
        <time>2021-05-28T12:32:48Z</time>
      </trkpt>
      <trkpt lat="40.570927" lon="-2.075481">
        <ele>1213.612</ele>
        <time>2021-05-28T12:33:20Z</time>
      </trkpt>
      <trkpt lat="40.570975" lon="-2.074561">
        <ele>1212.232</ele>
        <time>2021-05-28T12:33:38Z</time>
      </trkpt>
      <trkpt lat="40.569648" lon="-2.073044">
        <ele>1208.305</ele>
        <time>2021-05-28T12:34:11Z</time>
      </trkpt>
      <trkpt lat="40.569741" lon="-2.073404">
        <ele>1205.808</ele>
        <time>2021-05-28T12:34:20Z</time>
      </trkpt>
      <trkpt lat="40.568164" lon="-2.071669">
        <ele>1204.038</ele>
        <time>2021-05-28T12:34:57Z</time>
      </trkpt>
      <trkpt lat="40.568127" lon="-2.071406">
        <ele>1205.285</ele>
        <time>2021-05-28T12:35:01Z</time>
      </trkpt>
      <trkpt lat="40.568391" lon="-2.070751">
        <ele>1206.933</ele>
        <time>2021-05-28T12:35:16Z</time>
      </trkpt>
      <trkpt lat="40.567161" lon="-2.070181">
        <ele>1208.947</ele>
        <time>2021-05-28T12:35:47Z</time>
      </trkpt>
      <trkpt lat="40.563989" lon="-2.067588">
        <ele>1182.887</ele>
        <time>2021-05-28T12:36:23Z</time>
      </trkpt>
      <trkpt lat="40.562477" lon="-2.067466">
        <ele>1176.343</ele>
        <time>2021-05-28T12:36:36Z</time>
      </trkpt>
      <trkpt lat="40.561587" lon="-2.067113">
        <ele>1175.033</ele>
        <time>2021-05-28T12:36:45Z</time>
      </trkpt>
      <trkpt lat="40.560504" lon="-2.065776">
        <ele>1175.313</ele>
        <time>2021-05-28T12:37:04Z</time>
      </trkpt>
      <trkpt lat="40.558328" lon="-2.063997">
        <ele>1167.196</ele>
        <time>2021-05-28T12:37:33Z</time>
      </trkpt>
      <trkpt lat="40.557244" lon="-2.063647">
        <ele>1161.031</ele>
        <time>2021-05-28T12:37:44Z</time>
      </trkpt>
      <trkpt lat="40.553265" lon="-2.063116">
        <ele>1163.624</ele>
        <time>2021-05-28T12:38:42Z</time>
      </trkpt>
      <trkpt lat="40.550811" lon="-2.061551">
        <ele>1166.008</ele>
        <time>2021-05-28T12:39:43Z</time>
      </trkpt>
      <trkpt lat="40.548904" lon="-2.059182">
        <ele>1167.996</ele>
        <time>2021-05-28T12:40:34Z</time>
      </trkpt>
      <trkpt lat="40.547849" lon="-2.058470">
        <ele>1167.153</ele>
        <time>2021-05-28T12:40:55Z</time>
      </trkpt>
      <trkpt lat="40.546621" lon="-2.057184">
        <ele>1167.831</ele>
        <time>2021-05-28T12:41:23Z</time>
      </trkpt>
      <trkpt lat="40.545743" lon="-2.055877">
        <ele>1163.545</ele>
        <time>2021-05-28T12:41:43Z</time>
      </trkpt>
      <trkpt lat="40.545107" lon="-2.054444">
        <ele>1164.985</ele>
        <time>2021-05-28T12:42:04Z</time>
      </trkpt>
      <trkpt lat="40.544968" lon="-2.053576">
        <ele>1164.891</ele>
        <time>2021-05-28T12:42:16Z</time>
      </trkpt>
      <trkpt lat="40.545031" lon="-2.052729">
        <ele>1164.051</ele>
        <time>2021-05-28T12:42:28Z</time>
      </trkpt>
      <trkpt lat="40.545408" lon="-2.051451">
        <ele>1168.091</ele>
        <time>2021-05-28T12:48:40Z</time>
      </trkpt>
      <trkpt lat="40.545083" lon="-2.052574">
        <ele>1165.934</ele>
        <time>2021-05-28T12:51:23Z</time>
      </trkpt>
      <trkpt lat="40.544984" lon="-2.053591">
        <ele>1166.855</ele>
        <time>2021-05-28T12:51:39Z</time>
      </trkpt>
      <trkpt lat="40.545153" lon="-2.054516">
        <ele>1166.810</ele>
        <time>2021-05-28T12:51:53Z</time>
      </trkpt>
      <trkpt lat="40.546451" lon="-2.056955">
        <ele>1166.708</ele>
        <time>2021-05-28T12:52:36Z</time>
      </trkpt>
      <trkpt lat="40.547483" lon="-2.058130">
        <ele>1167.850</ele>
        <time>2021-05-28T12:53:04Z</time>
      </trkpt>
      <trkpt lat="40.548942" lon="-2.059287">
        <ele>1168.457</ele>
        <time>2021-05-28T12:53:40Z</time>
      </trkpt>
      <trkpt lat="40.549886" lon="-2.060514">
        <ele>1165.155</ele>
        <time>2021-05-28T12:54:04Z</time>
      </trkpt>
      <trkpt lat="40.549848" lon="-2.060676">
        <ele>1165.519</ele>
        <time>2021-05-28T12:54:08Z</time>
      </trkpt>
      <trkpt lat="40.548440" lon="-2.060794">
        <ele>1165.969</ele>
        <time>2021-05-28T12:54:35Z</time>
      </trkpt>
      <trkpt lat="40.547554" lon="-2.060355">
        <ele>1164.865</ele>
        <time>2021-05-28T12:54:51Z</time>
      </trkpt>
      <trkpt lat="40.547263" lon="-2.060426">
        <ele>1164.695</ele>
        <time>2021-05-28T12:54:58Z</time>
      </trkpt>
      <trkpt lat="40.546758" lon="-2.060036">
        <ele>1165.275</ele>
        <time>2021-05-28T12:55:09Z</time>
      </trkpt>
      <trkpt lat="40.545841" lon="-2.059984">
        <ele>1165.137</ele>
        <time>2021-05-28T12:55:25Z</time>
      </trkpt>
      <trkpt lat="40.544363" lon="-2.058889">
        <ele>1172.049</ele>
        <time>2021-05-28T12:56:02Z</time>
      </trkpt>
      <trkpt lat="40.543499" lon="-2.058505">
        <ele>1173.713</ele>
        <time>2021-05-28T12:56:22Z</time>
      </trkpt>
      <trkpt lat="40.541885" lon="-2.057037">
        <ele>1171.808</ele>
        <time>2021-05-28T12:56:55Z</time>
      </trkpt>
      <trkpt lat="40.541503" lon="-2.056401">
        <ele>1175.570</ele>
        <time>2021-05-28T12:57:09Z</time>
      </trkpt>
      <trkpt lat="40.540518" lon="-2.056079">
        <ele>1179.347</ele>
        <time>2021-05-28T12:57:35Z</time>
      </trkpt>
      <trkpt lat="40.539710" lon="-2.055241">
        <ele>1184.135</ele>
        <time>2021-05-28T12:58:03Z</time>
      </trkpt>
      <trkpt lat="40.538237" lon="-2.055590">
        <ele>1198.219</ele>
        <time>2021-05-28T12:59:09Z</time>
      </trkpt>
      <trkpt lat="40.538078" lon="-2.055918">
        <ele>1202.189</ele>
        <time>2021-05-28T12:59:24Z</time>
      </trkpt>
      <trkpt lat="40.538106" lon="-2.056467">
        <ele>1205.865</ele>
        <time>2021-05-28T12:59:45Z</time>
      </trkpt>
      <trkpt lat="40.537620" lon="-2.056770">
        <ele>1209.935</ele>
        <time>2021-05-28T13:00:10Z</time>
      </trkpt>
      <trkpt lat="40.537310" lon="-2.056289">
        <ele>1214.935</ele>
        <time>2021-05-28T13:00:30Z</time>
      </trkpt>
      <trkpt lat="40.536333" lon="-2.056130">
        <ele>1226.149</ele>
        <time>2021-05-28T13:01:18Z</time>
      </trkpt>
      <trkpt lat="40.535753" lon="-2.055762">
        <ele>1232.602</ele>
        <time>2021-05-28T13:01:49Z</time>
      </trkpt>
      <trkpt lat="40.535352" lon="-2.055752">
        <ele>1236.922</ele>
        <time>2021-05-28T13:02:09Z</time>
      </trkpt>
      <trkpt lat="40.534961" lon="-2.056066">
        <ele>1239.708</ele>
        <time>2021-05-28T13:02:31Z</time>
      </trkpt>
      <trkpt lat="40.534303" lon="-2.054032">
        <ele>1258.731</ele>
        <time>2021-05-28T13:03:53Z</time>
      </trkpt>
      <trkpt lat="40.534135" lon="-2.053997">
        <ele>1260.728</ele>
        <time>2021-05-28T13:04:01Z</time>
      </trkpt>
      <trkpt lat="40.533719" lon="-2.054499">
        <ele>1267.146</ele>
        <time>2021-05-28T13:04:30Z</time>
      </trkpt>
      <trkpt lat="40.533257" lon="-2.053978">
        <ele>1273.050</ele>
        <time>2021-05-28T13:05:04Z</time>
      </trkpt>
      <trkpt lat="40.533190" lon="-2.052993">
        <ele>1280.640</ele>
        <time>2021-05-28T13:05:44Z</time>
      </trkpt>
      <trkpt lat="40.532841" lon="-2.052335">
        <ele>1287.896</ele>
        <time>2021-05-28T13:06:17Z</time>
      </trkpt>
      <trkpt lat="40.531457" lon="-2.051589">
        <ele>1297.146</ele>
        <time>2021-05-28T13:07:22Z</time>
      </trkpt>
      <trkpt lat="40.530465" lon="-2.051409">
        <ele>1304.036</ele>
        <time>2021-05-28T13:08:06Z</time>
      </trkpt>
      <trkpt lat="40.529457" lon="-2.051676">
        <ele>1304.926</ele>
        <time>2021-05-28T13:08:38Z</time>
      </trkpt>
      <trkpt lat="40.528689" lon="-2.051523">
        <ele>1304.747</ele>
        <time>2021-05-28T13:08:52Z</time>
      </trkpt>
      <trkpt lat="40.528061" lon="-2.051774">
        <ele>1302.611</ele>
        <time>2021-05-28T13:09:01Z</time>
      </trkpt>
      <trkpt lat="40.526732" lon="-2.051800">
        <ele>1295.708</ele>
        <time>2021-05-28T13:09:17Z</time>
      </trkpt>
      <trkpt lat="40.526258" lon="-2.052589">
        <ele>1286.539</ele>
        <time>2021-05-28T13:09:25Z</time>
      </trkpt>
      <trkpt lat="40.525699" lon="-2.052915">
        <ele>1280.346</ele>
        <time>2021-05-28T13:09:33Z</time>
      </trkpt>
      <trkpt lat="40.525539" lon="-2.053581">
        <ele>1274.044</ele>
        <time>2021-05-28T13:09:39Z</time>
      </trkpt>
      <trkpt lat="40.524945" lon="-2.054318">
        <ele>1264.258</ele>
        <time>2021-05-28T13:09:46Z</time>
      </trkpt>
      <trkpt lat="40.523430" lon="-2.054863">
        <ele>1256.148</ele>
        <time>2021-05-28T13:10:03Z</time>
      </trkpt>
      <trkpt lat="40.522696" lon="-2.055993">
        <ele>1250.744</ele>
        <time>2021-05-28T13:10:16Z</time>
      </trkpt>
      <trkpt lat="40.522255" lon="-2.058906">
        <ele>1226.714</ele>
        <time>2021-05-28T13:10:37Z</time>
      </trkpt>
      <trkpt lat="40.521937" lon="-2.059497">
        <ele>1224.274</ele>
        <time>2021-05-28T13:10:43Z</time>
      </trkpt>
      <trkpt lat="40.521808" lon="-2.059449">
        <ele>1223.431</ele>
        <time>2021-05-28T13:10:48Z</time>
      </trkpt>
      <trkpt lat="40.522009" lon="-2.058198">
        <ele>1215.961</ele>
        <time>2021-05-28T13:11:04Z</time>
      </trkpt>
      <trkpt lat="40.521760" lon="-2.057920">
        <ele>1214.507</ele>
        <time>2021-05-28T13:11:10Z</time>
      </trkpt>
      <trkpt lat="40.520282" lon="-2.058940">
        <ele>1202.108</ele>
        <time>2021-05-28T13:11:34Z</time>
      </trkpt>
      <trkpt lat="40.519377" lon="-2.059206">
        <ele>1193.160</ele>
        <time>2021-05-28T13:12:18Z</time>
      </trkpt>
      <trkpt lat="40.518826" lon="-2.058774">
        <ele>1191.077</ele>
        <time>2021-05-28T13:12:36Z</time>
      </trkpt>
      <trkpt lat="40.516791" lon="-2.056319">
        <ele>1196.235</ele>
        <time>2021-05-28T13:13:35Z</time>
      </trkpt>
      <trkpt lat="40.516331" lon="-2.055399">
        <ele>1194.879</ele>
        <time>2021-05-28T13:13:51Z</time>
      </trkpt>
      <trkpt lat="40.516347" lon="-2.054706">
        <ele>1195.129</ele>
        <time>2021-05-28T13:14:02Z</time>
      </trkpt>
      <trkpt lat="40.516154" lon="-2.054658">
        <ele>1195.285</ele>
        <time>2021-05-28T13:14:07Z</time>
      </trkpt>
      <trkpt lat="40.515251" lon="-2.055317">
        <ele>1194.125</ele>
        <time>2021-05-28T13:14:28Z</time>
      </trkpt>
      <trkpt lat="40.514457" lon="-2.055314">
        <ele>1192.995</ele>
        <time>2021-05-28T13:14:43Z</time>
      </trkpt>
      <trkpt lat="40.513381" lon="-2.054466">
        <ele>1186.964</ele>
        <time>2021-05-28T13:14:59Z</time>
      </trkpt>
      <trkpt lat="40.512519" lon="-2.053396">
        <ele>1191.306</ele>
        <time>2021-05-28T13:15:22Z</time>
      </trkpt>
      <trkpt lat="40.511578" lon="-2.052984">
        <ele>1189.916</ele>
        <time>2021-05-28T13:15:39Z</time>
      </trkpt>
      <trkpt lat="40.510621" lon="-2.050914">
        <ele>1197.108</ele>
        <time>2021-05-28T13:16:19Z</time>
      </trkpt>
      <trkpt lat="40.510618" lon="-2.050254">
        <ele>1201.073</ele>
        <time>2021-05-28T13:16:38Z</time>
      </trkpt>
      <trkpt lat="40.510154" lon="-2.049744">
        <ele>1199.810</ele>
        <time>2021-05-28T13:16:52Z</time>
      </trkpt>
      <trkpt lat="40.509455" lon="-2.048450">
        <ele>1196.378</ele>
        <time>2021-05-28T13:17:09Z</time>
      </trkpt>
      <trkpt lat="40.508655" lon="-2.047531">
        <ele>1191.352</ele>
        <time>2021-05-28T13:17:23Z</time>
      </trkpt>
      <trkpt lat="40.508051" lon="-2.046116">
        <ele>1192.622</ele>
        <time>2021-05-28T13:17:39Z</time>
      </trkpt>
      <trkpt lat="40.507152" lon="-2.044977">
        <ele>1189.318</ele>
        <time>2021-05-28T13:17:58Z</time>
      </trkpt>
      <trkpt lat="40.505416" lon="-2.043262">
        <ele>1195.318</ele>
        <time>2021-05-28T13:18:42Z</time>
      </trkpt>
      <trkpt lat="40.504359" lon="-2.042547">
        <ele>1199.158</ele>
        <time>2021-05-28T13:19:26Z</time>
      </trkpt>
      <trkpt lat="40.504772" lon="-2.040641">
        <ele>1206.467</ele>
        <time>2021-05-28T13:20:31Z</time>
      </trkpt>
      <trkpt lat="40.504374" lon="-2.042565">
        <ele>1199.281</ele>
        <time>2021-05-28T13:22:18Z</time>
      </trkpt>
      <trkpt lat="40.503795" lon="-2.042604">
        <ele>1197.719</ele>
        <time>2021-05-28T13:22:38Z</time>
      </trkpt>
      <trkpt lat="40.503842" lon="-2.042068">
        <ele>1198.508</ele>
        <time>2021-05-28T13:22:52Z</time>
      </trkpt>
      <trkpt lat="40.504010" lon="-2.041996">
        <ele>1198.823</ele>
        <time>2021-05-28T13:23:02Z</time>
      </trkpt>
      <trkpt lat="40.503874" lon="-2.041943">
        <ele>1198.870</ele>
        <time>2021-05-28T13:25:16Z</time>
      </trkpt>
      <trkpt lat="40.503978" lon="-2.042018">
        <ele>1198.218</ele>
        <time>2021-05-28T13:30:48Z</time>
      </trkpt>
      <trkpt lat="40.503887" lon="-2.042114">
        <ele>1199.692</ele>
        <time>2021-05-28T14:00:43Z</time>
      </trkpt>
      <trkpt lat="40.503704" lon="-2.041357">
        <ele>1195.412</ele>
        <time>2021-05-28T14:07:41Z</time>
      </trkpt>
      <trkpt lat="40.504547" lon="-2.039980">
        <ele>1198.658</ele>
        <time>2021-05-28T14:09:04Z</time>
      </trkpt>
      <trkpt lat="40.503691" lon="-2.041410">
        <ele>1195.598</ele>
        <time>2021-05-28T14:11:40Z</time>
      </trkpt>
      <trkpt lat="40.503902" lon="-2.042568">
        <ele>1198.898</ele>
        <time>2021-05-28T14:12:15Z</time>
      </trkpt>
      <trkpt lat="40.504347" lon="-2.042596">
        <ele>1199.878</ele>
        <time>2021-05-28T14:12:26Z</time>
      </trkpt>
      <trkpt lat="40.504583" lon="-2.042990">
        <ele>1197.833</ele>
        <time>2021-05-28T14:12:37Z</time>
      </trkpt>
      <trkpt lat="40.504118" lon="-2.043308">
        <ele>1194.026</ele>
        <time>2021-05-28T14:12:46Z</time>
      </trkpt>
      <trkpt lat="40.503564" lon="-2.043388">
        <ele>1190.608</ele>
        <time>2021-05-28T14:12:53Z</time>
      </trkpt>
      <trkpt lat="40.503212" lon="-2.043011">
        <ele>1187.714</ele>
        <time>2021-05-28T14:12:58Z</time>
      </trkpt>
      <trkpt lat="40.502985" lon="-2.042259">
        <ele>1183.371</ele>
        <time>2021-05-28T14:13:04Z</time>
      </trkpt>
      <trkpt lat="40.502071" lon="-2.041330">
        <ele>1184.439</ele>
        <time>2021-05-28T14:13:18Z</time>
      </trkpt>
      <trkpt lat="40.501448" lon="-2.041342">
        <ele>1184.963</ele>
        <time>2021-05-28T14:13:28Z</time>
      </trkpt>
      <trkpt lat="40.500343" lon="-2.039723">
        <ele>1194.953</ele>
        <time>2021-05-28T14:14:15Z</time>
      </trkpt>
      <trkpt lat="40.499647" lon="-2.039080">
        <ele>1201.339</ele>
        <time>2021-05-28T14:14:50Z</time>
      </trkpt>
      <trkpt lat="40.499088" lon="-2.037831">
        <ele>1209.759</ele>
        <time>2021-05-28T14:15:36Z</time>
      </trkpt>
      <trkpt lat="40.498262" lon="-2.036890">
        <ele>1218.079</ele>
        <time>2021-05-28T14:16:22Z</time>
      </trkpt>
      <trkpt lat="40.496893" lon="-2.036428">
        <ele>1227.116</ele>
        <time>2021-05-28T14:17:20Z</time>
      </trkpt>
      <trkpt lat="40.496305" lon="-2.035655">
        <ele>1233.276</ele>
        <time>2021-05-28T14:17:54Z</time>
      </trkpt>
      <trkpt lat="40.494517" lon="-2.035291">
        <ele>1246.613</ele>
        <time>2021-05-28T14:19:13Z</time>
      </trkpt>
      <trkpt lat="40.493137" lon="-2.033779">
        <ele>1257.508</ele>
        <time>2021-05-28T14:20:19Z</time>
      </trkpt>
      <trkpt lat="40.492702" lon="-2.032668">
        <ele>1261.488</ele>
        <time>2021-05-28T14:20:53Z</time>
      </trkpt>
      <trkpt lat="40.491761" lon="-2.031881">
        <ele>1266.875</ele>
        <time>2021-05-28T14:21:35Z</time>
      </trkpt>
      <trkpt lat="40.490819" lon="-2.031673">
        <ele>1270.813</ele>
        <time>2021-05-28T14:22:07Z</time>
      </trkpt>
      <trkpt lat="40.489292" lon="-2.030996">
        <ele>1277.947</ele>
        <time>2021-05-28T14:22:58Z</time>
      </trkpt>
      <trkpt lat="40.489173" lon="-2.030520">
        <ele>1279.737</ele>
        <time>2021-05-28T14:23:10Z</time>
      </trkpt>
      <trkpt lat="40.489486" lon="-2.029404">
        <ele>1285.613</ele>
        <time>2021-05-28T14:23:42Z</time>
      </trkpt>
      <trkpt lat="40.488568" lon="-2.028449">
        <ele>1291.563</ele>
        <time>2021-05-28T14:24:24Z</time>
      </trkpt>
      <trkpt lat="40.486874" lon="-2.027597">
        <ele>1290.823</ele>
        <time>2021-05-28T14:25:03Z</time>
      </trkpt>
      <trkpt lat="40.486246" lon="-2.027029">
        <ele>1291.944</ele>
        <time>2021-05-28T14:25:18Z</time>
      </trkpt>
      <trkpt lat="40.483928" lon="-2.026819">
        <ele>1303.005</ele>
        <time>2021-05-28T14:26:23Z</time>
      </trkpt>
      <trkpt lat="40.481006" lon="-2.026909">
        <ele>1315.015</ele>
        <time>2021-05-28T14:27:49Z</time>
      </trkpt>
      <trkpt lat="40.479883" lon="-2.027193">
        <ele>1320.208</ele>
        <time>2021-05-28T14:28:21Z</time>
      </trkpt>
      <trkpt lat="40.476858" lon="-2.028494">
        <ele>1332.371</ele>
        <time>2021-05-28T14:29:47Z</time>
      </trkpt>
      <trkpt lat="40.475630" lon="-2.029395">
        <ele>1339.418</ele>
        <time>2021-05-28T14:30:33Z</time>
      </trkpt>
      <trkpt lat="40.473494" lon="-2.029705">
        <ele>1349.156</ele>
        <time>2021-05-28T14:31:41Z</time>
      </trkpt>
      <trkpt lat="40.472592" lon="-2.028843">
        <ele>1353.980</ele>
        <time>2021-05-28T14:32:16Z</time>
      </trkpt>
      <trkpt lat="40.470284" lon="-2.027760">
        <ele>1364.320</ele>
        <time>2021-05-28T14:33:30Z</time>
      </trkpt>
      <trkpt lat="40.469355" lon="-2.026997">
        <ele>1370.336</ele>
        <time>2021-05-28T14:34:07Z</time>
      </trkpt>
      <trkpt lat="40.469022" lon="-2.026458">
        <ele>1373.596</ele>
        <time>2021-05-28T14:34:27Z</time>
      </trkpt>
      <trkpt lat="40.469015" lon="-2.025421">
        <ele>1381.616</ele>
        <time>2021-05-28T14:36:41Z</time>
      </trkpt>
      <trkpt lat="40.469284" lon="-2.024908">
        <ele>1388.424</ele>
        <time>2021-05-28T14:37:16Z</time>
      </trkpt>
      <trkpt lat="40.470549" lon="-2.024150">
        <ele>1410.404</ele>
        <time>2021-05-28T14:39:11Z</time>
      </trkpt>
      <trkpt lat="40.468584" lon="-2.024115">
        <ele>1420.714</ele>
        <time>2021-05-28T14:40:40Z</time>
      </trkpt>
      <trkpt lat="40.467899" lon="-2.023731">
        <ele>1426.608</ele>
        <time>2021-05-28T14:41:13Z</time>
      </trkpt>
      <trkpt lat="40.468028" lon="-2.022774">
        <ele>1433.349</ele>
        <time>2021-05-28T14:41:52Z</time>
      </trkpt>
      <trkpt lat="40.466476" lon="-2.020464">
        <ele>1431.016</ele>
        <time>2021-05-28T14:42:46Z</time>
      </trkpt>
      <trkpt lat="40.466289" lon="-2.019325">
        <ele>1432.874</ele>
        <time>2021-05-28T14:43:03Z</time>
      </trkpt>
      <trkpt lat="40.465644" lon="-2.018499">
        <ele>1434.488</ele>
        <time>2021-05-28T14:43:23Z</time>
      </trkpt>
      <trkpt lat="40.465328" lon="-2.017349">
        <ele>1435.938</ele>
        <time>2021-05-28T14:43:42Z</time>
      </trkpt>
      <trkpt lat="40.465588" lon="-2.015047">
        <ele>1431.144</ele>
        <time>2021-05-28T14:44:07Z</time>
      </trkpt>
      <trkpt lat="40.465919" lon="-2.014703">
        <ele>1430.594</ele>
        <time>2021-05-28T14:44:14Z</time>
      </trkpt>
      <trkpt lat="40.466416" lon="-2.014634">
        <ele>1430.064</ele>
        <time>2021-05-28T14:44:22Z</time>
      </trkpt>
      <trkpt lat="40.466464" lon="-2.014363">
        <ele>1429.343</ele>
        <time>2021-05-28T14:44:26Z</time>
      </trkpt>
      <trkpt lat="40.464856" lon="-2.009565">
        <ele>1426.564</ele>
        <time>2021-05-28T14:45:33Z</time>
      </trkpt>
      <trkpt lat="40.463635" lon="-2.006936">
        <ele>1418.910</ele>
        <time>2021-05-28T14:46:05Z</time>
      </trkpt>
      <trkpt lat="40.462374" lon="-2.006151">
        <ele>1419.108</ele>
        <time>2021-05-28T14:46:26Z</time>
      </trkpt>
      <trkpt lat="40.461726" lon="-2.005323">
        <ele>1419.081</ele>
        <time>2021-05-28T14:46:44Z</time>
      </trkpt>
      <trkpt lat="40.461528" lon="-2.004679">
        <ele>1420.098</ele>
        <time>2021-05-28T14:46:55Z</time>
      </trkpt>
      <trkpt lat="40.460954" lon="-2.004594">
        <ele>1420.336</ele>
        <time>2021-05-28T14:47:12Z</time>
      </trkpt>
      <trkpt lat="40.460793" lon="-2.005684">
        <ele>1421.960</ele>
        <time>2021-05-28T14:47:34Z</time>
      </trkpt>
      <trkpt lat="40.460271" lon="-2.006355">
        <ele>1423.750</ele>
        <time>2021-05-28T14:47:55Z</time>
      </trkpt>
      <trkpt lat="40.459665" lon="-2.007594">
        <ele>1426.556</ele>
        <time>2021-05-28T14:48:31Z</time>
      </trkpt>
      <trkpt lat="40.458404" lon="-2.008596">
        <ele>1429.896</ele>
        <time>2021-05-28T14:49:16Z</time>
      </trkpt>
      <trkpt lat="40.456243" lon="-2.007560">
        <ele>1436.056</ele>
        <time>2021-05-28T14:50:24Z</time>
      </trkpt>
      <trkpt lat="40.454996" lon="-2.007830">
        <ele>1439.334</ele>
        <time>2021-05-28T14:51:00Z</time>
      </trkpt>
      <trkpt lat="40.454138" lon="-2.007658">
        <ele>1439.855</ele>
        <time>2021-05-28T14:51:25Z</time>
      </trkpt>
      <trkpt lat="40.452929" lon="-2.006454">
        <ele>1442.010</ele>
        <time>2021-05-28T14:52:05Z</time>
      </trkpt>
      <trkpt lat="40.451978" lon="-2.006530">
        <ele>1443.608</ele>
        <time>2021-05-28T14:52:33Z</time>
      </trkpt>
      <trkpt lat="40.450086" lon="-2.005638">
        <ele>1448.330</ele>
        <time>2021-05-28T14:53:34Z</time>
      </trkpt>
      <trkpt lat="40.449365" lon="-2.005646">
        <ele>1448.647</ele>
        <time>2021-05-28T14:53:54Z</time>
      </trkpt>
      <trkpt lat="40.448052" lon="-2.003846">
        <ele>1454.265</ele>
        <time>2021-05-28T14:54:45Z</time>
      </trkpt>
      <trkpt lat="40.447539" lon="-2.003527">
        <ele>1455.749</ele>
        <time>2021-05-28T14:55:01Z</time>
      </trkpt>
      <trkpt lat="40.447008" lon="-2.003481">
        <ele>1457.719</ele>
        <time>2021-05-28T14:55:18Z</time>
      </trkpt>
      <trkpt lat="40.446628" lon="-2.003205">
        <ele>1458.875</ele>
        <time>2021-05-28T14:55:31Z</time>
      </trkpt>
      <trkpt lat="40.446117" lon="-2.003184">
        <ele>1460.135</ele>
        <time>2021-05-28T14:55:45Z</time>
      </trkpt>
      <trkpt lat="40.445687" lon="-2.002820">
        <ele>1457.845</ele>
        <time>2021-05-28T14:55:58Z</time>
      </trkpt>
      <trkpt lat="40.444448" lon="-2.001066">
        <ele>1460.038</ele>
        <time>2021-05-28T14:56:45Z</time>
      </trkpt>
      <trkpt lat="40.444487" lon="-2.000640">
        <ele>1462.370</ele>
        <time>2021-05-28T14:57:01Z</time>
      </trkpt>
      <trkpt lat="40.443592" lon="-1.999961">
        <ele>1470.017</ele>
        <time>2021-05-28T14:58:03Z</time>
      </trkpt>
      <trkpt lat="40.443589" lon="-1.999370">
        <ele>1471.008</ele>
        <time>2021-05-28T14:58:20Z</time>
      </trkpt>
      <trkpt lat="40.443287" lon="-1.998524">
        <ele>1476.140</ele>
        <time>2021-05-28T14:58:53Z</time>
      </trkpt>
      <trkpt lat="40.442198" lon="-1.997809">
        <ele>1480.447</ele>
        <time>2021-05-28T14:59:40Z</time>
      </trkpt>
      <trkpt lat="40.441796" lon="-1.997293">
        <ele>1482.645</ele>
        <time>2021-05-28T14:59:57Z</time>
      </trkpt>
      <trkpt lat="40.441075" lon="-1.995350">
        <ele>1490.279</ele>
        <time>2021-05-28T15:00:52Z</time>
      </trkpt>
      <trkpt lat="40.440564" lon="-1.992767">
        <ele>1487.139</ele>
        <time>2021-05-28T15:01:49Z</time>
      </trkpt>
      <trkpt lat="40.440117" lon="-1.992063">
        <ele>1485.275</ele>
        <time>2021-05-28T15:02:04Z</time>
      </trkpt>
      <trkpt lat="40.440073" lon="-1.991287">
        <ele>1482.615</ele>
        <time>2021-05-28T15:02:17Z</time>
      </trkpt>
      <trkpt lat="40.439039" lon="-1.987435">
        <ele>1479.355</ele>
        <time>2021-05-28T15:03:07Z</time>
      </trkpt>
      <trkpt lat="40.437957" lon="-1.985393">
        <ele>1482.548</ele>
        <time>2021-05-28T15:03:49Z</time>
      </trkpt>
      <trkpt lat="40.436855" lon="-1.982317">
        <ele>1486.361</ele>
        <time>2021-05-28T15:05:07Z</time>
      </trkpt>
      <trkpt lat="40.434413" lon="-1.980919">
        <ele>1495.417</ele>
        <time>2021-05-28T15:06:30Z</time>
      </trkpt>
      <trkpt lat="40.433655" lon="-1.980170">
        <ele>1495.908</ele>
        <time>2021-05-28T15:06:59Z</time>
      </trkpt>
      <trkpt lat="40.431879" lon="-1.978925">
        <ele>1504.611</ele>
        <time>2021-05-28T15:08:11Z</time>
      </trkpt>
      <trkpt lat="40.427239" lon="-1.971759">
        <ele>1506.798</ele>
        <time>2021-05-28T15:16:26Z</time>
      </trkpt>
      <trkpt lat="40.425395" lon="-1.967431">
        <ele>1497.476</ele>
        <time>2021-05-28T15:17:27Z</time>
      </trkpt>
      <trkpt lat="40.423022" lon="-1.965005">
        <ele>1494.280</ele>
        <time>2021-05-28T15:18:20Z</time>
      </trkpt>
      <trkpt lat="40.421763" lon="-1.963176">
        <ele>1495.330</ele>
        <time>2021-05-28T15:18:52Z</time>
      </trkpt>
      <trkpt lat="40.421511" lon="-1.962083">
        <ele>1496.936</ele>
        <time>2021-05-28T15:19:14Z</time>
      </trkpt>
      <trkpt lat="40.421412" lon="-1.959875">
        <ele>1484.656</ele>
        <time>2021-05-28T15:19:44Z</time>
      </trkpt>
      <trkpt lat="40.420910" lon="-1.958371">
        <ele>1473.876</ele>
        <time>2021-05-28T15:19:58Z</time>
      </trkpt>
      <trkpt lat="40.418511" lon="-1.953933">
        <ele>1456.161</ele>
        <time>2021-05-28T15:20:50Z</time>
      </trkpt>
      <trkpt lat="40.416604" lon="-1.951252">
        <ele>1446.021</ele>
        <time>2021-05-28T15:21:32Z</time>
      </trkpt>
      <trkpt lat="40.415532" lon="-1.949428">
        <ele>1437.813</ele>
        <time>2021-05-28T15:22:02Z</time>
      </trkpt>
      <trkpt lat="40.414591" lon="-1.948631">
        <ele>1441.508</ele>
        <time>2021-05-28T15:22:32Z</time>
      </trkpt>
      <trkpt lat="40.414041" lon="-1.947650">
        <ele>1434.623</ele>
        <time>2021-05-28T15:22:52Z</time>
      </trkpt>
      <trkpt lat="40.412888" lon="-1.943977">
        <ele>1404.220</ele>
        <time>2021-05-28T15:23:37Z</time>
      </trkpt>
      <trkpt lat="40.412948" lon="-1.942293">
        <ele>1393.188</ele>
        <time>2021-05-28T15:23:56Z</time>
      </trkpt>
      <trkpt lat="40.412768" lon="-1.941162">
        <ele>1390.942</ele>
        <time>2021-05-28T15:24:09Z</time>
      </trkpt>
      <trkpt lat="40.411739" lon="-1.939592">
        <ele>1384.422</ele>
        <time>2021-05-28T15:25:05Z</time>
      </trkpt>
      <trkpt lat="40.411642" lon="-1.936490">
        <ele>1375.638</ele>
        <time>2021-05-28T15:25:47Z</time>
      </trkpt>
      <trkpt lat="40.411128" lon="-1.934284">
        <ele>1366.028</ele>
        <time>2021-05-28T15:26:15Z</time>
      </trkpt>
      <trkpt lat="40.411218" lon="-1.933662">
        <ele>1361.888</ele>
        <time>2021-05-28T15:26:23Z</time>
      </trkpt>
      <trkpt lat="40.411776" lon="-1.932815">
        <ele>1359.199</ele>
        <time>2021-05-28T15:26:35Z</time>
      </trkpt>
      <trkpt lat="40.411819" lon="-1.931857">
        <ele>1358.307</ele>
        <time>2021-05-28T15:26:49Z</time>
      </trkpt>
      <trkpt lat="40.411135" lon="-1.930998">
        <ele>1362.127</ele>
        <time>2021-05-28T15:27:14Z</time>
      </trkpt>
      <trkpt lat="40.411247" lon="-1.930204">
        <ele>1364.508</ele>
        <time>2021-05-28T15:27:34Z</time>
      </trkpt>
      <trkpt lat="40.410864" lon="-1.929221">
        <ele>1367.336</ele>
        <time>2021-05-28T15:28:02Z</time>
      </trkpt>
      <trkpt lat="40.410794" lon="-1.928453">
        <ele>1365.633</ele>
        <time>2021-05-28T15:28:16Z</time>
      </trkpt>
      <trkpt lat="40.410219" lon="-1.927826">
        <ele>1368.151</ele>
        <time>2021-05-28T15:28:32Z</time>
      </trkpt>
      <trkpt lat="40.409609" lon="-1.925682">
        <ele>1371.855</ele>
        <time>2021-05-28T15:29:20Z</time>
      </trkpt>
      <trkpt lat="40.409721" lon="-1.924909">
        <ele>1375.615</ele>
        <time>2021-05-28T15:29:43Z</time>
      </trkpt>
      <trkpt lat="40.408180" lon="-1.925509">
        <ele>1385.691</ele>
        <time>2021-05-28T15:30:43Z</time>
      </trkpt>
      <trkpt lat="40.406812" lon="-1.924692">
        <ele>1387.061</ele>
        <time>2021-05-28T15:31:17Z</time>
      </trkpt>
      <trkpt lat="40.406403" lon="-1.924709">
        <ele>1390.291</ele>
        <time>2021-05-28T15:31:33Z</time>
      </trkpt>
      <trkpt lat="40.405761" lon="-1.925079">
        <ele>1395.688</ele>
        <time>2021-05-28T15:32:02Z</time>
      </trkpt>
      <trkpt lat="40.404816" lon="-1.924258">
        <ele>1383.824</ele>
        <time>2021-05-28T15:32:22Z</time>
      </trkpt>
      <trkpt lat="40.404263" lon="-1.923418">
        <ele>1385.626</ele>
        <time>2021-05-28T15:32:32Z</time>
      </trkpt>
      <trkpt lat="40.403625" lon="-1.922905">
        <ele>1386.908</ele>
        <time>2021-05-28T15:32:50Z</time>
      </trkpt>
      <trkpt lat="40.403502" lon="-1.922552">
        <ele>1389.735</ele>
        <time>2021-05-28T15:33:03Z</time>
      </trkpt>
      <trkpt lat="40.403058" lon="-1.923302">
        <ele>1390.472</ele>
        <time>2021-05-28T15:33:27Z</time>
      </trkpt>
      <trkpt lat="40.401299" lon="-1.922632">
        <ele>1397.210</ele>
        <time>2021-05-28T15:34:31Z</time>
      </trkpt>
      <trkpt lat="40.400851" lon="-1.922852">
        <ele>1398.984</ele>
        <time>2021-05-28T15:34:45Z</time>
      </trkpt>
      <trkpt lat="40.400621" lon="-1.922714">
        <ele>1400.564</ele>
        <time>2021-05-28T15:34:54Z</time>
      </trkpt>
      <trkpt lat="40.399691" lon="-1.920812">
        <ele>1409.480</ele>
        <time>2021-05-28T15:35:54Z</time>
      </trkpt>
      <trkpt lat="40.398524" lon="-1.918920">
        <ele>1416.870</ele>
        <time>2021-05-28T15:37:01Z</time>
      </trkpt>
      <trkpt lat="40.397751" lon="-1.916984">
        <ele>1424.830</ele>
        <time>2021-05-28T15:38:05Z</time>
      </trkpt>
      <trkpt lat="40.396831" lon="-1.915389">
        <ele>1432.385</ele>
        <time>2021-05-28T15:39:00Z</time>
      </trkpt>
      <trkpt lat="40.396540" lon="-1.913918">
        <ele>1425.689</ele>
        <time>2021-05-28T15:39:21Z</time>
      </trkpt>
      <trkpt lat="40.396001" lon="-1.913452">
        <ele>1420.817</ele>
        <time>2021-05-28T15:39:30Z</time>
      </trkpt>
      <trkpt lat="40.395501" lon="-1.912128">
        <ele>1415.608</ele>
        <time>2021-05-28T15:39:45Z</time>
      </trkpt>
      <trkpt lat="40.395038" lon="-1.911791">
        <ele>1415.675</ele>
        <time>2021-05-28T15:39:55Z</time>
      </trkpt>
      <trkpt lat="40.393675" lon="-1.910117">
        <ele>1418.912</ele>
        <time>2021-05-28T15:40:37Z</time>
      </trkpt>
      <trkpt lat="40.392818" lon="-1.909864">
        <ele>1420.960</ele>
        <time>2021-05-28T15:40:58Z</time>
      </trkpt>
      <trkpt lat="40.391994" lon="-1.909018">
        <ele>1426.494</ele>
        <time>2021-05-28T15:41:29Z</time>
      </trkpt>
      <trkpt lat="40.390652" lon="-1.906805">
        <ele>1437.964</ele>
        <time>2021-05-28T15:42:51Z</time>
      </trkpt>
      <trkpt lat="40.389460" lon="-1.905454">
        <ele>1446.250</ele>
        <time>2021-05-28T15:43:59Z</time>
      </trkpt>
      <trkpt lat="40.388343" lon="-1.903322">
        <ele>1458.570</ele>
        <time>2021-05-28T15:45:20Z</time>
      </trkpt>
      <trkpt lat="40.387728" lon="-1.902804">
        <ele>1466.070</ele>
        <time>2021-05-28T15:45:55Z</time>
      </trkpt>
      <trkpt lat="40.387085" lon="-1.901223">
        <ele>1477.545</ele>
        <time>2021-05-28T15:47:09Z</time>
      </trkpt>
      <trkpt lat="40.385695" lon="-1.898743">
        <ele>1488.247</ele>
        <time>2021-05-28T15:48:44Z</time>
      </trkpt>
      <trkpt lat="40.386248" lon="-1.896239">
        <ele>1507.011</ele>
        <time>2021-05-28T15:50:14Z</time>
      </trkpt>
      <trkpt lat="40.386058" lon="-1.893982">
        <ele>1518.108</ele>
        <time>2021-05-28T15:51:34Z</time>
      </trkpt>
      <trkpt lat="40.386171" lon="-1.894137">
        <ele>1518.331</ele>
        <time>2021-05-28T15:52:46Z</time>
      </trkpt>
      <trkpt lat="40.385399" lon="-1.891818">
        <ele>1507.848</ele>
        <time>2021-05-28T16:14:36Z</time>
      </trkpt>
      <trkpt lat="40.384292" lon="-1.889779">
        <ele>1492.546</ele>
        <time>2021-05-28T16:14:58Z</time>
      </trkpt>
      <trkpt lat="40.383574" lon="-1.888062">
        <ele>1478.610</ele>
        <time>2021-05-28T16:15:17Z</time>
      </trkpt>
      <trkpt lat="40.383518" lon="-1.887557">
        <ele>1477.010</ele>
        <time>2021-05-28T16:15:22Z</time>
      </trkpt>
      <trkpt lat="40.383720" lon="-1.886872">
        <ele>1475.846</ele>
        <time>2021-05-28T16:15:35Z</time>
      </trkpt>
      <trkpt lat="40.382623" lon="-1.886800">
        <ele>1472.956</ele>
        <time>2021-05-28T16:16:05Z</time>
      </trkpt>
      <trkpt lat="40.381464" lon="-1.886140">
        <ele>1462.316</ele>
        <time>2021-05-28T16:16:20Z</time>
      </trkpt>
      <trkpt lat="40.380432" lon="-1.884831">
        <ele>1448.867</ele>
        <time>2021-05-28T16:16:32Z</time>
      </trkpt>
      <trkpt lat="40.378927" lon="-1.882221">
        <ele>1428.981</ele>
        <time>2021-05-28T16:16:50Z</time>
      </trkpt>
      <trkpt lat="40.376619" lon="-1.880195">
        <ele>1409.519</ele>
        <time>2021-05-28T16:17:10Z</time>
      </trkpt>
      <trkpt lat="40.375841" lon="-1.879273">
        <ele>1404.608</ele>
        <time>2021-05-28T16:17:18Z</time>
      </trkpt>
      <trkpt lat="40.375395" lon="-1.878270">
        <ele>1400.713</ele>
        <time>2021-05-28T16:17:26Z</time>
      </trkpt>
      <trkpt lat="40.375759" lon="-1.875272">
        <ele>1384.440</ele>
        <time>2021-05-28T16:17:48Z</time>
      </trkpt>
      <trkpt lat="40.375694" lon="-1.874822">
        <ele>1380.898</ele>
        <time>2021-05-28T16:17:51Z</time>
      </trkpt>
      <trkpt lat="40.374694" lon="-1.873446">
        <ele>1363.842</ele>
        <time>2021-05-28T16:18:02Z</time>
      </trkpt>
      <trkpt lat="40.374061" lon="-1.873151">
        <ele>1357.972</ele>
        <time>2021-05-28T16:18:07Z</time>
      </trkpt>
      <trkpt lat="40.372864" lon="-1.871503">
        <ele>1343.448</ele>
        <time>2021-05-28T16:18:20Z</time>
      </trkpt>
      <trkpt lat="40.372507" lon="-1.868811">
        <ele>1331.048</ele>
        <time>2021-05-28T16:18:37Z</time>
      </trkpt>
      <trkpt lat="40.372071" lon="-1.867781">
        <ele>1329.898</ele>
        <time>2021-05-28T16:18:45Z</time>
      </trkpt>
      <trkpt lat="40.370610" lon="-1.866339">
        <ele>1329.523</ele>
        <time>2021-05-28T16:19:05Z</time>
      </trkpt>
      <trkpt lat="40.367666" lon="-1.865341">
        <ele>1315.983</ele>
        <time>2021-05-28T16:19:36Z</time>
      </trkpt>
      <trkpt lat="40.365800" lon="-1.863851">
        <ele>1311.511</ele>
        <time>2021-05-28T16:19:56Z</time>
      </trkpt>
      <trkpt lat="40.364227" lon="-1.862930">
        <ele>1310.308</ele>
        <time>2021-05-28T16:20:14Z</time>
      </trkpt>
      <trkpt lat="40.356350" lon="-1.859583">
        <ele>1308.439</ele>
        <time>2021-05-28T16:22:03Z</time>
      </trkpt>
      <trkpt lat="40.354269" lon="-1.857298">
        <ele>1299.046</ele>
        <time>2021-05-28T16:22:33Z</time>
      </trkpt>
      <trkpt lat="40.353148" lon="-1.854553">
        <ele>1298.194</ele>
        <time>2021-05-28T16:23:04Z</time>
      </trkpt>
      <trkpt lat="40.352257" lon="-1.853478">
        <ele>1289.378</ele>
        <time>2021-05-28T16:23:18Z</time>
      </trkpt>
      <trkpt lat="40.351927" lon="-1.852629">
        <ele>1287.478</ele>
        <time>2021-05-28T16:23:30Z</time>
      </trkpt>
      <trkpt lat="40.351813" lon="-1.852718">
        <ele>1287.384</ele>
        <time>2021-05-28T16:23:35Z</time>
      </trkpt>
      <trkpt lat="40.350170" lon="-1.851871">
        <ele>1286.554</ele>
        <time>2021-05-28T16:24:44Z</time>
      </trkpt>
      <trkpt lat="40.350380" lon="-1.851249">
        <ele>1282.194</ele>
        <time>2021-05-28T16:25:01Z</time>
      </trkpt>
      <trkpt lat="40.350033" lon="-1.851037">
        <ele>1281.068</ele>
        <time>2021-05-28T16:25:20Z</time>
      </trkpt>
      <trkpt lat="40.350244" lon="-1.850700">
        <ele>1280.442</ele>
        <time>2021-05-28T16:25:41Z</time>
      </trkpt>
      <trkpt lat="40.350148" lon="-1.851017">
        <ele>1281.126</ele>
        <time>2021-05-28T16:26:45Z</time>
      </trkpt>
      <trkpt lat="40.349780" lon="-1.851049">
        <ele>1280.808</ele>
        <time>2021-05-28T16:27:03Z</time>
      </trkpt>
      <trkpt lat="40.349891" lon="-1.850440">
        <ele>1278.813</ele>
        <time>2021-05-28T16:27:23Z</time>
      </trkpt>
      <trkpt lat="40.349801" lon="-1.850967">
        <ele>1281.040</ele>
        <time>2021-05-28T16:27:57Z</time>
      </trkpt>
      <trkpt lat="40.349508" lon="-1.851037">
        <ele>1281.448</ele>
        <time>2021-05-28T16:28:12Z</time>
      </trkpt>
      <trkpt lat="40.349462" lon="-1.851327">
        <ele>1282.572</ele>
        <time>2021-05-28T16:28:22Z</time>
      </trkpt>
      <trkpt lat="40.350052" lon="-1.850239">
        <ele>1281.252</ele>
        <time>2021-09-08T09:20:47Z</time>
      </trkpt>
      <trkpt lat="40.350273" lon="-1.849745">
        <ele>1279.053</ele>
        <time>2021-09-08T09:21:02Z</time>
      </trkpt>
      <trkpt lat="40.351757" lon="-1.850280">
        <ele>1281.808</ele>
        <time>2021-09-08T09:22:03Z</time>
      </trkpt>
      <trkpt lat="40.352160" lon="-1.851102">
        <ele>1284.008</ele>
        <time>2021-09-08T09:23:22Z</time>
      </trkpt>
      <trkpt lat="40.352047" lon="-1.852554">
        <ele>1289.713</ele>
        <time>2021-09-08T09:24:15Z</time>
      </trkpt>
      <trkpt lat="40.352256" lon="-1.853266">
        <ele>1291.738</ele>
        <time>2021-09-08T09:24:43Z</time>
      </trkpt>
      <trkpt lat="40.353201" lon="-1.854390">
        <ele>1299.789</ele>
        <time>2021-09-08T09:25:49Z</time>
      </trkpt>
      <trkpt lat="40.354425" lon="-1.857380">
        <ele>1303.791</ele>
        <time>2021-09-08T09:27:34Z</time>
      </trkpt>
      <trkpt lat="40.356471" lon="-1.859572">
        <ele>1312.019</ele>
        <time>2021-09-08T09:29:15Z</time>
      </trkpt>
      <trkpt lat="40.364208" lon="-1.862814">
        <ele>1316.255</ele>
        <time>2021-09-08T09:33:24Z</time>
      </trkpt>
      <trkpt lat="40.366004" lon="-1.863884">
        <ele>1317.423</ele>
        <time>2021-09-08T09:34:16Z</time>
      </trkpt>
      <trkpt lat="40.367668" lon="-1.865325">
        <ele>1320.175</ele>
        <time>2021-09-08T09:35:22Z</time>
      </trkpt>
      <trkpt lat="40.370330" lon="-1.866151">
        <ele>1332.743</ele>
        <time>2021-09-08T09:37:45Z</time>
      </trkpt>
      <trkpt lat="40.371954" lon="-1.867421">
        <ele>1336.664</ele>
        <time>2021-09-08T09:40:49Z</time>
      </trkpt>
      <trkpt lat="40.372513" lon="-1.868593">
        <ele>1337.810</ele>
        <time>2021-09-08T09:41:36Z</time>
      </trkpt>
      <trkpt lat="40.372972" lon="-1.871605">
        <ele>1350.608</ele>
        <time>2021-09-08T09:43:35Z</time>
      </trkpt>
      <trkpt lat="40.374128" lon="-1.873201">
        <ele>1365.292</ele>
        <time>2021-09-08T09:45:16Z</time>
      </trkpt>
      <trkpt lat="40.374881" lon="-1.873655">
        <ele>1373.727</ele>
        <time>2021-09-08T09:46:11Z</time>
      </trkpt>
      <trkpt lat="40.375776" lon="-1.875079">
        <ele>1390.038</ele>
        <time>2021-09-08T09:47:51Z</time>
      </trkpt>
      <trkpt lat="40.375693" lon="-1.877131">
        <ele>1403.450</ele>
        <time>2021-09-08T09:49:45Z</time>
      </trkpt>
      <trkpt lat="40.375481" lon="-1.878218">
        <ele>1406.688</ele>
        <time>2021-09-08T09:50:34Z</time>
      </trkpt>
      <trkpt lat="40.375834" lon="-1.879049">
        <ele>1411.064</ele>
        <time>2021-09-08T09:51:16Z</time>
      </trkpt>
      <trkpt lat="40.376870" lon="-1.880326">
        <ele>1418.122</ele>
        <time>2021-09-08T09:52:36Z</time>
      </trkpt>
      <trkpt lat="40.378948" lon="-1.882156">
        <ele>1436.754</ele>
        <time>2021-09-08T09:55:15Z</time>
      </trkpt>
      <trkpt lat="40.380574" lon="-1.884950">
        <ele>1457.038</ele>
        <time>2021-09-08T09:58:08Z</time>
      </trkpt>
      <trkpt lat="40.381533" lon="-1.886137">
        <ele>1468.570</ele>
        <time>2021-09-08T09:59:36Z</time>
      </trkpt>
      <trkpt lat="40.382825" lon="-1.886816">
        <ele>1478.817</ele>
        <time>2021-09-08T10:01:06Z</time>
      </trkpt>
      <trkpt lat="40.383688" lon="-1.886919">
        <ele>1481.108</ele>
        <time>2021-09-08T10:02:01Z</time>
      </trkpt>
      <trkpt lat="40.383532" lon="-1.887699">
        <ele>1485.351</ele>
        <time>2021-09-08T10:02:42Z</time>
      </trkpt>
      <trkpt lat="40.385526" lon="-1.891979">
        <ele>1515.736</ele>
        <time>2021-09-08T10:07:07Z</time>
      </trkpt>
      <trkpt lat="40.386155" lon="-1.893996">
        <ele>1524.347</ele>
        <time>2021-09-08T10:08:51Z</time>
      </trkpt>
      <trkpt lat="40.386301" lon="-1.896255">
        <ele>1514.389</ele>
        <time>2021-09-08T10:09:42Z</time>
      </trkpt>
      <trkpt lat="40.386092" lon="-1.897402">
        <ele>1504.247</ele>
        <time>2021-09-08T10:10:02Z</time>
      </trkpt>
      <trkpt lat="40.385399" lon="-1.899399">
        <ele>1496.123</ele>
        <time>2021-09-08T10:10:51Z</time>
      </trkpt>
      <trkpt lat="40.385147" lon="-1.900794">
        <ele>1505.911</ele>
        <time>2021-09-08T10:12:06Z</time>
      </trkpt>
      <trkpt lat="40.385121" lon="-1.903914">
        <ele>1528.963</ele>
        <time>2021-09-08T10:15:13Z</time>
      </trkpt>
      <trkpt lat="40.384937" lon="-1.903910">
        <ele>1530.847</ele>
        <time>2021-09-08T10:15:27Z</time>
      </trkpt>
      <trkpt lat="40.384369" lon="-1.902785">
        <ele>1537.029</ele>
        <time>2021-09-08T10:16:40Z</time>
      </trkpt>
      <trkpt lat="40.383532" lon="-1.901809">
        <ele>1544.521</ele>
        <time>2021-09-08T10:18:02Z</time>
      </trkpt>
      <trkpt lat="40.383297" lon="-1.901988">
        <ele>1545.708</ele>
        <time>2021-09-08T10:18:17Z</time>
      </trkpt>
      <trkpt lat="40.383256" lon="-1.902744">
        <ele>1549.392</ele>
        <time>2021-09-08T10:18:56Z</time>
      </trkpt>
      <trkpt lat="40.383563" lon="-1.904501">
        <ele>1563.247</ele>
        <time>2021-09-08T10:20:28Z</time>
      </trkpt>
      <trkpt lat="40.383422" lon="-1.904844">
        <ele>1567.488</ele>
        <time>2021-09-08T10:20:53Z</time>
      </trkpt>
      <trkpt lat="40.383192" lon="-1.904704">
        <ele>1570.790</ele>
        <time>2021-09-08T10:21:13Z</time>
      </trkpt>
      <trkpt lat="40.382444" lon="-1.903340">
        <ele>1581.778</ele>
        <time>2021-09-08T10:22:59Z</time>
      </trkpt>
      <trkpt lat="40.382007" lon="-1.901600">
        <ele>1586.014</ele>
        <time>2021-09-08T10:27:45Z</time>
      </trkpt>
      <trkpt lat="40.381271" lon="-1.900413">
        <ele>1589.452</ele>
        <time>2021-09-08T10:28:47Z</time>
      </trkpt>
      <trkpt lat="40.380513" lon="-1.899598">
        <ele>1592.434</ele>
        <time>2021-09-08T10:29:38Z</time>
      </trkpt>
      <trkpt lat="40.380285" lon="-1.899033">
        <ele>1595.925</ele>
        <time>2021-09-08T10:30:05Z</time>
      </trkpt>
      <trkpt lat="40.380088" lon="-1.899124">
        <ele>1597.326</ele>
        <time>2021-09-08T10:30:17Z</time>
      </trkpt>
      <trkpt lat="40.379806" lon="-1.899961">
        <ele>1601.508</ele>
        <time>2021-09-08T10:31:00Z</time>
      </trkpt>
      <trkpt lat="40.379814" lon="-1.901128">
        <ele>1608.208</ele>
        <time>2021-09-08T10:31:52Z</time>
      </trkpt>
      <trkpt lat="40.379423" lon="-1.901531">
        <ele>1610.530</ele>
        <time>2021-09-08T10:32:23Z</time>
      </trkpt>
      <trkpt lat="40.378627" lon="-1.899384">
        <ele>1625.585</ele>
        <time>2021-09-08T10:34:14Z</time>
      </trkpt>
      <trkpt lat="40.377679" lon="-1.898290">
        <ele>1633.666</ele>
        <time>2021-09-08T10:35:28Z</time>
      </trkpt>
      <trkpt lat="40.377002" lon="-1.898385">
        <ele>1639.228</ele>
        <time>2021-09-08T10:36:08Z</time>
      </trkpt>
      <trkpt lat="40.376387" lon="-1.897600">
        <ele>1645.956</ele>
        <time>2021-09-08T10:37:07Z</time>
      </trkpt>
      <trkpt lat="40.375416" lon="-1.895134">
        <ele>1648.572</ele>
        <time>2021-09-08T10:39:11Z</time>
      </trkpt>
      <trkpt lat="40.374153" lon="-1.894371">
        <ele>1651.230</ele>
        <time>2021-09-08T10:40:12Z</time>
      </trkpt>
      <trkpt lat="40.372697" lon="-1.894045">
        <ele>1659.212</ele>
        <time>2021-09-08T10:41:18Z</time>
      </trkpt>
      <trkpt lat="40.372660" lon="-1.892557">
        <ele>1659.786</ele>
        <time>2021-09-08T10:43:18Z</time>
      </trkpt>
      <trkpt lat="40.373049" lon="-1.890581">
        <ele>1659.560</ele>
        <time>2021-09-08T10:44:00Z</time>
      </trkpt>
      <trkpt lat="40.372543" lon="-1.889972">
        <ele>1663.926</ele>
        <time>2021-09-08T10:44:33Z</time>
      </trkpt>
      <trkpt lat="40.371403" lon="-1.890433">
        <ele>1674.008</ele>
        <time>2021-09-08T10:45:47Z</time>
      </trkpt>
      <trkpt lat="40.370803" lon="-1.890408">
        <ele>1678.276</ele>
        <time>2021-09-08T10:46:24Z</time>
      </trkpt>
      <trkpt lat="40.370547" lon="-1.889539">
        <ele>1675.151</ele>
        <time>2021-09-08T10:47:08Z</time>
      </trkpt>
      <trkpt lat="40.369369" lon="-1.887570">
        <ele>1667.372</ele>
        <time>2021-09-08T10:47:39Z</time>
      </trkpt>
      <trkpt lat="40.368770" lon="-1.887120">
        <ele>1666.294</ele>
        <time>2021-09-08T10:48:01Z</time>
      </trkpt>
      <trkpt lat="40.366606" lon="-1.886378">
        <ele>1675.172</ele>
        <time>2021-09-08T10:50:07Z</time>
      </trkpt>
      <trkpt lat="40.365868" lon="-1.886458">
        <ele>1673.678</ele>
        <time>2021-09-08T10:50:34Z</time>
      </trkpt>
      <trkpt lat="40.365307" lon="-1.886791">
        <ele>1671.686</ele>
        <time>2021-09-08T10:50:57Z</time>
      </trkpt>
      <trkpt lat="40.364345" lon="-1.886291">
        <ele>1662.868</ele>
        <time>2021-09-08T10:54:26Z</time>
      </trkpt>
      <trkpt lat="40.363774" lon="-1.885521">
        <ele>1657.337</ele>
        <time>2021-09-08T10:54:42Z</time>
      </trkpt>
      <trkpt lat="40.363510" lon="-1.883970">
        <ele>1647.049</ele>
        <time>2021-09-08T10:55:02Z</time>
      </trkpt>
      <trkpt lat="40.362297" lon="-1.883024">
        <ele>1644.013</ele>
        <time>2021-09-08T10:55:36Z</time>
      </trkpt>
      <trkpt lat="40.361364" lon="-1.882741">
        <ele>1646.908</ele>
        <time>2021-09-08T10:56:13Z</time>
      </trkpt>
      <trkpt lat="40.358567" lon="-1.883020">
        <ele>1632.241</ele>
        <time>2021-09-08T10:57:23Z</time>
      </trkpt>
      <trkpt lat="40.357293" lon="-1.883995">
        <ele>1622.186</ele>
        <time>2021-09-08T10:57:47Z</time>
      </trkpt>
      <trkpt lat="40.356820" lon="-1.884136">
        <ele>1619.727</ele>
        <time>2021-09-08T10:57:56Z</time>
      </trkpt>
      <trkpt lat="40.356585" lon="-1.883805">
        <ele>1616.119</ele>
        <time>2021-09-08T10:58:04Z</time>
      </trkpt>
      <trkpt lat="40.355267" lon="-1.883679">
        <ele>1606.217</ele>
        <time>2021-09-08T10:58:30Z</time>
      </trkpt>
      <trkpt lat="40.353863" lon="-1.883976">
        <ele>1594.273</ele>
        <time>2021-09-08T10:58:59Z</time>
      </trkpt>
      <trkpt lat="40.352451" lon="-1.883757">
        <ele>1583.871</ele>
        <time>2021-09-08T10:59:29Z</time>
      </trkpt>
      <trkpt lat="40.350684" lon="-1.884830">
        <ele>1575.433</ele>
        <time>2021-09-08T11:00:04Z</time>
      </trkpt>
      <trkpt lat="40.349847" lon="-1.884348">
        <ele>1572.931</ele>
        <time>2021-09-08T11:00:26Z</time>
      </trkpt>
      <trkpt lat="40.349426" lon="-1.884648">
        <ele>1575.161</ele>
        <time>2021-09-08T11:00:46Z</time>
      </trkpt>
      <trkpt lat="40.349034" lon="-1.885485">
        <ele>1580.507</ele>
        <time>2021-09-08T11:01:22Z</time>
      </trkpt>
      <trkpt lat="40.347305" lon="-1.886022">
        <ele>1591.708</ele>
        <time>2021-09-08T11:03:13Z</time>
      </trkpt>
      <trkpt lat="40.346638" lon="-1.885951">
        <ele>1592.461</ele>
        <time>2021-09-08T11:03:42Z</time>
      </trkpt>
      <trkpt lat="40.346176" lon="-1.884727">
        <ele>1587.956</ele>
        <time>2021-09-08T11:03:59Z</time>
      </trkpt>
      <trkpt lat="40.345637" lon="-1.884917">
        <ele>1587.997</ele>
        <time>2021-09-08T11:04:14Z</time>
      </trkpt>
      <trkpt lat="40.345240" lon="-1.884723">
        <ele>1590.859</ele>
        <time>2021-09-08T11:04:38Z</time>
      </trkpt>
      <trkpt lat="40.345178" lon="-1.883615">
        <ele>1592.147</ele>
        <time>2021-09-08T11:05:11Z</time>
      </trkpt>
      <trkpt lat="40.345385" lon="-1.882978">
        <ele>1591.863</ele>
        <time>2021-09-08T11:05:27Z</time>
      </trkpt>
      <trkpt lat="40.344717" lon="-1.881584">
        <ele>1595.471</ele>
        <time>2021-09-08T11:06:14Z</time>
      </trkpt>
      <trkpt lat="40.343071" lon="-1.881270">
        <ele>1592.083</ele>
        <time>2021-09-08T11:07:04Z</time>
      </trkpt>
      <trkpt lat="40.342676" lon="-1.880944">
        <ele>1590.967</ele>
        <time>2021-09-08T11:07:15Z</time>
      </trkpt>
      <trkpt lat="40.342631" lon="-1.880330">
        <ele>1589.281</ele>
        <time>2021-09-08T11:07:26Z</time>
      </trkpt>
      <trkpt lat="40.343341" lon="-1.879860">
        <ele>1583.019</ele>
        <time>2021-09-08T11:07:41Z</time>
      </trkpt>
      <trkpt lat="40.343495" lon="-1.879548">
        <ele>1581.608</ele>
        <time>2021-09-08T11:07:46Z</time>
      </trkpt>
      <trkpt lat="40.342744" lon="-1.878652">
        <ele>1573.184</ele>
        <time>2021-09-08T11:08:06Z</time>
      </trkpt>
      <trkpt lat="40.341667" lon="-1.878336">
        <ele>1564.999</ele>
        <time>2021-09-08T11:08:27Z</time>
      </trkpt>
      <trkpt lat="40.340963" lon="-1.877647">
        <ele>1556.980</ele>
        <time>2021-09-08T11:08:46Z</time>
      </trkpt>
      <trkpt lat="40.340741" lon="-1.877031">
        <ele>1552.952</ele>
        <time>2021-09-08T11:08:56Z</time>
      </trkpt>
      <trkpt lat="40.341267" lon="-1.876316">
        <ele>1547.910</ele>
        <time>2021-09-08T11:09:12Z</time>
      </trkpt>
      <trkpt lat="40.341172" lon="-1.875930">
        <ele>1546.746</ele>
        <time>2021-09-08T11:09:18Z</time>
      </trkpt>
      <trkpt lat="40.340966" lon="-1.875820">
        <ele>1546.184</ele>
        <time>2021-09-08T11:09:23Z</time>
      </trkpt>
      <trkpt lat="40.340206" lon="-1.876386">
        <ele>1543.886</ele>
        <time>2021-09-08T11:09:41Z</time>
      </trkpt>
      <trkpt lat="40.339387" lon="-1.876630">
        <ele>1540.382</ele>
        <time>2021-09-08T11:09:57Z</time>
      </trkpt>
      <trkpt lat="40.338916" lon="-1.876494">
        <ele>1538.743</ele>
        <time>2021-09-08T11:10:08Z</time>
      </trkpt>
      <trkpt lat="40.338375" lon="-1.876979">
        <ele>1536.217</ele>
        <time>2021-09-08T11:10:21Z</time>
      </trkpt>
      <trkpt lat="40.337980" lon="-1.878023">
        <ele>1534.208</ele>
        <time>2021-09-08T11:10:40Z</time>
      </trkpt>
      <trkpt lat="40.337565" lon="-1.878569">
        <ele>1533.436</ele>
        <time>2021-09-08T11:10:56Z</time>
      </trkpt>
      <trkpt lat="40.336995" lon="-1.878393">
        <ele>1532.361</ele>
        <time>2021-09-08T11:11:14Z</time>
      </trkpt>
      <trkpt lat="40.336172" lon="-1.877356">
        <ele>1527.852</ele>
        <time>2021-09-08T11:11:42Z</time>
      </trkpt>
      <trkpt lat="40.334712" lon="-1.878147">
        <ele>1522.664</ele>
        <time>2021-09-08T11:12:16Z</time>
      </trkpt>
      <trkpt lat="40.333919" lon="-1.878101">
        <ele>1520.882</ele>
        <time>2021-09-08T11:12:36Z</time>
      </trkpt>
      <trkpt lat="40.331706" lon="-1.879751">
        <ele>1514.918</ele>
        <time>2021-09-08T11:13:28Z</time>
      </trkpt>
      <trkpt lat="40.331129" lon="-1.881079">
        <ele>1511.526</ele>
        <time>2021-09-08T11:13:53Z</time>
      </trkpt>
      <trkpt lat="40.330945" lon="-1.882044">
        <ele>1508.888</ele>
        <time>2021-09-08T11:14:11Z</time>
      </trkpt>
      <trkpt lat="40.329630" lon="-1.883266">
        <ele>1504.477</ele>
        <time>2021-09-08T11:14:42Z</time>
      </trkpt>
      <trkpt lat="40.329428" lon="-1.884471">
        <ele>1500.261</ele>
        <time>2021-09-08T11:15:01Z</time>
      </trkpt>
      <trkpt lat="40.328972" lon="-1.885251">
        <ele>1498.027</ele>
        <time>2021-09-08T11:15:17Z</time>
      </trkpt>
      <trkpt lat="40.328596" lon="-1.885382">
        <ele>1497.308</ele>
        <time>2021-09-08T11:15:26Z</time>
      </trkpt>
      <trkpt lat="40.327076" lon="-1.884925">
        <ele>1495.235</ele>
        <time>2021-09-08T11:15:55Z</time>
      </trkpt>
      <trkpt lat="40.326078" lon="-1.886280">
        <ele>1491.050</ele>
        <time>2021-09-08T11:16:22Z</time>
      </trkpt>
      <trkpt lat="40.325531" lon="-1.886274">
        <ele>1490.171</ele>
        <time>2021-09-08T11:16:34Z</time>
      </trkpt>
      <trkpt lat="40.324717" lon="-1.886842">
        <ele>1489.613</ele>
        <time>2021-09-08T11:16:57Z</time>
      </trkpt>
      <trkpt lat="40.324191" lon="-1.887547">
        <ele>1490.611</ele>
        <time>2021-09-08T11:17:21Z</time>
      </trkpt>
      <trkpt lat="40.323539" lon="-1.887816">
        <ele>1492.577</ele>
        <time>2021-09-08T11:17:53Z</time>
      </trkpt>
      <trkpt lat="40.323523" lon="-1.889091">
        <ele>1493.295</ele>
        <time>2021-09-08T11:18:34Z</time>
      </trkpt>
      <trkpt lat="40.323333" lon="-1.889398">
        <ele>1493.197</ele>
        <time>2021-09-08T11:18:46Z</time>
      </trkpt>
      <trkpt lat="40.321314" lon="-1.888481">
        <ele>1479.356</ele>
        <time>2021-09-08T11:19:24Z</time>
      </trkpt>
      <trkpt lat="40.321023" lon="-1.887693">
        <ele>1474.859</ele>
        <time>2021-09-08T11:19:35Z</time>
      </trkpt>
      <trkpt lat="40.320535" lon="-1.887275">
        <ele>1472.714</ele>
        <time>2021-09-08T11:19:44Z</time>
      </trkpt>
      <trkpt lat="40.320266" lon="-1.886658">
        <ele>1471.008</ele>
        <time>2021-09-08T11:19:53Z</time>
      </trkpt>
      <trkpt lat="40.319128" lon="-1.886575">
        <ele>1473.443</ele>
        <time>2021-09-08T11:20:33Z</time>
      </trkpt>
      <trkpt lat="40.318318" lon="-1.886259">
        <ele>1471.588</ele>
        <time>2021-09-08T11:20:58Z</time>
      </trkpt>
      <trkpt lat="40.317777" lon="-1.886431">
        <ele>1468.379</ele>
        <time>2021-09-08T11:21:16Z</time>
      </trkpt>
      <trkpt lat="40.317404" lon="-1.886141">
        <ele>1467.231</ele>
        <time>2021-09-08T11:27:02Z</time>
      </trkpt>
      <trkpt lat="40.317688" lon="-1.885998">
        <ele>1467.299</ele>
        <time>2021-09-08T11:27:21Z</time>
      </trkpt>
      <trkpt lat="40.317449" lon="-1.886141">
        <ele>1466.945</ele>
        <time>2021-09-08T11:40:52Z</time>
      </trkpt>
      <trkpt lat="40.317452" lon="-1.886458">
        <ele>1466.343</ele>
        <time>2021-09-08T11:42:11Z</time>
      </trkpt>
      <trkpt lat="40.316932" lon="-1.886916">
        <ele>1460.825</ele>
        <time>2021-09-08T11:42:47Z</time>
      </trkpt>
      <trkpt lat="40.313905" lon="-1.885979">
        <ele>1461.524</ele>
        <time>2021-09-08T11:44:46Z</time>
      </trkpt>
      <trkpt lat="40.313055" lon="-1.886375">
        <ele>1461.604</ele>
        <time>2021-09-08T11:45:14Z</time>
      </trkpt>
      <trkpt lat="40.312155" lon="-1.886067">
        <ele>1460.414</ele>
        <time>2021-09-08T11:45:44Z</time>
      </trkpt>
      <trkpt lat="40.311939" lon="-1.885537">
        <ele>1461.208</ele>
        <time>2021-09-08T11:45:58Z</time>
      </trkpt>
      <trkpt lat="40.311941" lon="-1.883086">
        <ele>1464.190</ele>
        <time>2021-09-08T11:47:00Z</time>
      </trkpt>
      <trkpt lat="40.310897" lon="-1.880199">
        <ele>1468.695</ele>
        <time>2021-09-08T11:48:23Z</time>
      </trkpt>
      <trkpt lat="40.310903" lon="-1.879831">
        <ele>1469.456</ele>
        <time>2021-09-08T11:48:34Z</time>
      </trkpt>
      <trkpt lat="40.311388" lon="-1.878907">
        <ele>1470.388</ele>
        <time>2021-09-08T11:49:05Z</time>
      </trkpt>
      <trkpt lat="40.311352" lon="-1.877794">
        <ele>1471.876</ele>
        <time>2021-09-08T11:49:33Z</time>
      </trkpt>
      <trkpt lat="40.311054" lon="-1.876822">
        <ele>1473.092</ele>
        <time>2021-09-08T11:50:02Z</time>
      </trkpt>
      <trkpt lat="40.310499" lon="-1.876093">
        <ele>1474.560</ele>
        <time>2021-09-08T11:50:30Z</time>
      </trkpt>
      <trkpt lat="40.309997" lon="-1.874896">
        <ele>1476.362</ele>
        <time>2021-09-08T11:51:08Z</time>
      </trkpt>
      <trkpt lat="40.310176" lon="-1.873858">
        <ele>1477.795</ele>
        <time>2021-09-08T11:51:38Z</time>
      </trkpt>
      <trkpt lat="40.309859" lon="-1.872836">
        <ele>1478.949</ele>
        <time>2021-09-08T11:52:08Z</time>
      </trkpt>
      <trkpt lat="40.309987" lon="-1.871851">
        <ele>1480.723</ele>
        <time>2021-09-08T11:52:34Z</time>
      </trkpt>
      <trkpt lat="40.309808" lon="-1.869962">
        <ele>1483.908</ele>
        <time>2021-09-08T11:53:26Z</time>
      </trkpt>
      <trkpt lat="40.308491" lon="-1.867712">
        <ele>1487.177</ele>
        <time>2021-09-08T11:54:38Z</time>
      </trkpt>
      <trkpt lat="40.306738" lon="-1.866235">
        <ele>1492.162</ele>
        <time>2021-09-08T11:55:58Z</time>
      </trkpt>
      <trkpt lat="40.305991" lon="-1.864809">
        <ele>1495.353</ele>
        <time>2021-09-08T11:56:50Z</time>
      </trkpt>
      <trkpt lat="40.304793" lon="-1.864092">
        <ele>1498.245</ele>
        <time>2021-09-08T11:57:45Z</time>
      </trkpt>
      <trkpt lat="40.304291" lon="-1.863478">
        <ele>1499.443</ele>
        <time>2021-09-08T11:58:14Z</time>
      </trkpt>
      <trkpt lat="40.303630" lon="-1.863128">
        <ele>1501.819</ele>
        <time>2021-09-08T11:58:44Z</time>
      </trkpt>
      <trkpt lat="40.303370" lon="-1.863497">
        <ele>1503.227</ele>
        <time>2021-09-08T11:59:02Z</time>
      </trkpt>
      <trkpt lat="40.303685" lon="-1.864331">
        <ele>1505.669</ele>
        <time>2021-09-08T11:59:31Z</time>
      </trkpt>
      <trkpt lat="40.303784" lon="-1.865817">
        <ele>1509.913</ele>
        <time>2021-09-08T12:00:22Z</time>
      </trkpt>
      <trkpt lat="40.303280" lon="-1.866886">
        <ele>1509.343</ele>
        <time>2021-09-08T12:01:04Z</time>
      </trkpt>
      <trkpt lat="40.303454" lon="-1.868614">
        <ele>1517.107</ele>
        <time>2021-09-08T12:02:10Z</time>
      </trkpt>
      <trkpt lat="40.303254" lon="-1.869340">
        <ele>1520.108</ele>
        <time>2021-09-08T12:02:45Z</time>
      </trkpt>
      <trkpt lat="40.302727" lon="-1.870023">
        <ele>1524.379</ele>
        <time>2021-09-08T12:03:31Z</time>
      </trkpt>
      <trkpt lat="40.301853" lon="-1.870422">
        <ele>1529.444</ele>
        <time>2021-09-08T12:04:29Z</time>
      </trkpt>
      <trkpt lat="40.301980" lon="-1.873002">
        <ele>1541.365</ele>
        <time>2021-09-08T12:06:23Z</time>
      </trkpt>
      <trkpt lat="40.301731" lon="-1.873528">
        <ele>1542.377</ele>
        <time>2021-09-08T12:06:51Z</time>
      </trkpt>
      <trkpt lat="40.300914" lon="-1.874083">
        <ele>1534.095</ele>
        <time>2021-09-08T12:08:02Z</time>
      </trkpt>
      <trkpt lat="40.301014" lon="-1.876320">
        <ele>1522.331</ele>
        <time>2021-09-08T12:08:37Z</time>
      </trkpt>
      <trkpt lat="40.300215" lon="-1.877098">
        <ele>1515.599</ele>
        <time>2021-09-08T12:08:55Z</time>
      </trkpt>
      <trkpt lat="40.299373" lon="-1.876385">
        <ele>1507.021</ele>
        <time>2021-09-08T12:09:14Z</time>
      </trkpt>
      <trkpt lat="40.299093" lon="-1.876552">
        <ele>1505.678</ele>
        <time>2021-09-08T12:09:21Z</time>
      </trkpt>
      <trkpt lat="40.299003" lon="-1.876889">
        <ele>1504.833</ele>
        <time>2021-09-08T12:09:27Z</time>
      </trkpt>
      <trkpt lat="40.299738" lon="-1.880061">
        <ele>1486.426</ele>
        <time>2021-09-08T12:10:02Z</time>
      </trkpt>
      <trkpt lat="40.299664" lon="-1.880944">
        <ele>1481.408</ele>
        <time>2021-09-08T12:10:13Z</time>
      </trkpt>
      <trkpt lat="40.300098" lon="-1.882128">
        <ele>1476.955</ele>
        <time>2021-09-08T12:10:27Z</time>
      </trkpt>
      <trkpt lat="40.303216" lon="-1.885020">
        <ele>1464.170</ele>
        <time>2021-09-08T12:11:23Z</time>
      </trkpt>
      <trkpt lat="40.303339" lon="-1.885456">
        <ele>1463.221</ele>
        <time>2021-09-08T12:11:30Z</time>
      </trkpt>
      <trkpt lat="40.302081" lon="-1.886464">
        <ele>1458.033</ele>
        <time>2021-09-08T12:12:03Z</time>
      </trkpt>
      <trkpt lat="40.301658" lon="-1.887399">
        <ele>1453.951</ele>
        <time>2021-09-08T12:12:17Z</time>
      </trkpt>
      <trkpt lat="40.300486" lon="-1.887708">
        <ele>1448.027</ele>
        <time>2021-09-08T12:12:34Z</time>
      </trkpt>
      <trkpt lat="40.299672" lon="-1.888443">
        <ele>1441.275</ele>
        <time>2021-09-08T12:12:49Z</time>
      </trkpt>
      <trkpt lat="40.298207" lon="-1.888700">
        <ele>1426.537</ele>
        <time>2021-09-08T12:13:15Z</time>
      </trkpt>
      <trkpt lat="40.294509" lon="-1.891831">
        <ele>1401.533</ele>
        <time>2021-09-08T12:14:19Z</time>
      </trkpt>
      <trkpt lat="40.292992" lon="-1.892379">
        <ele>1399.323</ele>
        <time>2021-09-08T12:15:03Z</time>
      </trkpt>
      <trkpt lat="40.287289" lon="-1.893742">
        <ele>1394.815</ele>
        <time>2021-09-08T12:17:08Z</time>
      </trkpt>
      <trkpt lat="40.282004" lon="-1.891457">
        <ele>1391.308</ele>
        <time>2021-09-08T12:18:55Z</time>
      </trkpt>
      <trkpt lat="40.280769" lon="-1.891309">
        <ele>1387.391</ele>
        <time>2021-09-08T12:19:18Z</time>
      </trkpt>
      <trkpt lat="40.279896" lon="-1.892122">
        <ele>1384.756</ele>
        <time>2021-09-08T12:19:37Z</time>
      </trkpt>
      <trkpt lat="40.276883" lon="-1.891153">
        <ele>1386.317</ele>
        <time>2021-09-08T12:20:42Z</time>
      </trkpt>
      <trkpt lat="40.273654" lon="-1.890494">
        <ele>1377.119</ele>
        <time>2021-09-08T12:21:36Z</time>
      </trkpt>
      <trkpt lat="40.272293" lon="-1.889672">
        <ele>1374.297</ele>
        <time>2021-09-08T12:23:21Z</time>
      </trkpt>
      <trkpt lat="40.269809" lon="-1.889929">
        <ele>1372.463</ele>
        <time>2021-09-08T12:24:06Z</time>
      </trkpt>
      <trkpt lat="40.266991" lon="-1.888416">
        <ele>1373.991</ele>
        <time>2021-09-08T12:25:35Z</time>
      </trkpt>
      <trkpt lat="40.265481" lon="-1.887960">
        <ele>1377.653</ele>
        <time>2021-09-08T12:26:40Z</time>
      </trkpt>
      <trkpt lat="40.263977" lon="-1.888333">
        <ele>1379.196</ele>
        <time>2021-09-08T12:27:46Z</time>
      </trkpt>
      <trkpt lat="40.262213" lon="-1.889745">
        <ele>1376.031</ele>
        <time>2021-09-08T12:28:23Z</time>
      </trkpt>
      <trkpt lat="40.261693" lon="-1.889824">
        <ele>1375.524</ele>
        <time>2021-09-08T12:28:33Z</time>
      </trkpt>
      <trkpt lat="40.260278" lon="-1.889218">
        <ele>1375.708</ele>
        <time>2021-09-08T12:28:57Z</time>
      </trkpt>
      <trkpt lat="40.257747" lon="-1.887654">
        <ele>1370.117</ele>
        <time>2021-09-08T12:29:36Z</time>
      </trkpt>
      <trkpt lat="40.255980" lon="-1.886918">
        <ele>1366.152</ele>
        <time>2021-09-08T12:30:05Z</time>
      </trkpt>
      <trkpt lat="40.254022" lon="-1.886716">
        <ele>1362.313</ele>
        <time>2021-09-08T12:30:38Z</time>
      </trkpt>
      <trkpt lat="40.252843" lon="-1.886359">
        <ele>1360.615</ele>
        <time>2021-09-08T12:31:01Z</time>
      </trkpt>
      <trkpt lat="40.252178" lon="-1.886612">
        <ele>1359.693</ele>
        <time>2021-09-08T12:31:12Z</time>
      </trkpt>
      <trkpt lat="40.250160" lon="-1.885414">
        <ele>1358.739</ele>
        <time>2021-09-08T12:31:49Z</time>
      </trkpt>
      <trkpt lat="40.248317" lon="-1.885547">
        <ele>1354.627</ele>
        <time>2021-09-08T12:32:17Z</time>
      </trkpt>
      <trkpt lat="40.247149" lon="-1.885183">
        <ele>1349.589</ele>
        <time>2021-09-08T12:32:33Z</time>
      </trkpt>
      <trkpt lat="40.246279" lon="-1.885175">
        <ele>1346.883</ele>
        <time>2021-09-08T12:32:46Z</time>
      </trkpt>
      <trkpt lat="40.244712" lon="-1.885909">
        <ele>1339.525</ele>
        <time>2021-09-08T12:33:11Z</time>
      </trkpt>
      <trkpt lat="40.244104" lon="-1.885991">
        <ele>1338.917</ele>
        <time>2021-09-08T12:33:21Z</time>
      </trkpt>
      <trkpt lat="40.243338" lon="-1.885739">
        <ele>1338.008</ele>
        <time>2021-09-08T12:33:34Z</time>
      </trkpt>
      <trkpt lat="40.240059" lon="-1.886803">
        <ele>1330.226</ele>
        <time>2021-09-08T12:34:28Z</time>
      </trkpt>
      <trkpt lat="40.239491" lon="-1.886646">
        <ele>1328.981</ele>
        <time>2021-09-08T12:34:37Z</time>
      </trkpt>
      <trkpt lat="40.238991" lon="-1.885995">
        <ele>1327.662</ele>
        <time>2021-09-08T12:34:48Z</time>
      </trkpt>
      <trkpt lat="40.237643" lon="-1.886245">
        <ele>1322.044</ele>
        <time>2021-09-08T12:35:05Z</time>
      </trkpt>
      <trkpt lat="40.236823" lon="-1.885894">
        <ele>1318.272</ele>
        <time>2021-09-08T12:35:16Z</time>
      </trkpt>
      <trkpt lat="40.235645" lon="-1.886100">
        <ele>1313.338</ele>
        <time>2021-09-08T12:35:30Z</time>
      </trkpt>
      <trkpt lat="40.234740" lon="-1.885601">
        <ele>1310.676</ele>
        <time>2021-09-08T12:35:41Z</time>
      </trkpt>
      <trkpt lat="40.232769" lon="-1.886197">
        <ele>1301.328</ele>
        <time>2021-09-08T12:36:03Z</time>
      </trkpt>
      <trkpt lat="40.231124" lon="-1.885900">
        <ele>1294.439</ele>
        <time>2021-09-08T12:36:21Z</time>
      </trkpt>
      <trkpt lat="40.229966" lon="-1.885112">
        <ele>1288.401</ele>
        <time>2021-09-08T12:36:35Z</time>
      </trkpt>
      <trkpt lat="40.229241" lon="-1.885596">
        <ele>1282.021</ele>
        <time>2021-09-08T12:36:45Z</time>
      </trkpt>
      <trkpt lat="40.226474" lon="-1.884355">
        <ele>1271.408</ele>
        <time>2021-09-08T12:37:23Z</time>
      </trkpt>
      <trkpt lat="40.223922" lon="-1.884788">
        <ele>1263.041</ele>
        <time>2021-09-08T12:38:03Z</time>
      </trkpt>
      <trkpt lat="40.222977" lon="-1.885513">
        <ele>1258.466</ele>
        <time>2021-09-08T12:38:21Z</time>
      </trkpt>
      <trkpt lat="40.222234" lon="-1.885215">
        <ele>1255.957</ele>
        <time>2021-09-08T12:38:33Z</time>
      </trkpt>
      <trkpt lat="40.221401" lon="-1.885620">
        <ele>1252.339</ele>
        <time>2021-09-08T12:38:46Z</time>
      </trkpt>
      <trkpt lat="40.220585" lon="-1.885239">
        <ele>1250.377</ele>
        <time>2021-09-08T12:38:59Z</time>
      </trkpt>
      <trkpt lat="40.219907" lon="-1.885648">
        <ele>1246.653</ele>
        <time>2021-09-08T12:39:10Z</time>
      </trkpt>
      <trkpt lat="40.219461" lon="-1.886621">
        <ele>1240.721</ele>
        <time>2021-09-08T12:39:23Z</time>
      </trkpt>
      <trkpt lat="40.218557" lon="-1.887299">
        <ele>1236.653</ele>
        <time>2021-09-08T12:39:38Z</time>
      </trkpt>
      <trkpt lat="40.217909" lon="-1.889104">
        <ele>1226.142</ele>
        <time>2021-09-08T12:40:08Z</time>
      </trkpt>
      <trkpt lat="40.217426" lon="-1.889614">
        <ele>1222.422</ele>
        <time>2021-09-08T12:40:18Z</time>
      </trkpt>
      <trkpt lat="40.216461" lon="-1.892214">
        <ele>1210.114</ele>
        <time>2021-09-08T12:40:55Z</time>
      </trkpt>
      <trkpt lat="40.216339" lon="-1.893019">
        <ele>1205.808</ele>
        <time>2021-09-08T12:41:05Z</time>
      </trkpt>
      <trkpt lat="40.216462" lon="-1.893889">
        <ele>1200.642</ele>
        <time>2021-09-08T12:41:18Z</time>
      </trkpt>
      <trkpt lat="40.216154" lon="-1.894259">
        <ele>1196.687</ele>
        <time>2021-09-08T12:41:31Z</time>
      </trkpt>
      <trkpt lat="40.216180" lon="-1.892763">
        <ele>1199.588</ele>
        <time>2021-09-08T12:42:24Z</time>
      </trkpt>
      <trkpt lat="40.216964" lon="-1.889778">
        <ele>1207.370</ele>
        <time>2021-09-08T12:51:39Z</time>
      </trkpt>
      <trkpt lat="40.217674" lon="-1.888626">
        <ele>1210.448</ele>
        <time>2021-09-08T12:52:22Z</time>
      </trkpt>
      <trkpt lat="40.217821" lon="-1.886213">
        <ele>1207.994</ele>
        <time>2021-09-08T12:52:58Z</time>
      </trkpt>
      <trkpt lat="40.219234" lon="-1.884109">
        <ele>1196.322</ele>
        <time>2021-09-08T12:53:16Z</time>
      </trkpt>
      <trkpt lat="40.219151" lon="-1.883110">
        <ele>1193.094</ele>
        <time>2021-09-08T12:53:22Z</time>
      </trkpt>
      <trkpt lat="40.218365" lon="-1.882334">
        <ele>1189.459</ele>
        <time>2021-09-08T12:53:33Z</time>
      </trkpt>
      <trkpt lat="40.217754" lon="-1.882268">
        <ele>1188.403</ele>
        <time>2021-09-08T12:53:45Z</time>
      </trkpt>
      <trkpt lat="40.216876" lon="-1.882697">
        <ele>1189.723</ele>
        <time>2021-09-08T12:54:07Z</time>
      </trkpt>
      <trkpt lat="40.216498" lon="-1.882555">
        <ele>1189.608</ele>
        <time>2021-09-08T12:54:17Z</time>
      </trkpt>
      <trkpt lat="40.215425" lon="-1.879980">
        <ele>1187.163</ele>
        <time>2021-09-08T12:55:02Z</time>
      </trkpt>
      <trkpt lat="40.213686" lon="-1.878097">
        <ele>1187.238</ele>
        <time>2021-09-08T12:55:48Z</time>
      </trkpt>
      <trkpt lat="40.212864" lon="-1.876617">
        <ele>1188.299</ele>
        <time>2021-09-08T12:56:20Z</time>
      </trkpt>
      <trkpt lat="40.212220" lon="-1.874782">
        <ele>1194.351</ele>
        <time>2021-09-08T12:57:22Z</time>
      </trkpt>
      <trkpt lat="40.211688" lon="-1.873973">
        <ele>1200.389</ele>
        <time>2021-09-08T12:58:03Z</time>
      </trkpt>
      <trkpt lat="40.211608" lon="-1.873111">
        <ele>1203.875</ele>
        <time>2021-09-08T12:58:34Z</time>
      </trkpt>
      <trkpt lat="40.212763" lon="-1.868976">
        <ele>1196.873</ele>
        <time>2021-09-08T12:59:25Z</time>
      </trkpt>
      <trkpt lat="40.212625" lon="-1.866652">
        <ele>1193.765</ele>
        <time>2021-09-08T12:59:53Z</time>
      </trkpt>
      <trkpt lat="40.212067" lon="-1.864017">
        <ele>1194.158</ele>
        <time>2021-09-08T13:00:31Z</time>
      </trkpt>
      <trkpt lat="40.212337" lon="-1.862466">
        <ele>1195.252</ele>
        <time>2021-09-08T13:00:56Z</time>
      </trkpt>
      <trkpt lat="40.213133" lon="-1.861036">
        <ele>1196.317</ele>
        <time>2021-09-08T13:01:25Z</time>
      </trkpt>
      <trkpt lat="40.213095" lon="-1.858831">
        <ele>1195.108</ele>
        <time>2021-09-08T13:01:58Z</time>
      </trkpt>
      <trkpt lat="40.213394" lon="-1.857926">
        <ele>1193.593</ele>
        <time>2021-09-08T13:02:08Z</time>
      </trkpt>
      <trkpt lat="40.216430" lon="-1.855449">
        <ele>1188.328</ele>
        <time>2021-09-08T13:03:02Z</time>
      </trkpt>
      <trkpt lat="40.216700" lon="-1.854270">
        <ele>1188.559</ele>
        <time>2021-09-08T13:03:18Z</time>
      </trkpt>
      <trkpt lat="40.216455" lon="-1.852946">
        <ele>1187.821</ele>
        <time>2021-09-08T13:03:37Z</time>
      </trkpt>
      <trkpt lat="40.216635" lon="-1.852356">
        <ele>1188.239</ele>
        <time>2021-09-08T13:03:46Z</time>
      </trkpt>
      <trkpt lat="40.216580" lon="-1.851315">
        <ele>1190.335</ele>
        <time>2021-09-08T13:04:05Z</time>
      </trkpt>
      <trkpt lat="40.216738" lon="-1.850898">
        <ele>1190.763</ele>
        <time>2021-09-08T13:04:13Z</time>
      </trkpt>
      <trkpt lat="40.217166" lon="-1.850620">
        <ele>1190.015</ele>
        <time>2021-09-08T13:04:23Z</time>
      </trkpt>
      <trkpt lat="40.218150" lon="-1.850961">
        <ele>1187.866</ele>
        <time>2021-09-08T13:04:39Z</time>
      </trkpt>
      <trkpt lat="40.219136" lon="-1.850669">
        <ele>1188.829</ele>
        <time>2021-09-08T13:04:58Z</time>
      </trkpt>
      <trkpt lat="40.222267" lon="-1.848724">
        <ele>1188.521</ele>
        <time>2021-09-08T13:06:14Z</time>
      </trkpt>
      <trkpt lat="40.222984" lon="-1.847769">
        <ele>1190.808</ele>
        <time>2021-09-08T13:06:44Z</time>
      </trkpt>
      <trkpt lat="40.223437" lon="-1.846329">
        <ele>1194.974</ele>
        <time>2021-09-08T13:07:24Z</time>
      </trkpt>
      <trkpt lat="40.224085" lon="-1.845421">
        <ele>1196.549</ele>
        <time>2021-09-08T13:08:00Z</time>
      </trkpt>
      <trkpt lat="40.224426" lon="-1.844524">
        <ele>1194.960</ele>
        <time>2021-09-08T13:08:18Z</time>
      </trkpt>
      <trkpt lat="40.224026" lon="-1.842482">
        <ele>1195.942</ele>
        <time>2021-09-08T13:09:07Z</time>
      </trkpt>
      <trkpt lat="40.222210" lon="-1.841528">
        <ele>1203.360</ele>
        <time>2021-09-08T13:10:29Z</time>
      </trkpt>
      <trkpt lat="40.216906" lon="-1.842105">
        <ele>1215.736</ele>
        <time>2021-09-08T13:13:30Z</time>
      </trkpt>
      <trkpt lat="40.215905" lon="-1.841817">
        <ele>1213.364</ele>
        <time>2021-09-08T13:13:49Z</time>
      </trkpt>
      <trkpt lat="40.214064" lon="-1.841812">
        <ele>1212.666</ele>
        <time>2021-09-08T13:14:26Z</time>
      </trkpt>
      <trkpt lat="40.213628" lon="-1.842031">
        <ele>1213.391</ele>
        <time>2021-09-08T13:14:42Z</time>
      </trkpt>
      <trkpt lat="40.212803" lon="-1.843208">
        <ele>1222.681</ele>
        <time>2021-09-08T13:15:45Z</time>
      </trkpt>
      <trkpt lat="40.211747" lon="-1.843398">
        <ele>1228.319</ele>
        <time>2021-09-08T13:16:41Z</time>
      </trkpt>
      <trkpt lat="40.211210" lon="-1.843861">
        <ele>1232.308</ele>
        <time>2021-09-08T13:17:14Z</time>
      </trkpt>
      <trkpt lat="40.211066" lon="-1.843762">
        <ele>1234.577</ele>
        <time>2021-09-08T13:17:24Z</time>
      </trkpt>
      <trkpt lat="40.211514" lon="-1.843057">
        <ele>1238.562</ele>
        <time>2021-09-08T13:18:00Z</time>
      </trkpt>
      <trkpt lat="40.212374" lon="-1.842629">
        <ele>1240.953</ele>
        <time>2021-09-08T13:18:39Z</time>
      </trkpt>
      <trkpt lat="40.212271" lon="-1.842297">
        <ele>1244.265</ele>
        <time>2021-09-08T13:18:54Z</time>
      </trkpt>
      <trkpt lat="40.210863" lon="-1.843140">
        <ele>1251.483</ele>
        <time>2021-09-08T13:19:56Z</time>
      </trkpt>
      <trkpt lat="40.210446" lon="-1.843187">
        <ele>1253.349</ele>
        <time>2021-09-08T13:20:17Z</time>
      </trkpt>
      <trkpt lat="40.209788" lon="-1.843828">
        <ele>1260.597</ele>
        <time>2021-09-08T13:21:05Z</time>
      </trkpt>
      <trkpt lat="40.208827" lon="-1.843427">
        <ele>1267.599</ele>
        <time>2021-09-08T13:22:05Z</time>
      </trkpt>
      <trkpt lat="40.207740" lon="-1.843505">
        <ele>1276.049</ele>
        <time>2021-09-08T13:23:12Z</time>
      </trkpt>
      <trkpt lat="40.206196" lon="-1.842621">
        <ele>1284.502</ele>
        <time>2021-09-08T13:24:31Z</time>
      </trkpt>
      <trkpt lat="40.205665" lon="-1.841427">
        <ele>1281.222</ele>
        <time>2021-09-08T13:24:49Z</time>
      </trkpt>
      <trkpt lat="40.204690" lon="-1.840422">
        <ele>1279.608</ele>
        <time>2021-09-08T13:25:06Z</time>
      </trkpt>
      <trkpt lat="40.202920" lon="-1.840725">
        <ele>1275.892</ele>
        <time>2021-09-08T13:25:31Z</time>
      </trkpt>
      <trkpt lat="40.201932" lon="-1.841401">
        <ele>1272.277</ele>
        <time>2021-09-08T13:25:43Z</time>
      </trkpt>
      <trkpt lat="40.198842" lon="-1.841518">
        <ele>1274.188</ele>
        <time>2021-09-08T13:26:53Z</time>
      </trkpt>
      <trkpt lat="40.197741" lon="-1.840697">
        <ele>1276.250</ele>
        <time>2021-09-08T13:27:35Z</time>
      </trkpt>
      <trkpt lat="40.195808" lon="-1.839906">
        <ele>1279.538</ele>
        <time>2021-09-08T13:28:56Z</time>
      </trkpt>
      <trkpt lat="40.193816" lon="-1.839711">
        <ele>1286.474</ele>
        <time>2021-09-08T13:30:23Z</time>
      </trkpt>
      <trkpt lat="40.192972" lon="-1.839361">
        <ele>1287.822</ele>
        <time>2021-09-08T13:31:00Z</time>
      </trkpt>
      <trkpt lat="40.191849" lon="-1.837841">
        <ele>1293.474</ele>
        <time>2021-09-08T13:32:16Z</time>
      </trkpt>
      <trkpt lat="40.189502" lon="-1.836650">
        <ele>1296.947</ele>
        <time>2021-09-08T13:33:50Z</time>
      </trkpt>
      <trkpt lat="40.188377" lon="-1.836427">
        <ele>1298.129</ele>
        <time>2021-09-08T13:34:16Z</time>
      </trkpt>
      <trkpt lat="40.187301" lon="-1.833294">
        <ele>1314.621</ele>
        <time>2021-09-08T13:36:39Z</time>
      </trkpt>
      <trkpt lat="40.187492" lon="-1.831904">
        <ele>1321.508</ele>
        <time>2021-09-08T13:37:51Z</time>
      </trkpt>
      <trkpt lat="40.187323" lon="-1.830788">
        <ele>1329.492</ele>
        <time>2021-09-08T13:38:53Z</time>
      </trkpt>
      <trkpt lat="40.186361" lon="-1.829282">
        <ele>1336.427</ele>
        <time>2021-09-08T13:40:52Z</time>
      </trkpt>
      <trkpt lat="40.185974" lon="-1.828228">
        <ele>1339.548</ele>
        <time>2021-09-08T13:42:31Z</time>
      </trkpt>
      <trkpt lat="40.186047" lon="-1.828733">
        <ele>1342.130</ele>
        <time>2021-09-08T15:02:57Z</time>
      </trkpt>
      <trkpt lat="40.186017" lon="-1.827942">
        <ele>1346.638</ele>
        <time>2021-09-08T15:04:09Z</time>
      </trkpt>
      <trkpt lat="40.185286" lon="-1.826710">
        <ele>1346.034</ele>
        <time>2021-09-08T15:05:27Z</time>
      </trkpt>
      <trkpt lat="40.185255" lon="-1.826047">
        <ele>1349.612</ele>
        <time>2021-09-08T15:06:05Z</time>
      </trkpt>
      <trkpt lat="40.184796" lon="-1.825308">
        <ele>1351.444</ele>
        <time>2021-09-08T15:06:51Z</time>
      </trkpt>
      <trkpt lat="40.184268" lon="-1.823484">
        <ele>1355.852</ele>
        <time>2021-09-08T15:08:14Z</time>
      </trkpt>
      <trkpt lat="40.182488" lon="-1.820324">
        <ele>1364.053</ele>
        <time>2021-09-08T15:10:47Z</time>
      </trkpt>
      <trkpt lat="40.181073" lon="-1.818811">
        <ele>1378.508</ele>
        <time>2021-09-08T15:12:47Z</time>
      </trkpt>
      <trkpt lat="40.179638" lon="-1.818155">
        <ele>1393.708</ele>
        <time>2021-09-08T15:14:25Z</time>
      </trkpt>
      <trkpt lat="40.178197" lon="-1.816450">
        <ele>1397.283</ele>
        <time>2021-09-08T15:16:25Z</time>
      </trkpt>
      <trkpt lat="40.177232" lon="-1.816145">
        <ele>1393.738</ele>
        <time>2021-09-08T15:16:40Z</time>
      </trkpt>
      <trkpt lat="40.172528" lon="-1.816912">
        <ele>1350.519</ele>
        <time>2021-09-08T15:17:24Z</time>
      </trkpt>
      <trkpt lat="40.170737" lon="-1.816661">
        <ele>1339.911</ele>
        <time>2021-09-08T15:17:44Z</time>
      </trkpt>
      <trkpt lat="40.168069" lon="-1.815851">
        <ele>1330.939</ele>
        <time>2021-09-08T15:18:30Z</time>
      </trkpt>
      <trkpt lat="40.165665" lon="-1.814119">
        <ele>1325.495</ele>
        <time>2021-09-08T15:19:28Z</time>
      </trkpt>
      <trkpt lat="40.164095" lon="-1.814367">
        <ele>1322.243</ele>
        <time>2021-09-08T15:19:50Z</time>
      </trkpt>
      <trkpt lat="40.161665" lon="-1.813414">
        <ele>1315.575</ele>
        <time>2021-09-08T15:20:56Z</time>
      </trkpt>
      <trkpt lat="40.160625" lon="-1.812728">
        <ele>1314.258</ele>
        <time>2021-09-08T15:21:27Z</time>
      </trkpt>
      <trkpt lat="40.156921" lon="-1.811381">
        <ele>1306.952</ele>
        <time>2021-09-08T15:22:30Z</time>
      </trkpt>
      <trkpt lat="40.155767" lon="-1.810760">
        <ele>1306.217</ele>
        <time>2021-09-08T15:22:52Z</time>
      </trkpt>
      <trkpt lat="40.155435" lon="-1.809261">
        <ele>1299.108</ele>
        <time>2021-09-08T15:23:07Z</time>
      </trkpt>
      <trkpt lat="40.154719" lon="-1.808712">
        <ele>1295.053</ele>
        <time>2021-09-08T15:23:22Z</time>
      </trkpt>
      <trkpt lat="40.154729" lon="-1.808388">
        <ele>1294.928</ele>
        <time>2021-09-08T15:23:27Z</time>
      </trkpt>
      <trkpt lat="40.155278" lon="-1.807413">
        <ele>1281.279</ele>
        <time>2021-09-08T15:23:47Z</time>
      </trkpt>
      <trkpt lat="40.154923" lon="-1.806854">
        <ele>1277.481</ele>
        <time>2021-09-08T15:23:56Z</time>
      </trkpt>
      <trkpt lat="40.154375" lon="-1.804704">
        <ele>1271.519</ele>
        <time>2021-09-08T15:24:39Z</time>
      </trkpt>
      <trkpt lat="40.153914" lon="-1.804186">
        <ele>1274.045</ele>
        <time>2021-09-08T15:24:57Z</time>
      </trkpt>
      <trkpt lat="40.153533" lon="-1.803183">
        <ele>1269.043</ele>
        <time>2021-09-08T15:25:08Z</time>
      </trkpt>
      <trkpt lat="40.152876" lon="-1.802441">
        <ele>1264.875</ele>
        <time>2021-09-08T15:25:22Z</time>
      </trkpt>
      <trkpt lat="40.152573" lon="-1.802519">
        <ele>1264.587</ele>
        <time>2021-09-08T15:25:28Z</time>
      </trkpt>
      <trkpt lat="40.152351" lon="-1.802896">
        <ele>1263.242</ele>
        <time>2021-09-08T15:25:34Z</time>
      </trkpt>
      <trkpt lat="40.151949" lon="-1.803055">
        <ele>1263.026</ele>
        <time>2021-09-08T15:25:41Z</time>
      </trkpt>
      <trkpt lat="40.151502" lon="-1.802454">
        <ele>1264.708</ele>
        <time>2021-09-08T15:25:57Z</time>
      </trkpt>
      <trkpt lat="40.151180" lon="-1.799252">
        <ele>1272.016</ele>
        <time>2021-09-08T15:27:22Z</time>
      </trkpt>
      <trkpt lat="40.151220" lon="-1.797873">
        <ele>1281.491</ele>
        <time>2021-09-08T15:28:27Z</time>
      </trkpt>
      <trkpt lat="40.150826" lon="-1.795853">
        <ele>1289.472</ele>
        <time>2021-09-08T15:29:56Z</time>
      </trkpt>
      <trkpt lat="40.149840" lon="-1.794278">
        <ele>1295.394</ele>
        <time>2021-09-08T15:31:03Z</time>
      </trkpt>
      <trkpt lat="40.148237" lon="-1.792897">
        <ele>1299.222</ele>
        <time>2021-09-08T15:32:19Z</time>
      </trkpt>
      <trkpt lat="40.146703" lon="-1.791036">
        <ele>1291.828</ele>
        <time>2021-09-08T15:32:45Z</time>
      </trkpt>
      <trkpt lat="40.146367" lon="-1.790044">
        <ele>1286.756</ele>
        <time>2021-09-08T15:32:53Z</time>
      </trkpt>
      <trkpt lat="40.146719" lon="-1.789133">
        <ele>1284.368</ele>
        <time>2021-09-08T15:33:05Z</time>
      </trkpt>
      <trkpt lat="40.146513" lon="-1.788714">
        <ele>1283.942</ele>
        <time>2021-09-08T15:33:12Z</time>
      </trkpt>
      <trkpt lat="40.144334" lon="-1.788050">
        <ele>1271.922</ele>
        <time>2021-09-08T15:33:36Z</time>
      </trkpt>
      <trkpt lat="40.142985" lon="-1.786818">
        <ele>1263.514</ele>
        <time>2021-09-08T15:33:54Z</time>
      </trkpt>
      <trkpt lat="40.139577" lon="-1.786472">
        <ele>1232.408</ele>
        <time>2021-09-08T15:34:26Z</time>
      </trkpt>
      <trkpt lat="40.138612" lon="-1.785803">
        <ele>1227.892</ele>
        <time>2021-09-08T15:34:38Z</time>
      </trkpt>
      <trkpt lat="40.137728" lon="-1.785635">
        <ele>1224.487</ele>
        <time>2021-09-08T15:34:47Z</time>
      </trkpt>
      <trkpt lat="40.136727" lon="-1.785130">
        <ele>1218.128</ele>
        <time>2021-09-08T15:34:57Z</time>
      </trkpt>
      <trkpt lat="40.134867" lon="-1.784704">
        <ele>1210.190</ele>
        <time>2021-09-08T15:35:16Z</time>
      </trkpt>
      <trkpt lat="40.133033" lon="-1.783927">
        <ele>1206.828</ele>
        <time>2021-09-08T15:35:42Z</time>
      </trkpt>
      <trkpt lat="40.131474" lon="-1.782899">
        <ele>1203.414</ele>
        <time>2021-09-08T15:36:07Z</time>
      </trkpt>
      <trkpt lat="40.130871" lon="-1.781476">
        <ele>1201.362</ele>
        <time>2021-09-08T15:36:22Z</time>
      </trkpt>
      <trkpt lat="40.129897" lon="-1.780549">
        <ele>1198.214</ele>
        <time>2021-09-08T15:36:40Z</time>
      </trkpt>
      <trkpt lat="40.128167" lon="-1.780446">
        <ele>1192.159</ele>
        <time>2021-09-08T15:37:08Z</time>
      </trkpt>
      <trkpt lat="40.126173" lon="-1.781066">
        <ele>1183.903</ele>
        <time>2021-09-08T15:40:09Z</time>
      </trkpt>
      <trkpt lat="40.125591" lon="-1.781516">
        <ele>1182.123</ele>
        <time>2021-09-08T15:40:19Z</time>
      </trkpt>
      <trkpt lat="40.123319" lon="-1.782352">
        <ele>1176.108</ele>
        <time>2021-09-08T15:41:01Z</time>
      </trkpt>
      <trkpt lat="40.122583" lon="-1.783380">
        <ele>1166.573</ele>
        <time>2021-09-08T15:41:13Z</time>
      </trkpt>
      <trkpt lat="40.122073" lon="-1.783614">
        <ele>1162.198</ele>
        <time>2021-09-08T15:41:19Z</time>
      </trkpt>
      <trkpt lat="40.121665" lon="-1.783086">
        <ele>1159.339</ele>
        <time>2021-09-08T15:41:28Z</time>
      </trkpt>
      <trkpt lat="40.120179" lon="-1.782233">
        <ele>1159.811</ele>
        <time>2021-09-08T15:41:54Z</time>
      </trkpt>
      <trkpt lat="40.119303" lon="-1.781993">
        <ele>1157.299</ele>
        <time>2021-09-08T15:42:06Z</time>
      </trkpt>
      <trkpt lat="40.118053" lon="-1.782009">
        <ele>1153.295</ele>
        <time>2021-09-08T15:42:24Z</time>
      </trkpt>
      <trkpt lat="40.117133" lon="-1.781219">
        <ele>1157.073</ele>
        <time>2021-09-08T15:42:56Z</time>
      </trkpt>
      <trkpt lat="40.116371" lon="-1.779227">
        <ele>1158.315</ele>
        <time>2021-09-08T15:45:19Z</time>
      </trkpt>
      <trkpt lat="40.114945" lon="-1.778384">
        <ele>1157.134</ele>
        <time>2021-09-08T15:45:57Z</time>
      </trkpt>
      <trkpt lat="40.112867" lon="-1.775560">
        <ele>1145.055</ele>
        <time>2021-09-08T15:46:37Z</time>
      </trkpt>
      <trkpt lat="40.111584" lon="-1.774866">
        <ele>1140.710</ele>
        <time>2021-09-08T15:46:53Z</time>
      </trkpt>
      <trkpt lat="40.110367" lon="-1.773548">
        <ele>1135.408</ele>
        <time>2021-09-08T15:47:12Z</time>
      </trkpt>
      <trkpt lat="40.109295" lon="-1.771675">
        <ele>1133.151</ele>
        <time>2021-09-08T15:47:48Z</time>
      </trkpt>
      <trkpt lat="40.107846" lon="-1.770891">
        <ele>1135.596</ele>
        <time>2021-09-08T15:48:31Z</time>
      </trkpt>
      <trkpt lat="40.105953" lon="-1.770639">
        <ele>1130.137</ele>
        <time>2021-09-08T15:49:07Z</time>
      </trkpt>
      <trkpt lat="40.103581" lon="-1.769252">
        <ele>1126.839</ele>
        <time>2021-09-08T15:50:01Z</time>
      </trkpt>
      <trkpt lat="40.101431" lon="-1.768562">
        <ele>1124.647</ele>
        <time>2021-09-08T15:51:03Z</time>
      </trkpt>
      <trkpt lat="40.101378" lon="-1.767559">
        <ele>1129.733</ele>
        <time>2021-09-08T15:52:17Z</time>
      </trkpt>
      <trkpt lat="40.101178" lon="-1.767100">
        <ele>1130.381</ele>
        <time>2021-09-08T15:53:17Z</time>
      </trkpt>
      <trkpt lat="40.101018" lon="-1.767134">
        <ele>1132.353</ele>
        <time>2021-09-08T16:31:30Z</time>
      </trkpt>
      <trkpt lat="40.100909" lon="-1.766483">
        <ele>1131.018</ele>
        <time>2021-09-08T16:31:48Z</time>
      </trkpt>
      <trkpt lat="40.100049" lon="-1.766226">
        <ele>1128.698</ele>
        <time>2021-09-08T16:32:02Z</time>
      </trkpt>
      <trkpt lat="40.099734" lon="-1.765758">
        <ele>1128.117</ele>
        <time>2021-09-08T16:32:14Z</time>
      </trkpt>
      <trkpt lat="40.099586" lon="-1.763384">
        <ele>1133.808</ele>
        <time>2021-09-08T16:33:38Z</time>
      </trkpt>
      <trkpt lat="40.101476" lon="-1.759514">
        <ele>1138.479</ele>
        <time>2021-09-08T16:35:57Z</time>
      </trkpt>
      <trkpt lat="40.101807" lon="-1.755765">
        <ele>1152.494</ele>
        <time>2021-09-08T16:40:36Z</time>
      </trkpt>
      <trkpt lat="40.101076" lon="-1.752933">
        <ele>1167.845</ele>
        <time>2021-09-08T16:42:53Z</time>
      </trkpt>
      <trkpt lat="40.100374" lon="-1.751044">
        <ele>1179.967</ele>
        <time>2021-09-08T16:44:30Z</time>
      </trkpt>
      <trkpt lat="40.099803" lon="-1.748171">
        <ele>1202.185</ele>
        <time>2021-09-08T16:47:01Z</time>
      </trkpt>
      <trkpt lat="40.099286" lon="-1.747140">
        <ele>1212.471</ele>
        <time>2021-09-08T16:48:03Z</time>
      </trkpt>
      <trkpt lat="40.099256" lon="-1.745900">
        <ele>1222.969</ele>
        <time>2021-09-08T16:49:05Z</time>
      </trkpt>
      <trkpt lat="40.098589" lon="-1.743156">
        <ele>1240.061</ele>
        <time>2021-09-08T16:51:36Z</time>
      </trkpt>
      <trkpt lat="40.098586" lon="-1.741586">
        <ele>1247.773</ele>
        <time>2021-09-08T16:52:45Z</time>
      </trkpt>
      <trkpt lat="40.097183" lon="-1.739073">
        <ele>1266.985</ele>
        <time>2021-09-08T16:55:17Z</time>
      </trkpt>
      <trkpt lat="40.097898" lon="-1.737162">
        <ele>1280.713</ele>
        <time>2021-09-08T16:57:02Z</time>
      </trkpt>
      <trkpt lat="40.097962" lon="-1.733738">
        <ele>1306.608</ele>
        <time>2021-09-08T17:00:11Z</time>
      </trkpt>
      <trkpt lat="40.098368" lon="-1.731568">
        <ele>1316.655</ele>
        <time>2021-09-08T17:01:51Z</time>
      </trkpt>
      <trkpt lat="40.097997" lon="-1.729890">
        <ele>1327.980</ele>
        <time>2021-09-08T17:03:15Z</time>
      </trkpt>
      <trkpt lat="40.098009" lon="-1.728841">
        <ele>1330.261</ele>
        <time>2021-09-08T17:04:03Z</time>
      </trkpt>
      <trkpt lat="40.097486" lon="-1.728006">
        <ele>1332.963</ele>
        <time>2021-09-08T17:04:44Z</time>
      </trkpt>
      <trkpt lat="40.096937" lon="-1.725249">
        <ele>1339.281</ele>
        <time>2021-09-08T17:06:33Z</time>
      </trkpt>
      <trkpt lat="40.096169" lon="-1.724479">
        <ele>1342.827</ele>
        <time>2021-09-08T17:07:23Z</time>
      </trkpt>
      <trkpt lat="40.095939" lon="-1.723359">
        <ele>1345.265</ele>
        <time>2021-09-08T17:08:08Z</time>
      </trkpt>
      <trkpt lat="40.094653" lon="-1.721297">
        <ele>1354.787</ele>
        <time>2021-09-08T17:09:56Z</time>
      </trkpt>
      <trkpt lat="40.094739" lon="-1.720724">
        <ele>1357.583</ele>
        <time>2021-09-08T17:10:20Z</time>
      </trkpt>
      <trkpt lat="40.095688" lon="-1.718405">
        <ele>1369.525</ele>
        <time>2021-09-08T17:12:15Z</time>
      </trkpt>
      <trkpt lat="40.095795" lon="-1.716651">
        <ele>1380.317</ele>
        <time>2021-09-08T17:13:42Z</time>
      </trkpt>
      <trkpt lat="40.097169" lon="-1.713648">
        <ele>1373.608</ele>
        <time>2021-09-08T17:15:29Z</time>
      </trkpt>
      <trkpt lat="40.097156" lon="-1.712565">
        <ele>1370.126</ele>
        <time>2021-09-08T17:15:38Z</time>
      </trkpt>
      <trkpt lat="40.095650" lon="-1.710007">
        <ele>1358.531</ele>
        <time>2021-09-08T17:15:59Z</time>
      </trkpt>
      <trkpt lat="40.093935" lon="-1.709280">
        <ele>1343.222</ele>
        <time>2021-09-08T17:16:16Z</time>
      </trkpt>
      <trkpt lat="40.093299" lon="-1.708448">
        <ele>1337.754</ele>
        <time>2021-09-08T17:16:24Z</time>
      </trkpt>
      <trkpt lat="40.092466" lon="-1.706449">
        <ele>1326.282</ele>
        <time>2021-09-08T17:16:37Z</time>
      </trkpt>
      <trkpt lat="40.091055" lon="-1.704297">
        <ele>1312.078</ele>
        <time>2021-09-08T17:16:55Z</time>
      </trkpt>
      <trkpt lat="40.091177" lon="-1.703707">
        <ele>1309.186</ele>
        <time>2021-09-08T17:17:00Z</time>
      </trkpt>
      <trkpt lat="40.091852" lon="-1.702765">
        <ele>1304.988</ele>
        <time>2021-09-08T17:17:10Z</time>
      </trkpt>
      <trkpt lat="40.092584" lon="-1.698775">
        <ele>1307.954</ele>
        <time>2021-09-08T17:18:04Z</time>
      </trkpt>
      <trkpt lat="40.093545" lon="-1.698400">
        <ele>1306.156</ele>
        <time>2021-09-08T17:18:17Z</time>
      </trkpt>
      <trkpt lat="40.095714" lon="-1.698811">
        <ele>1297.411</ele>
        <time>2021-09-08T17:18:39Z</time>
      </trkpt>
      <trkpt lat="40.097646" lon="-1.697696">
        <ele>1273.308</ele>
        <time>2021-09-08T17:19:06Z</time>
      </trkpt>
      <trkpt lat="40.098081" lon="-1.697806">
        <ele>1269.943</ele>
        <time>2021-09-08T17:19:14Z</time>
      </trkpt>
      <trkpt lat="40.098424" lon="-1.697364">
        <ele>1268.878</ele>
        <time>2021-09-08T17:19:27Z</time>
      </trkpt>
      <trkpt lat="40.098894" lon="-1.697433">
        <ele>1269.589</ele>
        <time>2021-09-08T17:19:36Z</time>
      </trkpt>
      <trkpt lat="40.099447" lon="-1.696772">
        <ele>1267.071</ele>
        <time>2021-09-08T17:19:51Z</time>
      </trkpt>
      <trkpt lat="40.101155" lon="-1.697088">
        <ele>1268.589</ele>
        <time>2021-09-08T17:21:06Z</time>
      </trkpt>
      <trkpt lat="40.101501" lon="-1.696805">
        <ele>1267.825</ele>
        <time>2021-09-08T17:21:22Z</time>
      </trkpt>
      <trkpt lat="40.101817" lon="-1.697185">
        <ele>1269.023</ele>
        <time>2021-09-08T17:21:41Z</time>
      </trkpt>
      <trkpt lat="40.102218" lon="-1.697015">
        <ele>1268.275</ele>
        <time>2021-09-08T17:23:32Z</time>
      </trkpt>
      <trkpt lat="40.102843" lon="-1.697576">
        <ele>1266.741</ele>
        <time>2021-09-08T17:23:46Z</time>
      </trkpt>
      <trkpt lat="40.103938" lon="-1.697847">
        <ele>1262.981</ele>
        <time>2021-09-08T17:24:00Z</time>
      </trkpt>
      <trkpt lat="40.105477" lon="-1.698837">
        <ele>1256.809</ele>
        <time>2021-09-08T17:24:18Z</time>
      </trkpt>
      <trkpt lat="40.106745" lon="-1.698853">
        <ele>1251.308</ele>
        <time>2021-09-08T17:24:34Z</time>
      </trkpt>
      <trkpt lat="40.107005" lon="-1.699078">
        <ele>1251.322</ele>
        <time>2021-09-08T17:24:43Z</time>
      </trkpt>
      <trkpt lat="40.109191" lon="-1.698489">
        <ele>1251.337</ele>
        <time>2021-09-08T17:25:43Z</time>
      </trkpt>
      <trkpt lat="40.114328" lon="-1.698254">
        <ele>1259.618</ele>
        <time>2021-09-08T17:28:11Z</time>
      </trkpt>
      <trkpt lat="40.115586" lon="-1.697801">
        <ele>1267.580</ele>
        <time>2021-09-08T17:29:20Z</time>
      </trkpt>
      <trkpt lat="40.117874" lon="-1.696557">
        <ele>1274.098</ele>
        <time>2021-09-08T17:31:13Z</time>
      </trkpt>
      <trkpt lat="40.120924" lon="-1.695952">
        <ele>1291.874</ele>
        <time>2021-09-08T17:33:54Z</time>
      </trkpt>
      <trkpt lat="40.122509" lon="-1.694570">
        <ele>1296.422</ele>
        <time>2021-09-08T17:35:21Z</time>
      </trkpt>
      <trkpt lat="40.123217" lon="-1.694385">
        <ele>1297.814</ele>
        <time>2021-09-08T17:35:48Z</time>
      </trkpt>
      <trkpt lat="40.123823" lon="-1.694528">
        <ele>1300.313</ele>
        <time>2021-09-08T17:36:20Z</time>
      </trkpt>
      <trkpt lat="40.127348" lon="-1.698244">
        <ele>1328.243</ele>
        <time>2021-09-08T17:40:38Z</time>
      </trkpt>
      <trkpt lat="40.130131" lon="-1.700150">
        <ele>1321.007</ele>
        <time>2021-09-08T17:41:31Z</time>
      </trkpt>
      <trkpt lat="40.131061" lon="-1.700429">
        <ele>1314.008</ele>
        <time>2021-09-08T17:41:39Z</time>
      </trkpt>
      <trkpt lat="40.133124" lon="-1.700146">
        <ele>1305.619</ele>
        <time>2021-09-08T17:41:58Z</time>
      </trkpt>
      <trkpt lat="40.138058" lon="-1.697103">
        <ele>1311.584</ele>
        <time>2021-09-08T17:44:20Z</time>
      </trkpt>
      <trkpt lat="40.139612" lon="-1.696652">
        <ele>1311.285</ele>
        <time>2021-09-08T17:44:57Z</time>
      </trkpt>
      <trkpt lat="40.140355" lon="-1.696165">
        <ele>1313.337</ele>
        <time>2021-09-08T17:45:21Z</time>
      </trkpt>
      <trkpt lat="40.141094" lon="-1.695287">
        <ele>1317.125</ele>
        <time>2021-09-08T17:46:01Z</time>
      </trkpt>
      <trkpt lat="40.141734" lon="-1.694074">
        <ele>1321.811</ele>
        <time>2021-09-08T17:46:46Z</time>
      </trkpt>
      <trkpt lat="40.142584" lon="-1.693438">
        <ele>1323.689</ele>
        <time>2021-09-08T17:47:29Z</time>
      </trkpt>
      <trkpt lat="40.143668" lon="-1.693353">
        <ele>1322.581</ele>
        <time>2021-09-08T17:47:53Z</time>
      </trkpt>
      <trkpt lat="40.144689" lon="-1.692782">
        <ele>1319.527</ele>
        <time>2021-09-08T17:48:08Z</time>
      </trkpt>
      <trkpt lat="40.145320" lon="-1.691904">
        <ele>1316.268</ele>
        <time>2021-09-08T17:48:19Z</time>
      </trkpt>
      <trkpt lat="40.145512" lon="-1.691274">
        <ele>1314.414</ele>
        <time>2021-09-08T17:48:24Z</time>
      </trkpt>
      <trkpt lat="40.145062" lon="-1.688942">
        <ele>1303.008</ele>
        <time>2021-09-08T17:48:47Z</time>
      </trkpt>
      <trkpt lat="40.145429" lon="-1.688288">
        <ele>1301.050</ele>
        <time>2021-09-08T17:48:57Z</time>
      </trkpt>
      <trkpt lat="40.146432" lon="-1.687525">
        <ele>1295.735</ele>
        <time>2021-09-08T17:49:16Z</time>
      </trkpt>
      <trkpt lat="40.146241" lon="-1.686634">
        <ele>1288.726</ele>
        <time>2021-09-08T17:49:34Z</time>
      </trkpt>
      <trkpt lat="40.146355" lon="-1.686400">
        <ele>1286.648</ele>
        <time>2021-09-08T17:49:40Z</time>
      </trkpt>
      <trkpt lat="40.147301" lon="-1.686824">
        <ele>1279.876</ele>
        <time>2021-09-08T17:50:04Z</time>
      </trkpt>
      <trkpt lat="40.148286" lon="-1.685597">
        <ele>1279.172</ele>
        <time>2021-09-08T17:50:40Z</time>
      </trkpt>
      <trkpt lat="40.149140" lon="-1.685316">
        <ele>1278.910</ele>
        <time>2021-09-08T17:51:06Z</time>
      </trkpt>
      <trkpt lat="40.149617" lon="-1.685871">
        <ele>1279.372</ele>
        <time>2021-09-08T17:51:29Z</time>
      </trkpt>
      <trkpt lat="40.151067" lon="-1.685752">
        <ele>1280.348</ele>
        <time>2021-09-08T17:54:33Z</time>
      </trkpt>
      <trkpt lat="40.153129" lon="-1.686347">
        <ele>1284.061</ele>
        <time>2021-09-08T17:55:41Z</time>
      </trkpt>
      <trkpt lat="40.153991" lon="-1.687274">
        <ele>1285.017</ele>
        <time>2021-09-08T17:56:15Z</time>
      </trkpt>
      <trkpt lat="40.154635" lon="-1.686314">
        <ele>1284.808</ele>
        <time>2021-09-08T17:56:35Z</time>
      </trkpt>
      <trkpt lat="40.155095" lon="-1.686130">
        <ele>1285.352</ele>
        <time>2021-09-08T17:56:47Z</time>
      </trkpt>
      <trkpt lat="40.155945" lon="-1.686495">
        <ele>1285.327</ele>
        <time>2021-09-08T17:57:17Z</time>
      </trkpt>
      <trkpt lat="40.157948" lon="-1.684982">
        <ele>1289.618</ele>
        <time>2021-09-08T17:58:30Z</time>
      </trkpt>
      <trkpt lat="40.159881" lon="-1.685123">
        <ele>1299.380</ele>
        <time>2021-09-08T17:59:54Z</time>
      </trkpt>
      <trkpt lat="40.160005" lon="-1.684797">
        <ele>1301.298</ele>
        <time>2021-09-08T18:00:12Z</time>
      </trkpt>
      <trkpt lat="40.159912" lon="-1.684051">
        <ele>1301.494</ele>
        <time>2021-09-08T18:00:34Z</time>
      </trkpt>
      <trkpt lat="40.160499" lon="-1.682573">
        <ele>1303.342</ele>
        <time>2021-09-08T18:01:20Z</time>
      </trkpt>
      <trkpt lat="40.161074" lon="-1.682149">
        <ele>1303.534</ele>
        <time>2021-09-08T18:01:40Z</time>
      </trkpt>
      <trkpt lat="40.161406" lon="-1.680874">
        <ele>1304.955</ele>
        <time>2021-09-08T18:02:10Z</time>
      </trkpt>
      <trkpt lat="40.162621" lon="-1.679649">
        <ele>1306.407</ele>
        <time>2021-09-08T18:02:56Z</time>
      </trkpt>
      <trkpt lat="40.164850" lon="-1.676726">
        <ele>1312.317</ele>
        <time>2021-09-08T18:04:40Z</time>
      </trkpt>
      <trkpt lat="40.165610" lon="-1.676402">
        <ele>1312.508</ele>
        <time>2021-09-08T18:05:01Z</time>
      </trkpt>
      <trkpt lat="40.170520" lon="-1.672919">
        <ele>1320.473</ele>
        <time>2021-09-08T18:08:05Z</time>
      </trkpt>
      <trkpt lat="40.171883" lon="-1.672914">
        <ele>1328.658</ele>
        <time>2021-09-08T18:09:12Z</time>
      </trkpt>
      <trkpt lat="40.175686" lon="-1.671635">
        <ele>1340.879</ele>
        <time>2021-09-08T18:12:05Z</time>
      </trkpt>
      <trkpt lat="40.176693" lon="-1.671921">
        <ele>1335.331</ele>
        <time>2021-09-08T18:14:32Z</time>
      </trkpt>
      <trkpt lat="40.146566005423665" lon="-1.687038978561759">
        <ele>1267.9110000000001</ele>
        <time>1998-04-24T18:31:17Z</time>
      </trkpt>
      <trkpt lat="40.146390991285443" lon="-1.68704099021852">
        <ele>1269.079</ele>
        <time>1998-04-24T18:15:31Z</time>
      </trkpt>
      <trkpt lat="40.146284960210323" lon="-1.686762040480971">
        <ele>1268.3309999999999</ele>
        <time>1998-04-24T18:15:15Z</time>
      </trkpt>
      <trkpt lat="40.146365007385612" lon="-1.686425004154444">
        <ele>1265.4190000000001</ele>
        <time>1998-04-24T18:13:22Z</time>
      </trkpt>
      <trkpt lat="40.147291040048003" lon="-1.686852984130383">
        <ele>1259.7080000000001</ele>
        <time>1998-04-24T18:09:57Z</time>
      </trkpt>
      <trkpt lat="40.148255964741111" lon="-1.685649007558823">
        <ele>1259.114</ele>
        <time>1998-04-24T18:09:30Z</time>
      </trkpt>
      <trkpt lat="40.148652009665966" lon="-1.685383971780539">
        <ele>1260.0129999999999</ele>
        <time>1998-04-24T18:09:22Z</time>
      </trkpt>
      <trkpt lat="40.149202030152082" lon="-1.685410961508751">
        <ele>1259.2719999999999</ele>
        <time>1998-04-24T18:09:12Z</time>
      </trkpt>
      <trkpt lat="40.149618024006486" lon="-1.685844976454973">
        <ele>1262.434</ele>
        <time>1998-04-24T18:09:02Z</time>
      </trkpt>
      <trkpt lat="40.151016963645816" lon="-1.685856962576509">
        <ele>1264.3430000000001</ele>
        <time>1998-04-24T18:08:39Z</time>
      </trkpt>
      <trkpt lat="40.152882020920515" lon="-1.686342023313046">
        <ele>1274.0899999999999</ele>
        <time>1998-04-24T18:08:07Z</time>
      </trkpt>
      <trkpt lat="40.153652988374233" lon="-1.68714702129364">
        <ele>1271.8710000000001</ele>
        <time>1998-04-24T18:07:48Z</time>
      </trkpt>
      <trkpt lat="40.154012991115451" lon="-1.687259003520012">
        <ele>1270.9760000000001</ele>
        <time>1998-04-24T18:07:39Z</time>
      </trkpt>
      <trkpt lat="40.154702989384532" lon="-1.686336994171143">
        <ele>1269.374</ele>
        <time>1998-04-24T18:07:21Z</time>
      </trkpt>
      <trkpt lat="40.154993003234267" lon="-1.686252001672983">
        <ele>1272.4459999999999</ele>
        <time>1998-04-24T18:07:16Z</time>
      </trkpt>
      <trkpt lat="40.155867990106344" lon="-1.68654402717948">
        <ele>1271.634</ele>
        <time>1998-04-24T18:07:02Z</time>
      </trkpt>
      <trkpt lat="40.157993976026773" lon="-1.685028998181224">
        <ele>1267.4079999999999</ele>
        <time>1998-04-24T18:06:30Z</time>
      </trkpt>
      <trkpt lat="40.159569019451737" lon="-1.685212980955839">
        <ele>1276.308</ele>
        <time>1998-04-24T18:06:14Z</time>
      </trkpt>
      <trkpt lat="40.159870013594627" lon="-1.685116002336144">
        <ele>1277.662</ele>
        <time>1998-04-24T18:06:09Z</time>
      </trkpt>
      <trkpt lat="40.159889962524176" lon="-1.684114029631019">
        <ele>1289.5219999999999</ele>
        <time>1998-04-24T18:05:54Z</time>
      </trkpt>
      <trkpt lat="40.160431014373899" lon="-1.682729003950954">
        <ele>1288.5889999999999</ele>
        <time>1998-04-24T18:05:32Z</time>
      </trkpt>
      <trkpt lat="40.161020010709763" lon="-1.68222701177001">
        <ele>1290.6780000000001</ele>
        <time>1998-04-24T18:05:19Z</time>
      </trkpt>
      <trkpt lat="40.16138001345098" lon="-1.680923961102963">
        <ele>1292.855</ele>
        <time>1998-04-24T18:05:01Z</time>
      </trkpt>
      <trkpt lat="40.162403024733067" lon="-1.67995098978281">
        <ele>1284.886</ele>
        <time>1998-04-24T18:04:44Z</time>
      </trkpt>
      <trkpt lat="40.164806032553315" lon="-1.676876004785299">
        <ele>1293.0409999999999</ele>
        <time>1998-04-24T18:03:45Z</time>
      </trkpt>
      <trkpt lat="40.165563002228737" lon="-1.67651298455894">
        <ele>1294.6189999999999</ele>
        <time>1998-04-24T18:03:30Z</time>
      </trkpt>
      <trkpt lat="40.170326018705964" lon="-1.67305301874876">
        <ele>1299.451</ele>
        <time>1998-04-24T18:02:04Z</time>
      </trkpt>
      <trkpt lat="40.171974990516901" lon="-1.672928966581821">
        <ele>1307.549</ele>
        <time>1998-04-24T18:01:46Z</time>
      </trkpt>
      <trkpt lat="40.1757119782269" lon="-1.671724990010262">
        <ele>1320.2080000000001</ele>
        <time>1998-04-24T18:00:26Z</time>
      </trkpt>
      <trkpt lat="40.176347997039557" lon="-1.671920958906412">
        <ele>1318.125</ele>
        <time>1998-04-24T17:59:27Z</time>
      </trkpt>
      <trkpt lat="40.176512030884624" lon="-1.672208039090037">
        <ele>1319.0050000000001</ele>
        <time>1998-04-24T17:59:08Z</time>
      </trkpt>
      <trkpt lat="40.17835202626884" lon="-1.673662969842553">
        <ele>1327.979</ele>
        <time>1998-04-24T17:55:04Z</time>
      </trkpt>
      <trkpt lat="40.17863399349153" lon="-1.673621982336044">
        <ele>1330.479</ele>
        <time>1998-04-24T17:55:00Z</time>
      </trkpt>
      <trkpt lat="40.18090900965035" lon="-1.6721719969064">
        <ele>1339.8579999999999</ele>
        <time>1998-04-24T17:54:01Z</time>
      </trkpt>
      <trkpt lat="40.18162096850574" lon="-1.671072961762548">
        <ele>1336.7249999999999</ele>
        <time>1998-04-24T17:53:31Z</time>
      </trkpt>
      <trkpt lat="40.181892039254308" lon="-1.670335019007325">
        <ele>1336.296</ele>
        <time>1998-04-24T17:52:50Z</time>
      </trkpt>
      <trkpt lat="40.182775994762778" lon="-1.67036896571517">
        <ele>1335.0309999999999</ele>
        <time>1998-04-24T17:52:22Z</time>
      </trkpt>
      <trkpt lat="40.183132980018854" lon="-1.670227982103825">
        <ele>1335.559</ele>
        <time>1998-04-24T17:52:14Z</time>
      </trkpt>
      <trkpt lat="40.183720970526338" lon="-1.669305972754955">
        <ele>1334.521</ele>
        <time>1998-04-24T17:51:47Z</time>
      </trkpt>
      <trkpt lat="40.183977037668228" lon="-1.668459987267852">
        <ele>1341.269</ele>
        <time>1998-04-24T17:49:59Z</time>
      </trkpt>
      <trkpt lat="40.18602498807013" lon="-1.666605994105339">
        <ele>1372.1079999999999</ele>
        <time>1998-04-24T17:48:21Z</time>
      </trkpt>
      <trkpt lat="40.187107007950544" lon="-1.66600601747632">
        <ele>1375.2190000000001</ele>
        <time>1998-04-24T17:47:08Z</time>
      </trkpt>
      <trkpt lat="40.188012002035975" lon="-1.663931999355555">
        <ele>1377.49</ele>
        <time>1998-04-24T17:41:06Z</time>
      </trkpt>
      <trkpt lat="40.187614029273391" lon="-1.662365002557635">
        <ele>1385.376</ele>
        <time>1998-04-24T17:40:18Z</time>
      </trkpt>
      <trkpt lat="40.187694998458028" lon="-1.66087000630796">
        <ele>1412.1099999999999</ele>
        <time>1998-04-24T17:39:46Z</time>
      </trkpt>
      <trkpt lat="40.187965985387564" lon="-1.659528985619545">
        <ele>1421.289</ele>
        <time>1998-04-24T17:39:00Z</time>
      </trkpt>
      <trkpt lat="40.188427995890379" lon="-1.658460041508079">
        <ele>1432.7360000000001</ele>
        <time>1998-04-24T17:38:26Z</time>
      </trkpt>
      <trkpt lat="40.188896963372827" lon="-1.656733034178615">
        <ele>1432.787</ele>
        <time>1998-04-24T17:37:45Z</time>
      </trkpt>
      <trkpt lat="40.190166989341378" lon="-1.656111013144255">
        <ele>1451.452</ele>
        <time>1998-04-24T17:36:06Z</time>
      </trkpt>
      <trkpt lat="40.190731007605791" lon="-1.654982976615429">
        <ele>1454.5599999999999</ele>
        <time>1998-04-24T17:34:11Z</time>
      </trkpt>
      <trkpt lat="40.191398961469531" lon="-1.65446799248457">
        <ele>1455.222</ele>
        <time>1998-04-24T17:31:25Z</time>
      </trkpt>
      <trkpt lat="40.19225500524044" lon="-1.654127016663551">
        <ele>1458.24</ele>
        <time>1998-04-24T17:29:56Z</time>
      </trkpt>
      <trkpt lat="40.192399006336927" lon="-1.653880001977086">
        <ele>1458.7080000000001</ele>
        <time>1998-04-24T17:29:44Z</time>
      </trkpt>
      <trkpt lat="40.192713998258114" lon="-1.653849994763732">
        <ele>1461.617</ele>
        <time>1998-04-24T17:27:13Z</time>
      </trkpt>
      <trkpt lat="40.192680973559618" lon="-1.653528967872262">
        <ele>1462.943</ele>
        <time>1998-04-24T17:27:02Z</time>
      </trkpt>
      <trkpt lat="40.191371971741319" lon="-1.652661021798849">
        <ele>1460.2819999999999</ele>
        <time>1998-04-24T17:25:58Z</time>
      </trkpt>
      <trkpt lat="40.192466983571649" lon="-1.653455961495638">
        <ele>1460.3389999999999</ele>
        <time>1998-04-24T17:25:28Z</time>
      </trkpt>
      <trkpt lat="40.192815000191331" lon="-1.653516981750727">
        <ele>1464.7380000000001</ele>
        <time>1998-04-24T17:25:23Z</time>
      </trkpt>
      <trkpt lat="40.195172997191548" lon="-1.651735994964838">
        <ele>1488.4649999999999</ele>
        <time>1998-04-24T17:24:43Z</time>
      </trkpt>
      <trkpt lat="40.195859977975488" lon="-1.650575017556548">
        <ele>1491.1559999999999</ele>
        <time>1998-04-24T17:24:31Z</time>
      </trkpt>
      <trkpt lat="40.196547964587808" lon="-1.649798015132546">
        <ele>1493.9110000000001</ele>
        <time>1998-04-24T17:24:18Z</time>
      </trkpt>
      <trkpt lat="40.197056997567415" lon="-1.648422041907907">
        <ele>1501.479</ele>
        <time>1998-04-24T17:24:04Z</time>
      </trkpt>
      <trkpt lat="40.198018988594413" lon="-1.646624961867929">
        <ele>1514.441</ele>
        <time>1998-04-24T17:23:45Z</time>
      </trkpt>
      <trkpt lat="40.197932990267873" lon="-1.643906962126494">
        <ele>1531.6990000000001</ele>
        <time>1998-04-24T17:23:21Z</time>
      </trkpt>
      <trkpt lat="40.196702023968101" lon="-1.64271698333323">
        <ele>1550.808</ele>
        <time>1998-04-24T17:23:08Z</time>
      </trkpt>
      <trkpt lat="40.196158960461617" lon="-1.641744012013078">
        <ele>1554.7249999999999</ele>
        <time>1998-04-24T17:23:00Z</time>
      </trkpt>
      <trkpt lat="40.195571975782514" lon="-1.641160966828466">
        <ele>1559.5050000000001</ele>
        <time>1998-04-24T17:22:54Z</time>
      </trkpt>
      <trkpt lat="40.195353962481022" lon="-1.640554033219814">
        <ele>1567.079</ele>
        <time>1998-04-24T17:22:50Z</time>
      </trkpt>
      <trkpt lat="40.195298977196217" lon="-1.638987036421895">
        <ele>1572.655</ele>
        <time>1998-04-24T17:22:42Z</time>
      </trkpt>
      <trkpt lat="40.195441972464323" lon="-1.637691026553512">
        <ele>1586.864</ele>
        <time>1998-04-24T17:22:34Z</time>
      </trkpt>
      <trkpt lat="40.195136032998562" lon="-1.635938035324216">
        <ele>1594.711</ele>
        <time>1998-04-24T17:19:11Z</time>
      </trkpt>
      <trkpt lat="40.19457302056253" lon="-1.63543101400137">
        <ele>1592.222</ele>
        <time>1998-04-24T17:18:25Z</time>
      </trkpt>
      <trkpt lat="40.194256016984582" lon="-1.634876970201731">
        <ele>1583.9469999999999</ele>
        <time>1998-04-24T17:17:47Z</time>
      </trkpt>
      <trkpt lat="40.193327972665429" lon="-1.634129974991083">
        <ele>1575.095</ele>
        <time>1998-04-24T17:16:20Z</time>
      </trkpt>
      <trkpt lat="40.192923964932561" lon="-1.633417010307312">
        <ele>1563.4970000000001</ele>
        <time>1998-04-24T17:15:11Z</time>
      </trkpt>
      <trkpt lat="40.1921880338341" lon="-1.632617963477969">
        <ele>1554.095</ele>
        <time>1998-04-24T17:13:30Z</time>
      </trkpt>
      <trkpt lat="40.190755985677242" lon="-1.631477018818259">
        <ele>1529.4079999999999</ele>
        <time>1998-04-24T17:09:23Z</time>
      </trkpt>
      <trkpt lat="40.190147962421179" lon="-1.630549980327487">
        <ele>1521.1099999999999</ele>
        <time>1998-04-24T17:07:30Z</time>
      </trkpt>
      <trkpt lat="40.189877981320024" lon="-1.629759985953569">
        <ele>1512.2550000000001</ele>
        <time>1998-04-24T17:06:19Z</time>
      </trkpt>
      <trkpt lat="40.190057018771768" lon="-1.628139009699225">
        <ele>1485.2339999999999</ele>
        <time>1998-04-24T17:03:49Z</time>
      </trkpt>
      <trkpt lat="40.19070896320045" lon="-1.627052966505289">
        <ele>1487.79</ele>
        <time>1998-04-24T17:03:38Z</time>
      </trkpt>
      <trkpt lat="40.195097979158163" lon="-1.625068970024586">
        <ele>1508.6189999999999</ele>
        <time>1998-04-24T17:01:53Z</time>
      </trkpt>
      <trkpt lat="40.195421017706394" lon="-1.624672003090382">
        <ele>1508.9960000000001</ele>
        <time>1998-04-24T17:01:26Z</time>
      </trkpt>
      <trkpt lat="40.195376006886363" lon="-1.624295990914106">
        <ele>1506.557</ele>
        <time>1998-04-24T17:01:02Z</time>
      </trkpt>
      <trkpt lat="40.193086992949247" lon="-1.622478039935231">
        <ele>1471.2619999999999</ele>
        <time>1998-04-24T16:56:42Z</time>
      </trkpt>
      <trkpt lat="40.19210496917367" lon="-1.620785985141993">
        <ele>1454.0799999999999</ele>
        <time>1998-04-24T16:53:42Z</time>
      </trkpt>
      <trkpt lat="40.19231803715229" lon="-1.620641984045506">
        <ele>1448.242</ele>
        <time>1998-04-24T16:53:17Z</time>
      </trkpt>
      <trkpt lat="40.193458981812" lon="-1.621244978159666">
        <ele>1441.0699999999999</ele>
        <time>1998-04-24T16:51:43Z</time>
      </trkpt>
      <trkpt lat="40.193695016205311" lon="-1.621078010648489">
        <ele>1436.7080000000001</ele>
        <time>1998-04-24T16:51:17Z</time>
      </trkpt>
      <trkpt lat="40.194160966202617" lon="-1.620086012408137">
        <ele>1425.317</ele>
        <time>1998-04-24T16:49:54Z</time>
      </trkpt>
      <trkpt lat="40.194399012252688" lon="-1.618944983929396">
        <ele>1421.789</ele>
        <time>1998-04-24T16:48:30Z</time>
      </trkpt>
      <trkpt lat="40.19427596591413" lon="-1.61865497007966">
        <ele>1419.885</ele>
        <time>1998-04-24T16:48:17Z</time>
      </trkpt>
      <trkpt lat="40.193708008155227" lon="-1.618154989555478">
        <ele>1414.479</ele>
        <time>1998-04-24T16:36:51Z</time>
      </trkpt>
      <trkpt lat="40.194288035854697" lon="-1.618179967626929">
        <ele>1417.2380000000001</ele>
        <time>1998-04-24T16:36:20Z</time>
      </trkpt>
      <trkpt lat="40.193991987034678" lon="-1.617381004616618">
        <ele>1415.395</ele>
        <time>1998-04-24T16:35:36Z</time>
      </trkpt>
      <trkpt lat="40.193953011184931" lon="-1.616797959432006">
        <ele>1410.7660000000001</ele>
        <time>1998-04-24T16:35:00Z</time>
      </trkpt>
      <trkpt lat="40.194941991940141" lon="-1.613287031650543">
        <ele>1402.211</ele>
        <time>1998-04-24T16:33:28Z</time>
      </trkpt>
      <trkpt lat="40.195630984380841" lon="-1.612149020656943">
        <ele>1409.779</ele>
        <time>1998-04-24T16:33:12Z</time>
      </trkpt>
      <trkpt lat="40.196232972666621" lon="-1.611821036785841">
        <ele>1410.5809999999999</ele>
        <time>1998-04-24T16:33:02Z</time>
      </trkpt>
      <trkpt lat="40.197966014966369" lon="-1.612837007269263">
        <ele>1418.299</ele>
        <time>1998-04-24T16:32:20Z</time>
      </trkpt>
      <trkpt lat="40.198924988508224" lon="-1.613705037161708">
        <ele>1419.1079999999999</ele>
        <time>1998-04-24T16:31:49Z</time>
      </trkpt>
      <trkpt lat="40.199598977342248" lon="-1.613333970308304">
        <ele>1422.021</ele>
        <time>1998-04-24T16:31:37Z</time>
      </trkpt>
      <trkpt lat="40.199930984526873" lon="-1.613351991400123">
        <ele>1423.6559999999999</ele>
        <time>1998-04-24T16:31:34Z</time>
      </trkpt>
      <trkpt lat="40.201874999329448" lon="-1.614844975993037">
        <ele>1445.174</ele>
        <time>1998-04-24T16:31:05Z</time>
      </trkpt>
      <trkpt lat="40.2029740344733" lon="-1.615405976772308">
        <ele>1452.8510000000001</ele>
        <time>1998-04-24T16:30:42Z</time>
      </trkpt>
      <trkpt lat="40.204258980229497" lon="-1.616931986063719">
        <ele>1456.6700000000001</ele>
        <time>1998-04-24T16:30:03Z</time>
      </trkpt>
      <trkpt lat="40.205070013180375" lon="-1.616931986063719">
        <ele>1456.0170000000001</ele>
        <time>1998-04-24T16:29:53Z</time>
      </trkpt>
      <trkpt lat="40.208925018087029" lon="-1.619265004992485">
        <ele>1499.548</ele>
        <time>1998-04-24T16:29:22Z</time>
      </trkpt>
      <trkpt lat="40.209545027464628" lon="-1.619185041636229">
        <ele>1510.6130000000001</ele>
        <time>1998-04-24T16:29:16Z</time>
      </trkpt>
      <trkpt lat="40.210354970768094" lon="-1.618577018380165">
        <ele>1523.681</ele>
        <time>1998-04-24T16:29:07Z</time>
      </trkpt>
      <trkpt lat="40.211330037564039" lon="-1.618298990651965">
        <ele>1540.2429999999999</ele>
        <time>1998-04-24T16:28:58Z</time>
      </trkpt>
      <trkpt lat="40.21206303499639" lon="-1.617529029026628">
        <ele>1550.8610000000001</ele>
        <time>1998-04-24T16:28:48Z</time>
      </trkpt>
      <trkpt lat="40.21305100992322" lon="-1.616800976917148">
        <ele>1555.9079999999999</ele>
        <time>1998-04-24T16:28:22Z</time>
      </trkpt>
      <trkpt lat="40.214273007586598" lon="-1.617141030728817">
        <ele>1557.4200000000001</ele>
        <time>1998-04-24T16:27:59Z</time>
      </trkpt>
      <trkpt lat="40.214408962056041" lon="-1.616885969415307">
        <ele>1555.673</ele>
        <time>1998-04-24T16:27:55Z</time>
      </trkpt>
      <trkpt lat="40.213363990187645" lon="-1.613149987533689">
        <ele>1566.492</ele>
        <time>1998-04-24T16:27:17Z</time>
      </trkpt>
      <trkpt lat="40.212586987763643" lon="-1.608043983578682">
        <ele>1579.588</ele>
        <time>1998-04-24T16:26:20Z</time>
      </trkpt>
      <trkpt lat="40.212122965604067" lon="-1.606433987617493">
        <ele>1582.0170000000001</ele>
        <time>1998-04-24T16:25:59Z</time>
      </trkpt>
      <trkpt lat="40.211151000112295" lon="-1.604633973911405">
        <ele>1582.9939999999999</ele>
        <time>1998-04-24T16:25:24Z</time>
      </trkpt>
      <trkpt lat="40.210108961910009" lon="-1.603094972670078">
        <ele>1580.355</ele>
        <time>1998-04-24T16:24:47Z</time>
      </trkpt>
      <trkpt lat="40.208966005593538" lon="-1.600500019267201">
        <ele>1580.96</ele>
        <time>1998-04-24T16:24:08Z</time>
      </trkpt>
      <trkpt lat="40.208339961245656" lon="-1.59976702183485">
        <ele>1583.038</ele>
        <time>1998-04-24T16:23:55Z</time>
      </trkpt>
      <trkpt lat="40.208244994282722" lon="-1.59942202270031">
        <ele>1588.6700000000001</ele>
        <time>1998-04-24T16:23:49Z</time>
      </trkpt>
      <trkpt lat="40.209112018346786" lon="-1.600264990702272">
        <ele>1584.9780000000001</ele>
        <time>1998-04-24T16:16:51Z</time>
      </trkpt>
      <trkpt lat="40.209987005218863" lon="-1.600860022008419">
        <ele>1580.008</ele>
        <time>1998-04-24T16:15:32Z</time>
      </trkpt>
      <trkpt lat="40.211736978963017" lon="-1.603267975151539">
        <ele>1580.018</ele>
        <time>1998-04-24T16:12:35Z</time>
      </trkpt>
      <trkpt lat="40.213362984359264" lon="-1.604575971141458">
        <ele>1559.944</ele>
        <time>1998-04-24T16:08:28Z</time>
      </trkpt>
      <trkpt lat="40.213907975703478" lon="-1.604455020278692">
        <ele>1540.2629999999999</ele>
        <time>1998-04-24T16:07:53Z</time>
      </trkpt>
      <trkpt lat="40.214363029226661" lon="-1.604775041341782">
        <ele>1544.28</ele>
        <time>1998-04-24T16:07:35Z</time>
      </trkpt>
      <trkpt lat="40.21519904024899" lon="-1.606122013181448">
        <ele>1550.559</ele>
        <time>1998-04-24T16:07:04Z</time>
      </trkpt>
      <trkpt lat="40.215592989698052" lon="-1.605983963236213">
        <ele>1539.046</ele>
        <time>1998-04-24T16:05:58Z</time>
      </trkpt>
      <trkpt lat="40.216846000403166" lon="-1.606459971517324">
        <ele>1537.337</ele>
        <time>1998-04-24T16:04:46Z</time>
      </trkpt>
      <trkpt lat="40.219087991863489" lon="-1.608707997947931">
        <ele>1514.752</ele>
        <time>1998-04-24T16:01:19Z</time>
      </trkpt>
      <trkpt lat="40.221309028565884" lon="-1.611666977405548">
        <ele>1493.02</ele>
        <time>1998-04-24T15:57:26Z</time>
      </trkpt>
      <trkpt lat="40.221858965232968" lon="-1.61199102178216">
        <ele>1485.992</ele>
        <time>1998-04-24T15:56:37Z</time>
      </trkpt>
      <trkpt lat="40.222039008513093" lon="-1.611861018463969">
        <ele>1482.5599999999999</ele>
        <time>1998-04-24T15:56:19Z</time>
      </trkpt>
      <trkpt lat="40.222086030989885" lon="-1.611472014337778">
        <ele>1478.7080000000001</ele>
        <time>1998-04-24T15:56:01Z</time>
      </trkpt>
      <trkpt lat="40.221899030730128" lon="-1.610885029658675">
        <ele>1479.817</ele>
        <time>1998-04-24T15:55:42Z</time>
      </trkpt>
      <trkpt lat="40.221530981361866" lon="-1.610455038025975">
        <ele>1486.789</ele>
        <time>1998-04-24T15:55:30Z</time>
      </trkpt>
      <trkpt lat="40.220091976225376" lon="-1.607862012460828">
        <ele>1486.2850000000001</ele>
        <time>1998-04-24T15:54:42Z</time>
      </trkpt>
      <trkpt lat="40.216228002682328" lon="-1.603497974574566">
        <ele>1458.2629999999999</ele>
        <time>1998-04-24T15:49:02Z</time>
      </trkpt>
      <trkpt lat="40.215953998267651" lon="-1.602789033204317">
        <ele>1446.912</ele>
        <time>1998-04-24T15:48:15Z</time>
      </trkpt>
      <trkpt lat="40.214246017858386" lon="-1.600954988971353">
        <ele>1425.299</ele>
        <time>1998-04-24T15:45:14Z</time>
      </trkpt>
      <trkpt lat="40.213816026225686" lon="-1.599741959944367">
        <ele>1416.49</ele>
        <time>1998-04-24T15:44:15Z</time>
      </trkpt>
      <trkpt lat="40.21300801075995" lon="-1.599017009139061">
        <ele>1419.915</ele>
        <time>1998-04-24T15:43:22Z</time>
      </trkpt>
      <trkpt lat="40.212907008826733" lon="-1.598006989806891">
        <ele>1405.9929999999999</ele>
        <time>1998-04-24T15:42:48Z</time>
      </trkpt>
      <trkpt lat="40.212378026917577" lon="-1.597074000164866">
        <ele>1407.7449999999999</ele>
        <time>1998-04-24T15:42:31Z</time>
      </trkpt>
      <trkpt lat="40.21199899725616" lon="-1.596702011302114">
        <ele>1410.953</ele>
        <time>1998-04-24T15:42:23Z</time>
      </trkpt>
      <trkpt lat="40.211586020886898" lon="-1.595579003915191">
        <ele>1409.7080000000001</ele>
        <time>1998-04-24T15:42:09Z</time>
      </trkpt>
      <trkpt lat="40.211057960987091" lon="-1.595080029219389">
        <ele>1409.107</ele>
        <time>1998-04-24T15:41:59Z</time>
      </trkpt>
      <trkpt lat="40.208855029195547" lon="-1.591676976531744">
        <ele>1421.2429999999999</ele>
        <time>1998-04-24T15:38:55Z</time>
      </trkpt>
      <trkpt lat="40.208250023424625" lon="-1.591027965769172">
        <ele>1416.8130000000001</ele>
        <time>1998-04-24T15:38:19Z</time>
      </trkpt>
      <trkpt lat="40.20718602463603" lon="-1.590622030198574">
        <ele>1418.2339999999999</ele>
        <time>1998-04-24T15:37:48Z</time>
      </trkpt>
      <trkpt lat="40.205676024779677" lon="-1.588548012077808">
        <ele>1406.0129999999999</ele>
        <time>1998-04-24T15:35:53Z</time>
      </trkpt>
      <trkpt lat="40.204976974055171" lon="-1.588167976588011">
        <ele>1403.26</ele>
        <time>1998-04-24T15:34:51Z</time>
      </trkpt>
      <trkpt lat="40.204293010756373" lon="-1.586764007806778">
        <ele>1390.3109999999999</ele>
        <time>1998-04-24T15:33:12Z</time>
      </trkpt>
      <trkpt lat="40.20366202108562" lon="-1.586171993985772">
        <ele>1391.356</ele>
        <time>1998-04-24T15:32:09Z</time>
      </trkpt>
      <trkpt lat="40.2032779622823" lon="-1.585024008527398">
        <ele>1372.654</ele>
        <time>1998-04-24T15:30:40Z</time>
      </trkpt>
      <trkpt lat="40.202850988134742" lon="-1.584484968334436">
        <ele>1372.356</ele>
        <time>1998-04-24T15:29:46Z</time>
      </trkpt>
      <trkpt lat="40.2038340177387" lon="-1.583399008959532">
        <ele>1346.5139999999999</ele>
        <time>1998-04-24T15:24:58Z</time>
      </trkpt>
      <trkpt lat="40.203950023278594" lon="-1.582288993522525">
        <ele>1336.308</ele>
        <time>1998-04-24T15:23:37Z</time>
      </trkpt>
      <trkpt lat="40.20600400865078" lon="-1.58068603836">
        <ele>1325.6199999999999</ele>
        <time>1998-04-24T15:21:10Z</time>
      </trkpt>
      <trkpt lat="40.206718984991312" lon="-1.579135973006487">
        <ele>1315.7</ele>
        <time>1998-04-24T15:19:54Z</time>
      </trkpt>
      <trkpt lat="40.206729965284467" lon="-1.577540980651975">
        <ele>1305.1289999999999</ele>
        <time>1998-04-24T15:18:52Z</time>
      </trkpt>
      <trkpt lat="40.208730977028608" lon="-1.575469980016351">
        <ele>1293.559</ele>
        <time>1998-04-24T15:16:51Z</time>
      </trkpt>
      <trkpt lat="40.209259036928415" lon="-1.575201004743576">
        <ele>1289.2380000000001</ele>
        <time>1998-04-24T15:16:23Z</time>
      </trkpt>
      <trkpt lat="40.210294034332037" lon="-1.575140990316868">
        <ele>1287.645</ele>
        <time>1998-04-24T15:15:51Z</time>
      </trkpt>
      <trkpt lat="40.211414024233818" lon="-1.575490012764931">
        <ele>1292.4659999999999</ele>
        <time>1998-04-24T15:15:18Z</time>
      </trkpt>
      <trkpt lat="40.211943006142974" lon="-1.575826965272427">
        <ele>1284.261</ele>
        <time>1998-04-24T15:14:58Z</time>
      </trkpt>
      <trkpt lat="40.212797038257122" lon="-1.575999967753887">
        <ele>1292.259</ele>
        <time>1998-04-24T15:14:19Z</time>
      </trkpt>
      <trkpt lat="40.21275102160871" lon="-1.575629990547895">
        <ele>1292.4110000000001</ele>
        <time>1998-04-24T15:14:14Z</time>
      </trkpt>
      <trkpt lat="40.211374964565039" lon="-1.57518801279366">
        <ele>1301.769</ele>
        <time>1998-04-24T15:13:53Z</time>
      </trkpt>
      <trkpt lat="40.210885964334011" lon="-1.574508994817734">
        <ele>1305.008</ele>
        <time>1998-04-24T15:13:38Z</time>
      </trkpt>
      <trkpt lat="40.210606008768082" lon="-1.573280040174723">
        <ele>1306.627</ele>
        <time>1998-04-24T15:13:15Z</time>
      </trkpt>
      <trkpt lat="40.21109702065587" lon="-1.572520975023508">
        <ele>1322.8610000000001</ele>
        <time>1998-04-24T15:12:26Z</time>
      </trkpt>
      <trkpt lat="40.211193999275565" lon="-1.57190197147429">
        <ele>1323.6769999999999</ele>
        <time>1998-04-24T15:12:18Z</time>
      </trkpt>
      <trkpt lat="40.210619000717998" lon="-1.571509027853608">
        <ele>1324.826</ele>
        <time>1998-04-24T15:12:09Z</time>
      </trkpt>
      <trkpt lat="40.210028998553753" lon="-1.570377973839641">
        <ele>1329.645</ele>
        <time>1998-04-24T15:11:55Z</time>
      </trkpt>
      <trkpt lat="40.208684960380197" lon="-1.569348005577922">
        <ele>1336.712</ele>
        <time>1998-04-24T15:11:33Z</time>
      </trkpt>
      <trkpt lat="40.208505000919104" lon="-1.568684997037053">
        <ele>1338.2829999999999</ele>
        <time>1998-04-24T15:11:22Z</time>
      </trkpt>
      <trkpt lat="40.208673980087042" lon="-1.568606961518526">
        <ele>1338.4179999999999</ele>
        <time>1998-04-24T15:11:18Z</time>
      </trkpt>
      <trkpt lat="40.210381960496306" lon="-1.56919302418828">
        <ele>1350.4459999999999</ele>
        <time>1998-04-24T15:10:46Z</time>
      </trkpt>
      <trkpt lat="40.210896022617817" lon="-1.568734031170607">
        <ele>1352.1479999999999</ele>
        <time>1998-04-24T15:10:36Z</time>
      </trkpt>
      <trkpt lat="40.211626002565026" lon="-1.568537978455424">
        <ele>1357.2260000000001</ele>
        <time>1998-04-24T15:10:25Z</time>
      </trkpt>
      <trkpt lat="40.212390013039112" lon="-1.568572008982301">
        <ele>1371.7080000000001</ele>
        <time>1998-04-24T15:07:45Z</time>
      </trkpt>
      <trkpt lat="40.213076993823051" lon="-1.568143023177981">
        <ele>1372.309</ele>
        <time>1998-04-24T15:07:34Z</time>
      </trkpt>
      <trkpt lat="40.21442698314786" lon="-1.569325961172581">
        <ele>1391.681</ele>
        <time>1998-04-24T15:05:53Z</time>
      </trkpt>
      <trkpt lat="40.215030983090401" lon="-1.569415982812643">
        <ele>1392.0409999999999</ele>
        <time>1998-04-24T15:05:44Z</time>
      </trkpt>
      <trkpt lat="40.215745959430933" lon="-1.568476958200336">
        <ele>1392.6590000000001</ele>
        <time>1998-04-24T15:05:18Z</time>
      </trkpt>
      <trkpt lat="40.215850984677672" lon="-1.566943991929293">
        <ele>1394.9580000000001</ele>
        <time>1998-04-24T15:04:39Z</time>
      </trkpt>
      <trkpt lat="40.216037984937429" lon="-1.566645009443164">
        <ele>1390.2149999999999</ele>
        <time>1998-04-24T15:04:17Z</time>
      </trkpt>
      <trkpt lat="40.215889038518071" lon="-1.56592701561749">
        <ele>1390.326</ele>
        <time>1998-04-24T15:03:34Z</time>
      </trkpt>
      <trkpt lat="40.21500600501895" lon="-1.563916029408574">
        <ele>1380.5709999999999</ele>
        <time>1998-04-24T15:01:50Z</time>
      </trkpt>
      <trkpt lat="40.214002020657063" lon="-1.562088020145893">
        <ele>1369.4490000000001</ele>
        <time>1998-04-24T14:59:12Z</time>
      </trkpt>
      <trkpt lat="40.213499022647738" lon="-1.560103017836809">
        <ele>1357.921</ele>
        <time>1998-04-24T14:57:14Z</time>
      </trkpt>
      <trkpt lat="40.212760996073484" lon="-1.558159003034234">
        <ele>1343.819</ele>
        <time>1998-04-24T14:55:20Z</time>
      </trkpt>
      <trkpt lat="40.21202196367085" lon="-1.556972041726112">
        <ele>1337.7080000000001</ele>
        <time>1998-04-24T14:54:04Z</time>
      </trkpt>
      <trkpt lat="40.211016973480582" lon="-1.555772004649043">
        <ele>1327.925</ele>
        <time>1998-04-24T14:52:06Z</time>
      </trkpt>
      <trkpt lat="40.211115963757038" lon="-1.555620040744543">
        <ele>1323.905</ele>
        <time>1998-04-24T14:51:46Z</time>
      </trkpt>
      <trkpt lat="40.212350031360984" lon="-1.555618029087782">
        <ele>1312.279</ele>
        <time>1998-04-24T14:48:00Z</time>
      </trkpt>
      <trkpt lat="40.212384983897209" lon="-1.555407978594303">
        <ele>1309.5260000000001</ele>
        <time>1998-04-24T14:47:43Z</time>
      </trkpt>
      <trkpt lat="40.211873017251492" lon="-1.554888971149921">
        <ele>1301.7550000000001</ele>
        <time>1998-04-24T14:46:52Z</time>
      </trkpt>
      <trkpt lat="40.21101102232933" lon="-1.554557969793677">
        <ele>1306.2719999999999</ele>
        <time>1998-04-24T14:45:46Z</time>
      </trkpt>
      <trkpt lat="40.210737017914653" lon="-1.55406704172492">
        <ele>1301.153</ele>
        <time>1998-04-24T14:44:59Z</time>
      </trkpt>
      <trkpt lat="40.211364990100265" lon="-1.553994035348296">
        <ele>1292.328</ele>
        <time>1998-04-24T14:43:50Z</time>
      </trkpt>
      <trkpt lat="40.212246011942625" lon="-1.553302025422454">
        <ele>1284.9860000000001</ele>
        <time>1998-04-24T14:42:15Z</time>
      </trkpt>
      <trkpt lat="40.212672986090183" lon="-1.552254036068916">
        <ele>1278.538</ele>
        <time>1998-04-24T14:41:15Z</time>
      </trkpt>
      <trkpt lat="40.214304020628333" lon="-1.549773998558521">
        <ele>1269.896</ele>
        <time>1998-04-24T14:39:43Z</time>
      </trkpt>
      <trkpt lat="40.214763013646007" lon="-1.549453977495432">
        <ele>1275.2080000000001</ele>
        <time>1998-04-24T14:38:57Z</time>
      </trkpt>
      <trkpt lat="40.214324975386262" lon="-1.549134040251374">
        <ele>1267.511</ele>
        <time>1998-04-24T14:38:11Z</time>
      </trkpt>
      <trkpt lat="40.214355988427997" lon="-1.54893203638494">
        <ele>1266.6469999999999</ele>
        <time>1998-04-24T14:23:38Z</time>
      </trkpt>
      <trkpt lat="40.214331010356545" lon="-1.549145020544529">
        <ele>1267.7449999999999</ele>
        <time>1998-04-24T14:23:28Z</time>
      </trkpt>
      <trkpt lat="40.215041963383555" lon="-1.549439979717135">
        <ele>1276.1289999999999</ele>
        <time>1998-04-24T14:17:41Z</time>
      </trkpt>
      <trkpt lat="40.215601958334446" lon="-1.54899699613452">
        <ele>1274.788</ele>
        <time>1998-04-24T14:17:05Z</time>
      </trkpt>
      <trkpt lat="40.217325026169419" lon="-1.548247989267111">
        <ele>1269.0350000000001</ele>
        <time>1998-04-24T14:16:26Z</time>
      </trkpt>
      <trkpt lat="40.221349010244012" lon="-1.549624968320131">
        <ele>1290.2260000000001</ele>
        <time>1998-04-24T14:15:29Z</time>
      </trkpt>
      <trkpt lat="40.221919985488057" lon="-1.549632009118795">
        <ele>1291.6310000000001</ele>
        <time>1998-04-24T14:15:22Z</time>
      </trkpt>
      <trkpt lat="40.222324999049306" lon="-1.549129011109471">
        <ele>1293.6590000000001</ele>
        <time>1998-04-24T14:15:12Z</time>
      </trkpt>
      <trkpt lat="40.222803018987179" lon="-1.547805005684495">
        <ele>1295.741</ele>
        <time>1998-04-24T14:14:56Z</time>
      </trkpt>
      <trkpt lat="40.222919024527073" lon="-1.545261014252901">
        <ele>1302.9590000000001</ele>
        <time>1998-04-24T14:14:15Z</time>
      </trkpt>
      <trkpt lat="40.223910016939044" lon="-1.543638026341796">
        <ele>1293.008</ele>
        <time>1998-04-24T14:13:04Z</time>
      </trkpt>
      <trkpt lat="40.224298015236855" lon="-1.543380031362176">
        <ele>1290.625</ele>
        <time>1998-04-24T14:12:57Z</time>
      </trkpt>
      <trkpt lat="40.224704034626484" lon="-1.542768990620971">
        <ele>1291.905</ele>
        <time>1998-04-24T14:12:50Z</time>
      </trkpt>
      <trkpt lat="40.225067976862192" lon="-1.5427450183779">
        <ele>1293.979</ele>
        <time>1998-04-24T14:12:46Z</time>
      </trkpt>
      <trkpt lat="40.225902982056141" lon="-1.543182972818613">
        <ele>1299.4459999999999</ele>
        <time>1998-04-24T14:12:36Z</time>
      </trkpt>
      <trkpt lat="40.226650983095169" lon="-1.542876027524471">
        <ele>1304.845</ele>
        <time>1998-04-24T14:09:28Z</time>
      </trkpt>
      <trkpt lat="40.227044010534883" lon="-1.542299017310143">
        <ele>1306.3720000000001</ele>
        <time>1998-04-24T14:09:05Z</time>
      </trkpt>
      <trkpt lat="40.22716898471117" lon="-1.541555961593986">
        <ele>1304.0429999999999</ele>
        <time>1998-04-24T14:07:59Z</time>
      </trkpt>
      <trkpt lat="40.227071000263095" lon="-1.542171025648713">
        <ele>1306.018</ele>
        <time>1998-04-24T14:07:47Z</time>
      </trkpt>
      <trkpt lat="40.226404974237084" lon="-1.543137039989233">
        <ele>1302.9659999999999</ele>
        <time>1998-04-24T14:07:35Z</time>
      </trkpt>
      <trkpt lat="40.226333979517221" lon="-1.543634003028274">
        <ele>1305.758</ele>
        <time>1998-04-24T14:07:30Z</time>
      </trkpt>
      <trkpt lat="40.226448979228735" lon="-1.543967016041279">
        <ele>1308.9860000000001</ele>
        <time>1998-04-24T14:07:26Z</time>
      </trkpt>
      <trkpt lat="40.227184994146228" lon="-1.544762039557099">
        <ele>1315.008</ele>
        <time>1998-04-24T14:07:12Z</time>
      </trkpt>
      <trkpt lat="40.227389009669423" lon="-1.545202005654573">
        <ele>1315.509</ele>
        <time>1998-04-24T14:07:07Z</time>
      </trkpt>
      <trkpt lat="40.22770400159061" lon="-1.547052981331945">
        <ele>1317.3810000000001</ele>
        <time>1998-04-24T14:06:52Z</time>
      </trkpt>
      <trkpt lat="40.228119995445013" lon="-1.54820398427546">
        <ele>1322.241</ele>
        <time>1998-04-24T14:06:42Z</time>
      </trkpt>
      <trkpt lat="40.231231022626162" lon="-1.55443400144577">
        <ele>1352.057</ele>
        <time>1998-04-24T14:05:43Z</time>
      </trkpt>
      <trkpt lat="40.232138028368354" lon="-1.556755034253001">
        <ele>1364.626</ele>
        <time>1998-04-24T14:05:25Z</time>
      </trkpt>
      <trkpt lat="40.232652006670833" lon="-1.558637022972107">
        <ele>1373.943</ele>
        <time>1998-04-24T14:05:12Z</time>
      </trkpt>
      <trkpt lat="40.233541997149587" lon="-1.563317980617285">
        <ele>1400.0440000000001</ele>
        <time>1998-04-24T14:04:25Z</time>
      </trkpt>
      <trkpt lat="40.233644004911184" lon="-1.563389981165528">
        <ele>1402.6189999999999</ele>
        <time>1998-04-24T14:04:19Z</time>
      </trkpt>
      <trkpt lat="40.233327001333237" lon="-1.560548013076186">
        <ele>1399.817</ele>
        <time>1998-04-24T14:03:25Z</time>
      </trkpt>
      <trkpt lat="40.233380980789661" lon="-1.558165960013866">
        <ele>1394.799</ele>
        <time>1998-04-24T14:02:37Z</time>
      </trkpt>
      <trkpt lat="40.23387098684907" lon="-1.557709984481335">
        <ele>1393.327</ele>
        <time>1998-04-24T13:44:48Z</time>
      </trkpt>
      <trkpt lat="40.233747018501163" lon="-1.557993963360786">
        <ele>1397.9079999999999</ele>
        <time>1998-04-24T13:44:34Z</time>
      </trkpt>
      <trkpt lat="40.234050024300814" lon="-1.558166965842247">
        <ele>1397.7139999999999</ele>
        <time>1998-04-24T13:44:25Z</time>
      </trkpt>
      <trkpt lat="40.234857033938169" lon="-1.558069987222552">
        <ele>1395.8040000000001</ele>
        <time>1998-04-24T13:44:09Z</time>
      </trkpt>
      <trkpt lat="40.23520203307271" lon="-1.558261010795832">
        <ele>1396.2529999999999</ele>
        <time>1998-04-24T13:43:56Z</time>
      </trkpt>
      <trkpt lat="40.235481988638639" lon="-1.558808013796806">
        <ele>1391.6099999999999</ele>
        <time>1998-04-24T13:43:41Z</time>
      </trkpt>
      <trkpt lat="40.236132005229592" lon="-1.561257038265467">
        <ele>1403.1590000000001</ele>
        <time>1998-04-24T13:43:04Z</time>
      </trkpt>
      <trkpt lat="40.237791035324335" lon="-1.564494967460632">
        <ele>1407.9559999999999</ele>
        <time>1998-04-24T13:41:45Z</time>
      </trkpt>
      <trkpt lat="40.238680019974709" lon="-1.564973993226886">
        <ele>1399.817</ele>
        <time>1998-04-24T13:40:53Z</time>
      </trkpt>
      <trkpt lat="40.239259963855147" lon="-1.566590024158359">
        <ele>1401.972</ele>
        <time>1998-04-24T13:39:50Z</time>
      </trkpt>
      <trkpt lat="40.240869959816337" lon="-1.567094027996063">
        <ele>1396.5599999999999</ele>
        <time>1998-04-24T13:39:20Z</time>
      </trkpt>
      <trkpt lat="40.243886020034552" lon="-1.569714965298772">
        <ele>1391.922</ele>
        <time>1998-04-24T13:36:41Z</time>
      </trkpt>
      <trkpt lat="40.244818003848195" lon="-1.570279989391565">
        <ele>1388.4100000000001</ele>
        <time>1998-04-24T13:35:10Z</time>
      </trkpt>
      <trkpt lat="40.245026964694262" lon="-1.569919986650348">
        <ele>1383.2080000000001</ele>
        <time>1998-04-24T13:34:39Z</time>
      </trkpt>
      <trkpt lat="40.244825966656208" lon="-1.56891499646008">
        <ele>1368.326</ele>
        <time>1998-04-24T13:33:25Z</time>
      </trkpt>
      <trkpt lat="40.244964016601443" lon="-1.567673971876502">
        <ele>1365.624</ele>
        <time>1998-04-24T13:32:14Z</time>
      </trkpt>
      <trkpt lat="40.245328964665532" lon="-1.567284967750311">
        <ele>1366.1880000000001</ele>
        <time>1998-04-24T13:31:38Z</time>
      </trkpt>
      <trkpt lat="40.246021980419755" lon="-1.567337019369006">
        <ele>1363.46</ele>
        <time>1998-04-24T13:30:40Z</time>
      </trkpt>
      <trkpt lat="40.246492037549615" lon="-1.568103963509202">
        <ele>1362.499</ele>
        <time>1998-04-24T13:30:30Z</time>
      </trkpt>
      <trkpt lat="40.246703010052443" lon="-1.568201025947928">
        <ele>1363.856</ele>
        <time>1998-04-24T13:30:27Z</time>
      </trkpt>
      <trkpt lat="40.248045958578587" lon="-1.567936995998025">
        <ele>1382.8869999999999</ele>
        <time>1998-04-24T13:30:14Z</time>
      </trkpt>
      <trkpt lat="40.249057989567518" lon="-1.568376962095499">
        <ele>1388.992</ele>
        <time>1998-04-24T13:30:03Z</time>
      </trkpt>
      <trkpt lat="40.249694008380175" lon="-1.568000027909875">
        <ele>1399.54</ele>
        <time>1998-04-24T13:29:55Z</time>
      </trkpt>
      <trkpt lat="40.250365985557437" lon="-1.567983012646437">
        <ele>1396.3320000000001</ele>
        <time>1998-04-24T13:29:47Z</time>
      </trkpt>
      <trkpt lat="40.250272024422884" lon="-1.567681012675166">
        <ele>1402.0599999999999</ele>
        <time>1998-04-24T13:29:42Z</time>
      </trkpt>
      <trkpt lat="40.247646979987621" lon="-1.565324021503329">
        <ele>1433.1079999999999</ele>
        <time>1998-04-24T13:29:13Z</time>
      </trkpt>
      <trkpt lat="40.247597023844719" lon="-1.564297992736101">
        <ele>1451.4169999999999</ele>
        <time>1998-04-24T13:29:01Z</time>
      </trkpt>
      <trkpt lat="40.24656998924911" lon="-1.564427996054292">
        <ele>1450.325</ele>
        <time>1998-04-24T13:28:50Z</time>
      </trkpt>
      <trkpt lat="40.246250974014401" lon="-1.564255999401212">
        <ele>1451.2829999999999</ele>
        <time>1998-04-24T13:28:45Z</time>
      </trkpt>
      <trkpt lat="40.246309982612729" lon="-1.563981994986534">
        <ele>1453.0139999999999</ele>
        <time>1998-04-24T13:28:42Z</time>
      </trkpt>
      <trkpt lat="40.246806023642421" lon="-1.56332996673882">
        <ele>1461.0329999999999</ele>
        <time>1998-04-24T13:28:35Z</time>
      </trkpt>
      <trkpt lat="40.246884981170297" lon="-1.562902992591262">
        <ele>1465.49</ele>
        <time>1998-04-24T13:28:31Z</time>
      </trkpt>
      <trkpt lat="40.246279975399375" lon="-1.560133025050163">
        <ele>1486.011</ele>
        <time>1998-04-24T13:28:04Z</time>
      </trkpt>
      <trkpt lat="40.246305959299207" lon="-1.559520978480578">
        <ele>1488.4860000000001</ele>
        <time>1998-04-24T13:25:32Z</time>
      </trkpt>
      <trkpt lat="40.246794037520885" lon="-1.559015968814492">
        <ele>1491.0640000000001</ele>
        <time>1998-04-24T13:25:15Z</time>
      </trkpt>
      <trkpt lat="40.248030032962561" lon="-1.558421021327376">
        <ele>1492.4659999999999</ele>
        <time>1998-04-24T13:24:57Z</time>
      </trkpt>
      <trkpt lat="40.250192983075976" lon="-1.558295963332057">
        <ele>1502.7639999999999</ele>
        <time>1998-04-24T13:24:18Z</time>
      </trkpt>
      <trkpt lat="40.252555003389716" lon="-1.558655966073275">
        <ele>1500.4079999999999</ele>
        <time>1998-04-24T13:23:10Z</time>
      </trkpt>
      <trkpt lat="40.255413986742496" lon="-1.558764008805156">
        <ele>1498.52</ele>
        <time>1998-04-24T13:22:12Z</time>
      </trkpt>
      <trkpt lat="40.257609961554408" lon="-1.558362012729049">
        <ele>1505.7</ele>
        <time>1998-04-24T13:21:34Z</time>
      </trkpt>
      <trkpt lat="40.259010996669531" lon="-1.557734962552786">
        <ele>1510.029</ele>
        <time>1998-04-24T13:20:59Z</time>
      </trkpt>
      <trkpt lat="40.260224025696516" lon="-1.557958004996181">
        <ele>1509.1990000000001</ele>
        <time>1998-04-24T13:20:28Z</time>
      </trkpt>
      <trkpt lat="40.260867001488805" lon="-1.557708978652954">
        <ele>1509.288</ele>
        <time>1998-04-24T13:20:06Z</time>
      </trkpt>
      <trkpt lat="40.262821996584535" lon="-1.557659022510052">
        <ele>1509.4349999999999</ele>
        <time>1998-04-24T13:19:00Z</time>
      </trkpt>
      <trkpt lat="40.264193024486303" lon="-1.558297974988818">
        <ele>1496.7660000000001</ele>
        <time>1998-04-24T13:17:33Z</time>
      </trkpt>
      <trkpt lat="40.264785038307309" lon="-1.558373998850584">
        <ele>1492.8610000000001</ele>
        <time>1998-04-24T13:17:21Z</time>
      </trkpt>
      <trkpt lat="40.265688020735979" lon="-1.558094965294004">
        <ele>1498.1489999999999</ele>
        <time>1998-04-24T13:16:49Z</time>
      </trkpt>
      <trkpt lat="40.266920998692513" lon="-1.55744100920856">
        <ele>1508.3409999999999</ele>
        <time>1998-04-24T13:16:33Z</time>
      </trkpt>
      <trkpt lat="40.26824701577425" lon="-1.557118976488709">
        <ele>1518.249</ele>
        <time>1998-04-24T13:16:20Z</time>
      </trkpt>
      <trkpt lat="40.269717033952475" lon="-1.558182975277305">
        <ele>1537.808</ele>
        <time>1998-04-24T13:16:02Z</time>
      </trkpt>
      <trkpt lat="40.270242998376489" lon="-1.558352960273624">
        <ele>1542.3150000000001</ele>
        <time>1998-04-24T13:15:53Z</time>
      </trkpt>
      <trkpt lat="40.271670017391443" lon="-1.557867983356118">
        <ele>1544.6410000000001</ele>
        <time>1998-04-24T13:15:10Z</time>
      </trkpt>
      <trkpt lat="40.271859029307961" lon="-1.557560032233596">
        <ele>1542.3710000000001</ele>
        <time>1998-04-24T13:15:01Z</time>
      </trkpt>
      <trkpt lat="40.270988987758756" lon="-1.556228986009955">
        <ele>1547.3140000000001</ele>
        <time>1998-04-24T13:14:45Z</time>
      </trkpt>
      <trkpt lat="40.270983036607504" lon="-1.555726993829012">
        <ele>1549.2429999999999</ele>
        <time>1998-04-24T13:14:39Z</time>
      </trkpt>
      <trkpt lat="40.27409004047513" lon="-1.554397959262133">
        <ele>1582.97</ele>
        <time>1998-04-24T13:14:02Z</time>
      </trkpt>
      <trkpt lat="40.276078982278705" lon="-1.552430978044868">
        <ele>1584.1410000000001</ele>
        <time>1998-04-24T13:11:51Z</time>
      </trkpt>
      <trkpt lat="40.2787109836936" lon="-1.550613027065992">
        <ele>1571.646</ele>
        <time>1998-04-24T13:09:06Z</time>
      </trkpt>
      <trkpt lat="40.280317040160298" lon="-1.550549995154142">
        <ele>1565.0540000000001</ele>
        <time>1998-04-24T13:07:16Z</time>
      </trkpt>
      <trkpt lat="40.282143037766218" lon="-1.551841981709003">
        <ele>1545.9559999999999</ele>
        <time>1998-04-24T13:05:23Z</time>
      </trkpt>
      <trkpt lat="40.28356603346765" lon="-1.552379010245204">
        <ele>1536.5239999999999</ele>
        <time>1998-04-24T13:04:42Z</time>
      </trkpt>
      <trkpt lat="40.28556696139276" lon="-1.552428966388106">
        <ele>1540.9079999999999</ele>
        <time>1998-04-24T13:03:45Z</time>
      </trkpt>
      <trkpt lat="40.286189988255501" lon="-1.552180023863912">
        <ele>1537.414</ele>
        <time>1998-04-24T13:03:14Z</time>
      </trkpt>
      <trkpt lat="40.287076961249113" lon="-1.552277002483606">
        <ele>1533.768</ele>
        <time>1998-04-24T13:00:51Z</time>
      </trkpt>
      <trkpt lat="40.288236010819674" lon="-1.552983010187745">
        <ele>1530.627</ele>
        <time>1998-04-24T13:00:09Z</time>
      </trkpt>
      <trkpt lat="40.289263967424631" lon="-1.552705988287926">
        <ele>1528.751</ele>
        <time>1998-04-24T12:59:26Z</time>
      </trkpt>
      <trkpt lat="40.290235010907054" lon="-1.553261037915945">
        <ele>1523.73</ele>
        <time>1998-04-24T12:58:51Z</time>
      </trkpt>
      <trkpt lat="40.291100023314357" lon="-1.552922995761037">
        <ele>1522.527</ele>
        <time>1998-04-24T12:58:27Z</time>
      </trkpt>
      <trkpt lat="40.292153041809797" lon="-1.552214976400137">
        <ele>1520.1479999999999</ele>
        <time>1998-04-24T12:57:50Z</time>
      </trkpt>
      <trkpt lat="40.294407019391656" lon="-1.5514259878546">
        <ele>1509.463</ele>
        <time>1998-04-24T12:55:29Z</time>
      </trkpt>
      <trkpt lat="40.2964389603585" lon="-1.550486041232944">
        <ele>1500.3409999999999</ele>
        <time>1998-04-24T12:54:04Z</time>
      </trkpt>
      <trkpt lat="40.296786976978183" lon="-1.549832001328468">
        <ele>1499.943</ele>
        <time>1998-04-24T12:53:43Z</time>
      </trkpt>
      <trkpt lat="40.297526009380817" lon="-1.549424976110458">
        <ele>1496.3510000000001</ele>
        <time>1998-04-24T12:52:52Z</time>
      </trkpt>
      <trkpt lat="40.29770596884191" lon="-1.54946998693049">
        <ele>1493.808</ele>
        <time>1998-04-24T12:52:35Z</time>
      </trkpt>
      <trkpt lat="40.298504009842873" lon="-1.550438012927771">
        <ele>1491.4190000000001</ele>
        <time>1998-04-24T12:50:20Z</time>
      </trkpt>
      <trkpt lat="40.298865018412471" lon="-1.550578996539116">
        <ele>1487.981</ele>
        <time>1998-04-24T12:49:54Z</time>
      </trkpt>
      <trkpt lat="40.300202015787363" lon="-1.550255035981536">
        <ele>1481.991</ele>
        <time>1998-04-24T12:48:38Z</time>
      </trkpt>
      <trkpt lat="40.301466006785631" lon="-1.549653969705105">
        <ele>1478.0840000000001</ele>
        <time>1998-04-24T12:47:45Z</time>
      </trkpt>
      <trkpt lat="40.301833972334862" lon="-1.549271000549197">
        <ele>1480.8430000000001</ele>
        <time>1998-04-24T12:47:27Z</time>
      </trkpt>
      <trkpt lat="40.305730970576406" lon="-1.548449993133545">
        <ele>1456.4100000000001</ele>
        <time>1998-04-24T12:44:56Z</time>
      </trkpt>
      <trkpt lat="40.30675096437335" lon="-1.549295978620648">
        <ele>1457.5909999999999</ele>
        <time>1998-04-24T12:44:13Z</time>
      </trkpt>
      <trkpt lat="40.308086033910513" lon="-1.549301007762551">
        <ele>1448.1559999999999</ele>
        <time>1998-04-24T12:43:21Z</time>
      </trkpt>
      <trkpt lat="40.30926201492548" lon="-1.548800021409988">
        <ele>1441.7639999999999</ele>
        <time>1998-04-24T12:42:39Z</time>
      </trkpt>
      <trkpt lat="40.313724037259817" lon="-1.547813974320889">
        <ele>1423.326</ele>
        <time>1998-04-24T12:40:16Z</time>
      </trkpt>
      <trkpt lat="40.317076966166496" lon="-1.545879011973739">
        <ele>1414.0640000000001</ele>
        <time>1998-04-24T12:38:34Z</time>
      </trkpt>
      <trkpt lat="40.318457968533039" lon="-1.545384982600808">
        <ele>1406.508</ele>
        <time>1998-04-24T12:37:51Z</time>
      </trkpt>
      <trkpt lat="40.320212971419096" lon="-1.544394996017218">
        <ele>1403.4110000000001</ele>
        <time>1998-04-24T12:37:05Z</time>
      </trkpt>
      <trkpt lat="40.321572013199329" lon="-1.544530028477311">
        <ele>1398.683</ele>
        <time>1998-04-24T12:36:33Z</time>
      </trkpt>
      <trkpt lat="40.323172034695745" lon="-1.544175976887345">
        <ele>1402.223</ele>
        <time>1998-04-24T12:35:31Z</time>
      </trkpt>
      <trkpt lat="40.325780985876918" lon="-1.54397196136415">
        <ele>1389.797</ele>
        <time>1998-04-24T12:34:22Z</time>
      </trkpt>
      <trkpt lat="40.326411975547671" lon="-1.543459994718432">
        <ele>1395.7159999999999</ele>
        <time>1998-04-24T12:34:12Z</time>
      </trkpt>
      <trkpt lat="40.327103985473514" lon="-1.543629979714751">
        <ele>1390.5329999999999</ele>
        <time>1998-04-24T12:34:03Z</time>
      </trkpt>
      <trkpt lat="40.327378995716572" lon="-1.543451026082039">
        <ele>1391.9739999999999</ele>
        <time>1998-04-24T12:33:59Z</time>
      </trkpt>
      <trkpt lat="40.327619975432754" lon="-1.542242020368576">
        <ele>1396.3489999999999</ele>
        <time>1998-04-24T12:33:48Z</time>
      </trkpt>
      <trkpt lat="40.330547019839287" lon="-1.539395023137331">
        <ele>1408.587</ele>
        <time>1998-04-24T12:32:41Z</time>
      </trkpt>
      <trkpt lat="40.331058986485004" lon="-1.537894997745752">
        <ele>1406.9590000000001</ele>
        <time>1998-04-24T12:32:11Z</time>
      </trkpt>
      <trkpt lat="40.331374984234571" lon="-1.537517979741097">
        <ele>1410.627</ele>
        <time>1998-04-24T12:31:57Z</time>
      </trkpt>
      <trkpt lat="40.331333996728063" lon="-1.536996038630605">
        <ele>1407.6079999999999</ele>
        <time>1998-04-24T12:30:57Z</time>
      </trkpt>
      <trkpt lat="40.330484993755817" lon="-1.536387009546161">
        <ele>1408.5139999999999</ele>
        <time>1998-04-24T12:30:36Z</time>
      </trkpt>
      <trkpt lat="40.329899014905095" lon="-1.534782964736223">
        <ele>1406.604</ele>
        <time>1998-04-24T12:30:13Z</time>
      </trkpt>
      <trkpt lat="40.328290024772286" lon="-1.53335502371192">
        <ele>1400.953</ele>
        <time>1998-04-24T12:29:35Z</time>
      </trkpt>
      <trkpt lat="40.327262990176678" lon="-1.531623993068934">
        <ele>1398.837</ele>
        <time>1998-04-24T12:29:07Z</time>
      </trkpt>
      <trkpt lat="40.32572197727859" lon="-1.530357990413904">
        <ele>1402.6759999999999</ele>
        <time>1998-04-24T12:28:50Z</time>
      </trkpt>
      <trkpt lat="40.324252964928746" lon="-1.52949096634984">
        <ele>1407.6130000000001</ele>
        <time>1998-04-24T12:28:36Z</time>
      </trkpt>
      <trkpt lat="40.323690036311746" lon="-1.527735041454434">
        <ele>1413.184</ele>
        <time>1998-04-24T12:28:22Z</time>
      </trkpt>
      <trkpt lat="40.323041025549173" lon="-1.526264017447829">
        <ele>1423.489</ele>
        <time>1998-04-24T12:28:08Z</time>
      </trkpt>
      <trkpt lat="40.322761991992593" lon="-1.525100022554398">
        <ele>1423.277</ele>
        <time>1998-04-24T12:27:54Z</time>
      </trkpt>
      <trkpt lat="40.32254297286272" lon="-1.524797016754746">
        <ele>1426.1790000000001</ele>
        <time>1998-04-24T12:27:43Z</time>
      </trkpt>
      <trkpt lat="40.321609983220696" lon="-1.524437014013529">
        <ele>1419.7470000000001</ele>
        <time>1998-04-24T12:27:10Z</time>
      </trkpt>
      <trkpt lat="40.320570962503552" lon="-1.52450499124825">
        <ele>1413.508</ele>
        <time>1998-04-24T12:26:36Z</time>
      </trkpt>
      <trkpt lat="40.319998981431127" lon="-1.524712024256587">
        <ele>1410.8109999999999</ele>
        <time>1998-04-24T12:26:14Z</time>
      </trkpt>
      <trkpt lat="40.318998014554381" lon="-1.525756996124983">
        <ele>1407.6559999999999</ele>
        <time>1998-04-24T12:25:27Z</time>
      </trkpt>
      <trkpt lat="40.318646980449557" lon="-1.525808963924646">
        <ele>1408.5540000000001</ele>
        <time>1998-04-24T12:25:14Z</time>
      </trkpt>
      <trkpt lat="40.317891016602516" lon="-1.525031039491296">
        <ele>1406.596</ele>
        <time>1998-04-24T12:24:34Z</time>
      </trkpt>
      <trkpt lat="40.317700998857617" lon="-1.523992018774152">
        <ele>1401.0550000000001</ele>
        <time>1998-04-24T12:23:56Z</time>
      </trkpt>
      <trkpt lat="40.31742800027132" lon="-1.523594968020916">
        <ele>1396.8420000000001</ele>
        <time>1998-04-24T12:23:35Z</time>
      </trkpt>
      <trkpt lat="40.316874040290713" lon="-1.523337978869677">
        <ele>1395.0129999999999</ele>
        <time>1998-04-24T12:23:04Z</time>
      </trkpt>
      <trkpt lat="40.31609402038157" lon="-1.523261032998562">
        <ele>1389.248</ele>
        <time>1998-04-24T12:22:21Z</time>
      </trkpt>
      <trkpt lat="40.315390024334192" lon="-1.522153029218316">
        <ele>1381.4559999999999</ele>
        <time>1998-04-24T12:21:31Z</time>
      </trkpt>
      <trkpt lat="40.314218988642097" lon="-1.521723959594965">
        <ele>1373.048</ele>
        <time>1998-04-24T12:20:38Z</time>
      </trkpt>
      <trkpt lat="40.31379503197968" lon="-1.520803961902857">
        <ele>1367.7760000000001</ele>
        <time>1998-04-24T12:20:08Z</time>
      </trkpt>
      <trkpt lat="40.313814980909228" lon="-1.520384028553963">
        <ele>1363.7080000000001</ele>
        <time>1998-04-24T12:19:53Z</time>
      </trkpt>
      <trkpt lat="40.314416969195008" lon="-1.519844988361001">
        <ele>1364.0139999999999</ele>
        <time>1998-04-24T12:19:20Z</time>
      </trkpt>
      <trkpt lat="40.315608037635684" lon="-1.519859991967678">
        <ele>1359.0219999999999</ele>
        <time>1998-04-24T12:18:29Z</time>
      </trkpt>
      <trkpt lat="40.316293006762862" lon="-1.519673997536302">
        <ele>1355.5419999999999</ele>
        <time>1998-04-24T12:17:58Z</time>
      </trkpt>
      <trkpt lat="40.319491038098931" lon="-1.516643017530441">
        <ele>1335.5530000000001</ele>
        <time>1998-04-24T12:14:12Z</time>
      </trkpt>
      <trkpt lat="40.321063986048102" lon="-1.515582036226988">
        <ele>1326.462</ele>
        <time>1998-04-24T12:13:02Z</time>
      </trkpt>
      <trkpt lat="40.321672009304166" lon="-1.514383004978299">
        <ele>1320.0889999999999</ele>
        <time>1998-04-24T12:12:15Z</time>
      </trkpt>
      <trkpt lat="40.322271985933185" lon="-1.512391967698932">
        <ele>1301.48</ele>
        <time>1998-04-24T12:11:02Z</time>
      </trkpt>
      <trkpt lat="40.322954021394253" lon="-1.511207018047571">
        <ele>1301.2950000000001</ele>
        <time>1998-04-24T12:10:24Z</time>
      </trkpt>
      <trkpt lat="40.323459031060338" lon="-1.510664038360119">
        <ele>1300.8430000000001</ele>
        <time>1998-04-24T12:10:04Z</time>
      </trkpt>
      <trkpt lat="40.324267968535423" lon="-1.510338988155127">
        <ele>1293.9649999999999</ele>
        <time>1998-04-24T12:09:41Z</time>
      </trkpt>
      <trkpt lat="40.325249992311001" lon="-1.51025801897049">
        <ele>1293.6130000000001</ele>
        <time>1998-04-24T12:09:14Z</time>
      </trkpt>
      <trkpt lat="40.326417004689574" lon="-1.509663993492723">
        <ele>1288.7080000000001</ele>
        <time>1998-04-24T12:08:32Z</time>
      </trkpt>
      <trkpt lat="40.327993975952268" lon="-1.509640021249652">
        <ele>1283.6110000000001</ele>
        <time>1998-04-24T12:07:37Z</time>
      </trkpt>
      <trkpt lat="40.329483021050692" lon="-1.508963014930487">
        <ele>1277.365</ele>
        <time>1998-04-24T12:06:54Z</time>
      </trkpt>
      <trkpt lat="40.330445012077689" lon="-1.507926005870104">
        <ele>1277.5150000000001</ele>
        <time>1998-04-24T12:06:21Z</time>
      </trkpt>
      <trkpt lat="40.332492962479591" lon="-1.507430970668793">
        <ele>1269.2809999999999</ele>
        <time>1998-04-24T12:05:42Z</time>
      </trkpt>
      <trkpt lat="40.334188034757972" lon="-1.507348995655775">
        <ele>1266.48</ele>
        <time>1998-04-24T12:05:14Z</time>
      </trkpt>
      <trkpt lat="40.337850004434586" lon="-1.505100969225168">
        <ele>1262.097</ele>
        <time>1998-04-24T12:04:16Z</time>
      </trkpt>
      <trkpt lat="40.338226016610861" lon="-1.504205027595162">
        <ele>1269.048</ele>
        <time>1998-04-24T12:04:04Z</time>
      </trkpt>
      <trkpt lat="40.33837697468698" lon="-1.502828970551491">
        <ele>1273.3530000000001</ele>
        <time>1998-04-24T12:03:46Z</time>
      </trkpt>
      <trkpt lat="40.339010981842875" lon="-1.501920958980918">
        <ele>1268.191</ele>
        <time>1998-04-24T12:03:29Z</time>
      </trkpt>
      <trkpt lat="40.339558990672231" lon="-1.501561962068081">
        <ele>1265.0730000000001</ele>
        <time>1998-04-24T12:03:17Z</time>
      </trkpt>
      <trkpt lat="40.342750987038016" lon="-1.501421984285116">
        <ele>1259.3910000000001</ele>
        <time>1998-04-24T12:01:28Z</time>
      </trkpt>
      <trkpt lat="40.343710966408253" lon="-1.500942036509514">
        <ele>1255.2080000000001</ele>
        <time>1998-04-24T12:00:49Z</time>
      </trkpt>
      <trkpt lat="40.345034971833229" lon="-1.500909011811018">
        <ele>1245.827</ele>
        <time>1998-04-24T12:00:04Z</time>
      </trkpt>
      <trkpt lat="40.347232036292553" lon="-1.499890023842454">
        <ele>1238.807</ele>
        <time>1998-04-24T11:58:53Z</time>
      </trkpt>
      <trkpt lat="40.34845101647079" lon="-1.499987002462149">
        <ele>1233.799</ele>
        <time>1998-04-24T11:58:20Z</time>
      </trkpt>
      <trkpt lat="40.350884031504393" lon="-1.500880010426045">
        <ele>1223.8969999999999</ele>
        <time>1998-04-24T11:57:20Z</time>
      </trkpt>
      <trkpt lat="40.352479023858905" lon="-1.501981979236007">
        <ele>1221.636</ele>
        <time>1998-04-24T11:56:40Z</time>
      </trkpt>
      <trkpt lat="40.358814988285303" lon="-1.502449018880725">
        <ele>1214.8530000000001</ele>
        <time>1998-04-24T11:54:46Z</time>
      </trkpt>
      <trkpt lat="40.364254005253315" lon="-1.505220998078585">
        <ele>1209.5940000000001</ele>
        <time>1998-04-24T11:53:04Z</time>
      </trkpt>
      <trkpt lat="40.366328023374081" lon="-1.505015976727009">
        <ele>1205.829</ele>
        <time>1998-04-24T11:52:26Z</time>
      </trkpt>
      <trkpt lat="40.36897100508213" lon="-1.504388004541397">
        <ele>1205.847</ele>
        <time>1998-04-24T11:51:39Z</time>
      </trkpt>
      <trkpt lat="40.369553966447711" lon="-1.504503004252911">
        <ele>1205.1590000000001</ele>
        <time>1998-04-24T11:51:29Z</time>
      </trkpt>
      <trkpt lat="40.374004002660513" lon="-1.506363032385707">
        <ele>1203.617</ele>
        <time>1998-04-24T11:50:10Z</time>
      </trkpt>
      <trkpt lat="40.378765007480979" lon="-1.50882001966238">
        <ele>1199.4079999999999</ele>
        <time>1998-04-24T11:48:52Z</time>
      </trkpt>
      <trkpt lat="40.381520977243781" lon="-1.509298039600253">
        <ele>1201.9169999999999</ele>
        <time>1998-04-24T11:48:01Z</time>
      </trkpt>
      <trkpt lat="40.382970040664077" lon="-1.509331986308098">
        <ele>1202.0519999999999</ele>
        <time>1998-04-24T11:47:35Z</time>
      </trkpt>
      <trkpt lat="40.384928975254297" lon="-1.510346028953791">
        <ele>1203.1579999999999</ele>
        <time>1998-04-24T11:46:56Z</time>
      </trkpt>
      <trkpt lat="40.385421998798847" lon="-1.510307975113392">
        <ele>1199.549</ele>
        <time>1998-04-24T11:46:47Z</time>
      </trkpt>
      <trkpt lat="40.386578030884266" lon="-1.507942015305162">
        <ele>1195.9380000000001</ele>
        <time>1998-04-24T11:44:15Z</time>
      </trkpt>
      <trkpt lat="40.388256004080176" lon="-1.507344972342253">
        <ele>1197.665</ele>
        <time>1998-04-24T11:43:30Z</time>
      </trkpt>
      <trkpt lat="40.389871029183269" lon="-1.506997039541602">
        <ele>1193.546</ele>
        <time>1998-04-24T11:42:55Z</time>
      </trkpt>
      <trkpt lat="40.391324032098055" lon="-1.505811000242829">
        <ele>1200.7809999999999</ele>
        <time>1998-04-24T11:42:22Z</time>
      </trkpt>
      <trkpt lat="40.391391003504395" lon="-1.505047995597124">
        <ele>1196.029</ele>
        <time>1998-04-24T11:42:11Z</time>
      </trkpt>
      <trkpt lat="40.391219006851315" lon="-1.503654001280665">
        <ele>1195.011</ele>
        <time>1998-04-24T11:41:48Z</time>
      </trkpt>
      <trkpt lat="40.39142201654613" lon="-1.503442022949457">
        <ele>1194.479</ele>
        <time>1998-04-24T11:41:42Z</time>
      </trkpt>
      <trkpt lat="40.393099989742041" lon="-1.503445962443948">
        <ele>1195.1079999999999</ele>
        <time>1998-04-24T11:41:04Z</time>
      </trkpt>
      <trkpt lat="40.393373994156718" lon="-1.503206994384527">
        <ele>1195.625</ele>
        <time>1998-04-24T11:40:56Z</time>
      </trkpt>
      <trkpt lat="40.393437026068568" lon="-1.501920958980918">
        <ele>1199.605</ele>
        <time>1998-04-24T11:40:35Z</time>
      </trkpt>
      <trkpt lat="40.393902976065874" lon="-1.501049995422363">
        <ele>1198.1790000000001</ele>
        <time>1998-04-24T11:40:19Z</time>
      </trkpt>
      <trkpt lat="40.394582999870181" lon="-1.500747995451093">
        <ele>1191.4749999999999</ele>
        <time>1998-04-24T11:40:06Z</time>
      </trkpt>
      <trkpt lat="40.396413020789623" lon="-1.501103974878788">
        <ele>1191.5640000000001</ele>
        <time>1998-04-24T11:39:30Z</time>
      </trkpt>
      <trkpt lat="40.396948959678411" lon="-1.500813961029053">
        <ele>1183.8109999999999</ele>
        <time>1998-04-24T11:39:19Z</time>
      </trkpt>
      <trkpt lat="40.397452041506767" lon="-1.500292019918561">
        <ele>1185.462</ele>
        <time>1998-04-24T11:39:07Z</time>
      </trkpt>
      <trkpt lat="40.398240024223924" lon="-1.497428007423878">
        <ele>1176.867</ele>
        <time>1998-04-24T11:38:25Z</time>
      </trkpt>
      <trkpt lat="40.398477986454964" lon="-1.497126007452607">
        <ele>1183.0250000000001</ele>
        <time>1998-04-24T11:38:20Z</time>
      </trkpt>
      <trkpt lat="40.399709958583117" lon="-1.497226003557444">
        <ele>1185.817</ele>
        <time>1998-04-24T11:38:02Z</time>
      </trkpt>
      <trkpt lat="40.399764021858573" lon="-1.497096000239253">
        <ele>1189.0250000000001</ele>
        <time>1998-04-24T11:37:59Z</time>
      </trkpt>
      <trkpt lat="40.39778295904398" lon="-1.496632983908057">
        <ele>1196.808</ele>
        <time>1998-04-24T11:37:32Z</time>
      </trkpt>
      <trkpt lat="40.397271998226643" lon="-1.496727028861642">
        <ele>1194.1179999999999</ele>
        <time>1998-04-24T11:37:22Z</time>
      </trkpt>
      <trkpt lat="40.396781992167234" lon="-1.496516978368163">
        <ele>1193.4169999999999</ele>
        <time>1998-04-24T11:37:11Z</time>
      </trkpt>
      <trkpt lat="40.396447973325849" lon="-1.495237983763218">
        <ele>1200.9359999999999</ele>
        <time>1998-04-24T11:36:52Z</time>
      </trkpt>
      <trkpt lat="40.395773984491825" lon="-1.494142971932888">
        <ele>1204.9179999999999</ele>
        <time>1998-04-24T11:36:32Z</time>
      </trkpt>
      <trkpt lat="40.395475002005696" lon="-1.493359012529254">
        <ele>1200.7470000000001</ele>
        <time>1998-04-24T11:36:18Z</time>
      </trkpt>
      <trkpt lat="40.39548103697598" lon="-1.492109019309282">
        <ele>1193.4639999999999</ele>
        <time>1998-04-24T11:35:50Z</time>
      </trkpt>
      <trkpt lat="40.396552998572588" lon="-1.489313989877701">
        <ele>1187.165</ele>
        <time>1998-04-24T11:34:34Z</time>
      </trkpt>
      <trkpt lat="40.396519973874092" lon="-1.488271029666066">
        <ele>1181.97</ele>
        <time>1998-04-24T11:34:04Z</time>
      </trkpt>
      <trkpt lat="40.396249992772937" lon="-1.486924979835749">
        <ele>1177.3679999999999</ele>
        <time>1998-04-24T11:33:18Z</time>
      </trkpt>
      <trkpt lat="40.397426979616284" lon="-1.485488992184401">
        <ele>1171.4300000000001</ele>
        <time>1998-04-24T11:32:17Z</time>
      </trkpt>
      <trkpt lat="40.397679023444653" lon="-1.484940983355045">
        <ele>1167.4680000000001</ele>
        <time>1998-04-24T11:32:01Z</time>
      </trkpt>
      <trkpt lat="40.398345971480012" lon="-1.481376998126507">
        <ele>1162.4079999999999</ele>
        <time>1998-04-24T11:30:52Z</time>
      </trkpt>
      <trkpt lat="40.398391988128424" lon="-1.479375986382365">
        <ele>1172.413</ele>
        <time>1998-04-24T11:30:21Z</time>
      </trkpt>
      <trkpt lat="40.397751023992896" lon="-1.478238981217146">
        <ele>1170.3209999999999</ele>
        <time>1998-04-24T11:30:00Z</time>
      </trkpt>
      <trkpt lat="40.397036969661713" lon="-1.477917032316327">
        <ele>1169.3610000000001</ele>
        <time>1998-04-24T11:29:46Z</time>
      </trkpt>
      <trkpt lat="40.396264996379614" lon="-1.478000013157725">
        <ele>1167.9870000000001</ele>
        <time>1998-04-24T11:29:31Z</time>
      </trkpt>
      <trkpt lat="40.395389003679156" lon="-1.477860035374761">
        <ele>1160.5260000000001</ele>
        <time>1998-04-24T11:29:13Z</time>
      </trkpt>
      <trkpt lat="40.39488298818469" lon="-1.477527022361755">
        <ele>1161.0429999999999</ele>
        <time>1998-04-24T11:29:02Z</time>
      </trkpt>
      <trkpt lat="40.394455008208752" lon="-1.476994017139077">
        <ele>1160.684</ele>
        <time>1998-04-24T11:28:51Z</time>
      </trkpt>
      <trkpt lat="40.393996015191078" lon="-1.475886013358831">
        <ele>1159.4190000000001</ele>
        <time>1998-04-24T11:28:33Z</time>
      </trkpt>
      <trkpt lat="40.393774984404445" lon="-1.474922010675073">
        <ele>1160.097</ele>
        <time>1998-04-24T11:28:19Z</time>
      </trkpt>
      <trkpt lat="40.393856037408113" lon="-1.473603034391999">
        <ele>1164.2190000000001</ele>
        <time>1998-04-24T11:28:01Z</time>
      </trkpt>
      <trkpt lat="40.394684001803398" lon="-1.469750963151455">
        <ele>1160.347</ele>
        <time>1998-04-24T11:27:05Z</time>
      </trkpt>
      <trkpt lat="40.395191023126245" lon="-1.468187989667058">
        <ele>1155.2080000000001</ele>
        <time>1998-04-24T11:26:42Z</time>
      </trkpt>
      <trkpt lat="40.39823398925364" lon="-1.462886016815901">
        <ele>1153.3140000000001</ele>
        <time>1998-04-24T11:25:10Z</time>
      </trkpt>
      <trkpt lat="40.398799013346434" lon="-1.460390975698829">
        <ele>1154.104</ele>
        <time>1998-04-24T11:24:28Z</time>
      </trkpt>
      <trkpt lat="40.400071972981095" lon="-1.459289006888866">
        <ele>1162.653</ele>
        <time>1998-04-24T11:23:53Z</time>
      </trkpt>
      <trkpt lat="40.400708997622132" lon="-1.458465987816453">
        <ele>1158.027</ele>
        <time>1998-04-24T11:23:31Z</time>
      </trkpt>
      <trkpt lat="40.401062965393066" lon="-1.457616984844208">
        <ele>1152.556</ele>
        <time>1998-04-24T11:19:29Z</time>
      </trkpt>
      <trkpt lat="40.401153992861509" lon="-1.456216033548117">
        <ele>1172.3230000000001</ele>
        <time>1998-04-24T11:19:08Z</time>
      </trkpt>
      <trkpt lat="40.400159982964396" lon="-1.455006022006273">
        <ele>1152.2539999999999</ele>
        <time>1998-04-24T11:18:38Z</time>
      </trkpt>
      <trkpt lat="40.399958984926343" lon="-1.454390035942197">
        <ele>1149.1189999999999</ele>
        <time>1998-04-24T11:18:27Z</time>
      </trkpt>
      <trkpt lat="40.400021011009812" lon="-1.453963983803988">
        <ele>1150.1369999999999</ele>
        <time>1998-04-24T11:18:20Z</time>
      </trkpt>
      <trkpt lat="40.400777980685234" lon="-1.453096037730575">
        <ele>1145.539</ele>
        <time>1998-04-24T11:18:01Z</time>
      </trkpt>
      <trkpt lat="40.400844030082226" lon="-1.45265799947083">
        <ele>1147.587</ele>
        <time>1998-04-24T11:17:54Z</time>
      </trkpt>
      <trkpt lat="40.399883966892958" lon="-1.451632976531982">
        <ele>1149.308</ele>
        <time>1998-04-24T11:17:27Z</time>
      </trkpt>
      <trkpt lat="40.399794029071927" lon="-1.450943984091282">
        <ele>1152.8230000000001</ele>
        <time>1998-04-24T11:17:15Z</time>
      </trkpt>
      <trkpt lat="40.400616964325309" lon="-1.450249962508678">
        <ele>1160.703</ele>
        <time>1998-04-24T11:17:05Z</time>
      </trkpt>
      <trkpt lat="40.401062965393066" lon="-1.450533019378781">
        <ele>1171.259</ele>
        <time>1998-04-24T11:16:42Z</time>
      </trkpt>
      <trkpt lat="40.400918964296579" lon="-1.450555985793471">
        <ele>1172.7909999999999</ele>
        <time>1998-04-24T11:16:38Z</time>
      </trkpt>
      <trkpt lat="40.401036981493235" lon="-1.450352976098657">
        <ele>1163.9400000000001</ele>
        <time>1998-04-24T11:16:29Z</time>
      </trkpt>
      <trkpt lat="40.403011003509164" lon="-1.449543032795191">
        <ele>1201.9369999999999</ele>
        <time>1998-04-24T11:16:13Z</time>
      </trkpt>
      <trkpt lat="40.40336899459362" lon="-1.450024992227554">
        <ele>1180.578</ele>
        <time>1998-04-24T11:15:58Z</time>
      </trkpt>
      <trkpt lat="40.40309096686542" lon="-1.450650030747056">
        <ele>1152.383</ele>
        <time>1998-04-24T11:15:47Z</time>
      </trkpt>
      <trkpt lat="40.403624977916479" lon="-1.452248962596059">
        <ele>1175.0609999999999</ele>
        <time>1998-04-24T11:15:14Z</time>
      </trkpt>
      <trkpt lat="40.404104003682733" lon="-1.452350970357657">
        <ele>1161.7629999999999</ele>
        <time>1998-04-24T11:15:02Z</time>
      </trkpt>
      <trkpt lat="40.404283963143826" lon="-1.452073026448488">
        <ele>1152.3309999999999</ele>
        <time>1998-04-24T11:14:51Z</time>
      </trkpt>
      <trkpt lat="40.40444397367537" lon="-1.45121899433434">
        <ele>1168.308</ele>
        <time>1998-04-24T11:14:36Z</time>
      </trkpt>
      <trkpt lat="40.404429975897074" lon="-1.449887026101351">
        <ele>1211.5219999999999</ele>
        <time>1998-04-24T11:14:14Z</time>
      </trkpt>
      <trkpt lat="40.406385976821184" lon="-1.448337966576219">
        <ele>1146.1569999999999</ele>
        <time>1998-04-24T11:13:15Z</time>
      </trkpt>
      <trkpt lat="40.406953012570739" lon="-1.447635982185602">
        <ele>1156.0940000000001</ele>
        <time>1998-04-24T11:12:55Z</time>
      </trkpt>
      <trkpt lat="40.407909974455833" lon="-1.447088979184628">
        <ele>1141.5799999999999</ele>
        <time>1998-04-24T11:12:24Z</time>
      </trkpt>
      <trkpt lat="40.40835496969521" lon="-1.446635015308857">
        <ele>1144.519</ele>
        <time>1998-04-24T11:12:10Z</time>
      </trkpt>
      <trkpt lat="40.408295039087534" lon="-1.445732032880187">
        <ele>1144.316</ele>
        <time>1998-04-24T11:11:50Z</time>
      </trkpt>
      <trkpt lat="40.407854989171028" lon="-1.444851011037827">
        <ele>1150.337</ele>
        <time>1998-04-24T11:11:24Z</time>
      </trkpt>
      <trkpt lat="40.407921960577369" lon="-1.443389961495996">
        <ele>1147.5920000000001</ele>
        <time>1998-04-24T11:10:49Z</time>
      </trkpt>
      <trkpt lat="40.407609986141324" lon="-1.44167703576386">
        <ele>1129.6400000000001</ele>
        <time>1998-04-24T11:09:52Z</time>
      </trkpt>
      <trkpt lat="40.407723980024457" lon="-1.440911013633013">
        <ele>1126.0920000000001</ele>
        <time>1998-04-24T10:43:00Z</time>
      </trkpt>
      <trkpt lat="40.407801009714603" lon="-1.441129026934505">
        <ele>1128.1700000000001</ele>
        <time>1998-04-24T10:42:44Z</time>
      </trkpt>
      <trkpt lat="40.407661031931639" lon="-1.441406970843673">
        <ele>1127.2080000000001</ele>
        <time>1998-04-24T10:42:21Z</time>
      </trkpt>
      <trkpt lat="40.407696990296245" lon="-1.440629968419671">
        <ele>1125.7260000000001</ele>
        <time>1998-04-24T10:42:04Z</time>
      </trkpt>
      <trkpt lat="40.408106027171016" lon="-1.439517019316554">
        <ele>1125.7239999999999</ele>
        <time>1998-04-24T10:41:39Z</time>
      </trkpt>
      <trkpt lat="40.407810984179378" lon="-1.439005974680185">
        <ele>1126.4880000000001</ele>
        <time>1998-04-24T10:41:23Z</time>
      </trkpt>
      <trkpt lat="40.408442979678512" lon="-1.437211995944381">
        <ele>1122.0909999999999</ele>
        <time>1998-04-24T10:40:38Z</time>
      </trkpt>
      <trkpt lat="40.408670967444777" lon="-1.437165979295969">
        <ele>1121.6099999999999</ele>
        <time>1998-04-24T10:13:14Z</time>
      </trkpt>
      <trkpt lat="40.408468041568995" lon="-1.436931034550071">
        <ele>1123.1669999999999</ele>
        <time>1998-04-24T10:13:00Z</time>
      </trkpt>
      <trkpt lat="40.409046979621053" lon="-1.435713982209563">
        <ele>1124.7280000000001</ele>
        <time>1998-04-24T10:12:35Z</time>
      </trkpt>
      <trkpt lat="40.409752987325191" lon="-1.43493396230042">
        <ele>1125.1130000000001</ele>
        <time>1998-04-24T10:12:14Z</time>
      </trkpt>
      <trkpt lat="40.409904029220343" lon="-1.434179004281759">
        <ele>1123.461</ele>
        <time>1998-04-24T10:12:03Z</time>
      </trkpt>
      <trkpt lat="40.409846026450396" lon="-1.433730991557241">
        <ele>1123.5229999999999</ele>
        <time>1998-04-24T10:11:56Z</time>
      </trkpt>
      <trkpt lat="40.41056502610445" lon="-1.430890029296279">
        <ele>1127.681</ele>
        <time>1998-04-24T10:11:21Z</time>
      </trkpt>
      <trkpt lat="40.410628980025649" lon="-1.429258994758129">
        <ele>1133.6079999999999</ele>
        <time>1998-04-24T10:11:03Z</time>
      </trkpt>
      <trkpt lat="40.410907007753849" lon="-1.428937967866659">
        <ele>1135.624</ele>
        <time>1998-04-24T10:10:56Z</time>
      </trkpt>
      <trkpt lat="40.411180006340146" lon="-1.427915962412953">
        <ele>1143.431</ele>
        <time>1998-04-24T10:10:30Z</time>
      </trkpt>
      <trkpt lat="40.411362983286381" lon="-1.42775603570044">
        <ele>1143.296</ele>
        <time>1998-04-24T10:10:20Z</time>
      </trkpt>
      <trkpt lat="40.407845014706254" lon="-1.436543958261609">
        <ele>1140.931</ele>
        <time>2019-07-30T05:22:06Z</time>
      </trkpt>
      <trkpt lat="40.408386988565326" lon="-1.437071012333036">
        <ele>1133.8610000000001</ele>
        <time>2019-07-30T05:22:44Z</time>
      </trkpt>
      <trkpt lat="40.407769996672869" lon="-1.438925005495548">
        <ele>1131.307</ele>
        <time>2019-07-30T05:23:27Z</time>
      </trkpt>
      <trkpt lat="40.407811990007758" lon="-1.439202027395368">
        <ele>1131.1079999999999</ele>
        <time>2019-07-30T05:23:33Z</time>
      </trkpt>
      <trkpt lat="40.40813896805048" lon="-1.439538979902864">
        <ele>1132.327</ele>
        <time>2019-07-30T05:23:49Z</time>
      </trkpt>
      <trkpt lat="40.407667988911271" lon="-1.440826021134853">
        <ele>1132.0540000000001</ele>
        <time>2019-07-30T05:24:22Z</time>
      </trkpt>
      <trkpt lat="40.407616021111608" lon="-1.442572977393866">
        <ele>1134.7860000000001</ele>
        <time>2019-07-30T05:28:29Z</time>
      </trkpt>
      <trkpt lat="40.407694978639483" lon="-1.442353036254644">
        <ele>1127.99</ele>
        <time>2019-07-30T05:36:09Z</time>
      </trkpt>
      <trkpt lat="40.407490963116288" lon="-1.442464012652636">
        <ele>1127.114</ele>
        <time>2019-07-30T05:38:10Z</time>
      </trkpt>
      <trkpt lat="40.407660026103258" lon="-1.442386982962489">
        <ele>1126.875</ele>
        <time>2019-07-30T05:41:23Z</time>
      </trkpt>
      <trkpt lat="40.407738983631134" lon="-1.440241970121861">
        <ele>1124.4369999999999</ele>
        <time>2019-07-30T05:43:37Z</time>
      </trkpt>
      <trkpt lat="40.408177021890879" lon="-1.439486006274819">
        <ele>1124.9549999999999</ele>
        <time>2019-07-30T05:44:09Z</time>
      </trkpt>
      <trkpt lat="40.407979963347316" lon="-1.440062010660768">
        <ele>1123.9770000000001</ele>
        <time>2019-07-30T05:47:00Z</time>
      </trkpt>
      <trkpt lat="40.40809596888721" lon="-1.442937003448606">
        <ele>1149.6610000000001</ele>
        <time>2019-07-30T05:49:33Z</time>
      </trkpt>
      <trkpt lat="40.407754993066192" lon="-1.443576039746404">
        <ele>1155.527</ele>
        <time>2019-07-30T05:50:33Z</time>
      </trkpt>
      <trkpt lat="40.4078150074929" lon="-1.443822970613837">
        <ele>1155.508</ele>
        <time>2019-07-30T05:51:49Z</time>
      </trkpt>
      <trkpt lat="40.409102970734239" lon="-1.445185029879212">
        <ele>1176.251</ele>
        <time>2019-07-30T05:53:38Z</time>
      </trkpt>
      <trkpt lat="40.409051002934575" lon="-1.444780016317964">
        <ele>1182.9780000000001</ele>
        <time>2019-07-30T05:54:16Z</time>
      </trkpt>
      <trkpt lat="40.409756004810333" lon="-1.445078998804092">
        <ele>1196.74</ele>
        <time>2019-07-30T05:56:58Z</time>
      </trkpt>
      <trkpt lat="40.409725997596979" lon="-1.445677969604731">
        <ele>1204.7840000000001</ele>
        <time>2019-07-30T05:59:46Z</time>
      </trkpt>
      <trkpt lat="40.410248022526503" lon="-1.445336993783712">
        <ele>1211.848</ele>
        <time>2019-07-30T06:00:32Z</time>
      </trkpt>
      <trkpt lat="40.410254979506135" lon="-1.445026025176048">
        <ele>1215.539</ele>
        <time>2019-07-30T06:00:51Z</time>
      </trkpt>
      <trkpt lat="40.410569971427321" lon="-1.444634003564715">
        <ele>1226.2809999999999</ele>
        <time>2019-07-30T06:02:04Z</time>
      </trkpt>
      <trkpt lat="40.40985600091517" lon="-1.443390967324376">
        <ele>1241.779</ele>
        <time>2019-07-30T06:04:44Z</time>
      </trkpt>
      <trkpt lat="40.4112290404737" lon="-1.443788018077612">
        <ele>1242.646</ele>
        <time>2019-07-30T06:08:08Z</time>
      </trkpt>
      <trkpt lat="40.41256302036345" lon="-1.445571016520262">
        <ele>1265.6880000000001</ele>
        <time>2019-07-30T06:11:04Z</time>
      </trkpt>
      <trkpt lat="40.41174796409905" lon="-1.445595994591713">
        <ele>1282.116</ele>
        <time>2019-07-30T06:13:10Z</time>
      </trkpt>
      <trkpt lat="40.41170303709805" lon="-1.446515992283821">
        <ele>1294.4079999999999</ele>
        <time>2019-07-30T06:14:51Z</time>
      </trkpt>
      <trkpt lat="40.412009982392192" lon="-1.446510041132569">
        <ele>1299.8979999999999</ele>
        <time>2019-07-30T06:15:33Z</time>
      </trkpt>
      <trkpt lat="40.412552962079644" lon="-1.447942005470395">
        <ele>1308.0550000000001</ele>
        <time>2019-07-30T06:17:56Z</time>
      </trkpt>
      <trkpt lat="40.413496010005474" lon="-1.449116980656982">
        <ele>1311.037</ele>
        <time>2019-07-30T06:19:03Z</time>
      </trkpt>
      <trkpt lat="40.414060028269887" lon="-1.452257009223104">
        <ele>1317.4110000000001</ele>
        <time>2019-07-30T06:20:45Z</time>
      </trkpt>
      <trkpt lat="40.414031026884913" lon="-1.452929992228746">
        <ele>1323.825</ele>
        <time>2019-07-30T06:21:22Z</time>
      </trkpt>
      <trkpt lat="40.413453010842204" lon="-1.453567016869783">
        <ele>1329.566</ele>
        <time>2019-07-30T06:22:12Z</time>
      </trkpt>
      <trkpt lat="40.412439974024892" lon="-1.453967001289129">
        <ele>1339.1479999999999</ele>
        <time>2019-07-30T06:23:25Z</time>
      </trkpt>
      <trkpt lat="40.411757016554475" lon="-1.454732017591596">
        <ele>1342.4960000000001</ele>
        <time>2019-07-30T06:24:06Z</time>
      </trkpt>
      <trkpt lat="40.411775037646294" lon="-1.45663496106863">
        <ele>1335.894</ele>
        <time>2019-07-30T06:24:47Z</time>
      </trkpt>
      <trkpt lat="40.412377025932074" lon="-1.459861993789673">
        <ele>1340.6569999999999</ele>
        <time>2019-07-30T06:26:19Z</time>
      </trkpt>
      <trkpt lat="40.412755971774459" lon="-1.460257032886148">
        <ele>1345.3219999999999</ele>
        <time>2019-07-30T06:26:47Z</time>
      </trkpt>
      <trkpt lat="40.413642022758722" lon="-1.4603700209409">
        <ele>1345.4079999999999</ele>
        <time>2019-07-30T06:27:20Z</time>
      </trkpt>
      <trkpt lat="40.41395902633667" lon="-1.461630994454026">
        <ele>1358.3330000000001</ele>
        <time>2019-07-30T06:28:30Z</time>
      </trkpt>
      <trkpt lat="40.414376026019454" lon="-1.46200499497354">
        <ele>1359.98</ele>
        <time>2019-07-30T06:29:02Z</time>
      </trkpt>
      <trkpt lat="40.41510097682476" lon="-1.463289018720388">
        <ele>1376.3219999999999</ele>
        <time>2019-07-30T06:30:51Z</time>
      </trkpt>
      <trkpt lat="40.416893027722836" lon="-1.465293969959021">
        <ele>1408.616</ele>
        <time>2019-07-30T06:35:07Z</time>
      </trkpt>
      <trkpt lat="40.418463964015245" lon="-1.466394010931253">
        <ele>1418.01</ele>
        <time>2019-07-30T06:38:44Z</time>
      </trkpt>
      <trkpt lat="40.420044958591461" lon="-1.467980034649372">
        <ele>1417.981</ele>
        <time>2019-07-30T06:40:00Z</time>
      </trkpt>
      <trkpt lat="40.42094299569726" lon="-1.469495985656977">
        <ele>1414.943</ele>
        <time>2019-07-30T06:40:40Z</time>
      </trkpt>
      <trkpt lat="40.42135396040976" lon="-1.471338998526335">
        <ele>1411.7809999999999</ele>
        <time>2019-07-30T06:41:20Z</time>
      </trkpt>
      <trkpt lat="40.421828962862492" lon="-1.472577005624771">
        <ele>1402.396</ele>
        <time>2019-07-30T06:41:51Z</time>
      </trkpt>
      <trkpt lat="40.422975020483136" lon="-1.472936002537608">
        <ele>1396.431</ele>
        <time>2019-07-30T06:42:15Z</time>
      </trkpt>
      <trkpt lat="40.423644986003637" lon="-1.474091028794646">
        <ele>1388.124</ele>
        <time>2019-07-30T06:42:42Z</time>
      </trkpt>
      <trkpt lat="40.424200035631657" lon="-1.473911991342902">
        <ele>1390.9079999999999</ele>
        <time>2019-07-30T06:43:12Z</time>
      </trkpt>
      <trkpt lat="40.424828007817268" lon="-1.474619004875422">
        <ele>1399.643</ele>
        <time>2019-07-30T06:44:17Z</time>
      </trkpt>
      <trkpt lat="40.425960989668965" lon="-1.475302968174219">
        <ele>1400.9300000000001</ele>
        <time>2019-07-30T06:45:15Z</time>
      </trkpt>
      <trkpt lat="40.426564989611506" lon="-1.475895987823606">
        <ele>1396.922</ele>
        <time>2019-07-30T06:45:37Z</time>
      </trkpt>
      <trkpt lat="40.427338974550366" lon="-1.476093968376517">
        <ele>1408.346</ele>
        <time>2019-07-30T06:46:38Z</time>
      </trkpt>
      <trkpt lat="40.427844990044832" lon="-1.476673996075988">
        <ele>1409.75</ele>
        <time>2019-07-30T06:47:25Z</time>
      </trkpt>
      <trkpt lat="40.427836021408439" lon="-1.47691497579217">
        <ele>1409.211</ele>
        <time>2019-07-30T06:47:32Z</time>
      </trkpt>
      <trkpt lat="40.427157003432512" lon="-1.477857017889619">
        <ele>1407.5830000000001</ele>
        <time>2019-07-30T06:48:02Z</time>
      </trkpt>
      <trkpt lat="40.426564989611506" lon="-1.480622962117195">
        <ele>1418.8309999999999</ele>
        <time>2019-07-30T06:49:51Z</time>
      </trkpt>
      <trkpt lat="40.427571991458535" lon="-1.482517020776868">
        <ele>1425.1120000000001</ele>
        <time>2019-07-30T06:51:17Z</time>
      </trkpt>
      <trkpt lat="40.42835796251893" lon="-1.483207019045949">
        <ele>1425.0319999999999</ele>
        <time>2019-07-30T06:51:50Z</time>
      </trkpt>
      <trkpt lat="40.430000983178616" lon="-1.48413497954607">
        <ele>1442.905</ele>
        <time>2019-07-30T06:53:47Z</time>
      </trkpt>
      <trkpt lat="40.431841984391212" lon="-1.486258031800389">
        <ele>1443.1079999999999</ele>
        <time>2019-07-30T06:55:30Z</time>
      </trkpt>
      <trkpt lat="40.432455036789179" lon="-1.487554041668773">
        <ele>1441.585</ele>
        <time>2019-07-30T06:55:59Z</time>
      </trkpt>
      <trkpt lat="40.433170013129711" lon="-1.489814976230264">
        <ele>1449.2619999999999</ele>
        <time>2019-07-30T06:57:14Z</time>
      </trkpt>
      <trkpt lat="40.433208988979459" lon="-1.491092965006828">
        <ele>1450.124</ele>
        <time>2019-07-30T06:58:14Z</time>
      </trkpt>
      <trkpt lat="40.431893030181527" lon="-1.491581965237856">
        <ele>1441.6379999999999</ele>
        <time>2019-07-30T07:00:29Z</time>
      </trkpt>
      <trkpt lat="40.430917041376233" lon="-1.49266398511827">
        <ele>1432.6220000000001</ele>
        <time>2019-07-30T07:00:51Z</time>
      </trkpt>
      <trkpt lat="40.429134964942932" lon="-1.493905009701848">
        <ele>1410.163</ele>
        <time>2019-07-30T07:01:27Z</time>
      </trkpt>
      <trkpt lat="40.428501041606069" lon="-1.494555026292801">
        <ele>1403.7449999999999</ele>
        <time>2019-07-30T07:01:42Z</time>
      </trkpt>
      <trkpt lat="40.427707023918629" lon="-1.494853002950549">
        <ele>1397.183</ele>
        <time>2019-07-30T07:01:54Z</time>
      </trkpt>
      <trkpt lat="40.425769966095686" lon="-1.495126001536846">
        <ele>1384.076</ele>
        <time>2019-07-30T07:02:20Z</time>
      </trkpt>
      <trkpt lat="40.425233021378517" lon="-1.496140966191888">
        <ele>1373.49</ele>
        <time>2019-07-30T07:02:35Z</time>
      </trkpt>
      <trkpt lat="40.42504602111876" lon="-1.497252993285656">
        <ele>1362.6189999999999</ele>
        <time>2019-07-30T07:02:50Z</time>
      </trkpt>
      <trkpt lat="40.424665985628963" lon="-1.497982973232865">
        <ele>1356.7080000000001</ele>
        <time>2019-07-30T07:02:59Z</time>
      </trkpt>
      <trkpt lat="40.42375504039228" lon="-1.498453030362725">
        <ele>1350.3109999999999</ele>
        <time>2019-07-30T07:03:11Z</time>
      </trkpt>
      <trkpt lat="40.421597035601735" lon="-1.498372983187437">
        <ele>1335.1980000000001</ele>
        <time>2019-07-30T07:03:39Z</time>
      </trkpt>
      <trkpt lat="40.42079103179276" lon="-1.497968975454569">
        <ele>1324.1099999999999</ele>
        <time>2019-07-30T07:03:53Z</time>
      </trkpt>
      <trkpt lat="40.419776989147067" lon="-1.498104007914662">
        <ele>1309.0440000000001</ele>
        <time>2019-07-30T07:04:12Z</time>
      </trkpt>
      <trkpt lat="40.419197967275977" lon="-1.497895969077945">
        <ele>1300.528</ele>
        <time>2019-07-30T07:04:22Z</time>
      </trkpt>
      <trkpt lat="40.418483996763825" lon="-1.498358985409141">
        <ele>1287.9690000000001</ele>
        <time>2019-07-30T07:04:38Z</time>
      </trkpt>
      <trkpt lat="40.418378971517086" lon="-1.498891990631819">
        <ele>1281.8810000000001</ele>
        <time>2019-07-30T07:04:50Z</time>
      </trkpt>
      <trkpt lat="40.418652975931764" lon="-1.499976022168994">
        <ele>1272.8589999999999</ele>
        <time>2019-07-30T07:05:06Z</time>
      </trkpt>
      <trkpt lat="40.417739013209939" lon="-1.502901976928115">
        <ele>1255.5820000000001</ele>
        <time>2019-07-30T07:05:52Z</time>
      </trkpt>
      <trkpt lat="40.416239993646741" lon="-1.50417803786695">
        <ele>1241.143</ele>
        <time>2019-07-30T07:09:22Z</time>
      </trkpt>
      <trkpt lat="40.415214970707893" lon="-1.505473041906953">
        <ele>1229.7170000000001</ele>
        <time>2019-07-30T07:09:50Z</time>
      </trkpt>
      <trkpt lat="40.412776004523039" lon="-1.507377997040749">
        <ele>1198.4079999999999</ele>
        <time>2019-07-30T07:10:43Z</time>
      </trkpt>
      <trkpt lat="40.413477988913655" lon="-1.507975040003657">
        <ele>1196.912</ele>
        <time>2019-07-30T07:11:13Z</time>
      </trkpt>
      <trkpt lat="40.414028009399772" lon="-1.509027974680066">
        <ele>1196.9290000000001</ele>
        <time>2019-07-30T07:11:42Z</time>
      </trkpt>
      <trkpt lat="40.413417974486947" lon="-1.508711976930499">
        <ele>1197.6210000000001</ele>
        <time>2019-07-30T07:12:08Z</time>
      </trkpt>
      <trkpt lat="40.41284398175776" lon="-1.509168036282063">
        <ele>1193.6849999999999</ele>
        <time>2019-07-30T07:12:22Z</time>
      </trkpt>
      <trkpt lat="40.413515958935022" lon="-1.510425992310047">
        <ele>1192.999</ele>
        <time>2019-07-30T07:12:56Z</time>
      </trkpt>
      <trkpt lat="40.413888031616807" lon="-1.511639021337032">
        <ele>1194.45</ele>
        <time>2019-07-30T07:13:30Z</time>
      </trkpt>
      <trkpt lat="40.414782967418432" lon="-1.511609014123678">
        <ele>1194.0219999999999</ele>
        <time>2019-07-30T07:14:44Z</time>
      </trkpt>
      <trkpt lat="40.41638701222837" lon="-1.512784995138645">
        <ele>1195.8699999999999</ele>
        <time>2019-07-30T07:15:51Z</time>
      </trkpt>
      <trkpt lat="40.41688003577292" lon="-1.514089973643422">
        <ele>1195.6969999999999</ele>
        <time>2019-07-30T07:16:34Z</time>
      </trkpt>
      <trkpt lat="40.418159030377865" lon="-1.51444997638464">
        <ele>1197.3230000000001</ele>
        <time>2019-07-30T07:17:20Z</time>
      </trkpt>
      <trkpt lat="40.419061006978154" lon="-1.515837013721466">
        <ele>1198.825</ele>
        <time>2019-07-30T07:18:16Z</time>
      </trkpt>
      <trkpt lat="40.419763997197151" lon="-1.515383971855044">
        <ele>1202.7080000000001</ele>
        <time>2019-07-30T07:18:55Z</time>
      </trkpt>
      <trkpt lat="40.420725988224149" lon="-1.51625401340425">
        <ele>1204.883</ele>
        <time>2019-07-30T07:19:31Z</time>
      </trkpt>
      <trkpt lat="40.421871962025762" lon="-1.516910986974835">
        <ele>1206.1800000000001</ele>
        <time>2019-07-30T07:20:01Z</time>
      </trkpt>
      <trkpt lat="40.422805035486817" lon="-1.518862964585424">
        <ele>1208.0820000000001</ele>
        <time>2019-07-30T07:20:39Z</time>
      </trkpt>
      <trkpt lat="40.423458991572261" lon="-1.519784973934293">
        <ele>1209.336</ele>
        <time>2019-07-30T07:21:00Z</time>
      </trkpt>
      <trkpt lat="40.424155024811625" lon="-1.52022804133594">
        <ele>1211.6500000000001</ele>
        <time>2019-07-30T07:21:25Z</time>
      </trkpt>
      <trkpt lat="40.424840999767184" lon="-1.520390985533595">
        <ele>1214.8710000000001</ele>
        <time>2019-07-30T07:21:56Z</time>
      </trkpt>
      <trkpt lat="40.426177997142076" lon="-1.521417014300823">
        <ele>1223.3530000000001</ele>
        <time>2019-07-30T07:23:08Z</time>
      </trkpt>
      <trkpt lat="40.426612012088299" lon="-1.521324981004">
        <ele>1226.211</ele>
        <time>2019-07-30T07:23:34Z</time>
      </trkpt>
      <trkpt lat="40.426993975415826" lon="-1.520985011011362">
        <ele>1231.1890000000001</ele>
        <time>2019-07-30T07:24:04Z</time>
      </trkpt>
      <trkpt lat="40.427223974838853" lon="-1.519802995026112">
        <ele>1246.0060000000001</ele>
        <time>2019-07-30T07:25:27Z</time>
      </trkpt>
      <trkpt lat="40.427048038691282" lon="-1.518832035362721">
        <ele>1258.126</ele>
        <time>2019-07-30T07:26:31Z</time>
      </trkpt>
      <trkpt lat="40.427355989813805" lon="-1.516914004459977">
        <ele>1260.1079999999999</ele>
        <time>2019-07-30T07:28:33Z</time>
      </trkpt>
      <trkpt lat="40.427149040624499" lon="-1.513142986223102">
        <ele>1286.2919999999999</ele>
        <time>2019-07-30T07:31:24Z</time>
      </trkpt>
      <trkpt lat="40.427266974002123" lon="-1.512034982442856">
        <ele>1292.5889999999999</ele>
        <time>2019-07-30T07:35:17Z</time>
      </trkpt>
      <trkpt lat="40.427687996998429" lon="-1.511686965823174">
        <ele>1291.5609999999999</ele>
        <time>2019-07-30T07:46:19Z</time>
      </trkpt>
      <trkpt lat="40.429915990680456" lon="-1.510953968390822">
        <ele>1301.585</ele>
        <time>2019-07-30T07:47:52Z</time>
      </trkpt>
      <trkpt lat="40.433948021382093" lon="-1.51066797785461">
        <ele>1291.1189999999999</ele>
        <time>2019-07-30T07:49:08Z</time>
      </trkpt>
      <trkpt lat="40.437067011371255" lon="-1.511069973930717">
        <ele>1291.47</ele>
        <time>2019-07-30T07:50:38Z</time>
      </trkpt>
      <trkpt lat="40.438125981017947" lon="-1.510931001976132">
        <ele>1283.5319999999999</ele>
        <time>2019-07-30T07:50:53Z</time>
      </trkpt>
      <trkpt lat="40.439157038927078" lon="-1.511244988068938">
        <ele>1291.3900000000001</ele>
        <time>2019-07-30T07:51:29Z</time>
      </trkpt>
      <trkpt lat="40.439517963677645" lon="-1.511718984693289">
        <ele>1296.386</ele>
        <time>2019-07-30T07:51:54Z</time>
      </trkpt>
      <trkpt lat="40.440423963591456" lon="-1.512362966313958">
        <ele>1301.5599999999999</ele>
        <time>2019-07-30T07:52:39Z</time>
      </trkpt>
      <trkpt lat="40.443568015471101" lon="-1.51393499225378">
        <ele>1310.5260000000001</ele>
        <time>2019-07-30T07:54:26Z</time>
      </trkpt>
      <trkpt lat="40.446095997467637" lon="-1.514351991936564">
        <ele>1317.2080000000001</ele>
        <time>2019-07-30T07:55:49Z</time>
      </trkpt>
      <trkpt lat="40.44771202839911" lon="-1.514236992225051">
        <ele>1321.0519999999999</ele>
        <time>2019-07-30T07:56:38Z</time>
      </trkpt>
      <trkpt lat="40.450000958517194" lon="-1.514590037986636">
        <ele>1333.1590000000001</ele>
        <time>2019-07-30T07:58:10Z</time>
      </trkpt>
      <trkpt lat="40.451441975310445" lon="-1.515175011008978">
        <ele>1342.2809999999999</ele>
        <time>2019-07-30T07:59:25Z</time>
      </trkpt>
      <trkpt lat="40.452832030132413" lon="-1.515389000996947">
        <ele>1342.655</ele>
        <time>2019-07-30T08:00:15Z</time>
      </trkpt>
      <trkpt lat="40.453390013426542" lon="-1.514434972777963">
        <ele>1347.6590000000001</ele>
        <time>2019-07-30T08:01:19Z</time>
      </trkpt>
      <trkpt lat="40.452661039307714" lon="-1.514541003853083">
        <ele>1352.8900000000001</ele>
        <time>2019-07-30T08:02:00Z</time>
      </trkpt>
      <trkpt lat="40.453321030363441" lon="-1.513854023069143">
        <ele>1358.682</ele>
        <time>2019-07-30T08:02:51Z</time>
      </trkpt>
      <trkpt lat="40.454672025516629" lon="-1.513196965679526">
        <ele>1368.04</ele>
        <time>2019-07-30T08:04:08Z</time>
      </trkpt>
      <trkpt lat="40.455272002145648" lon="-1.512691034004092">
        <ele>1371.7159999999999</ele>
        <time>2019-07-30T08:04:46Z</time>
      </trkpt>
      <trkpt lat="40.456118993461132" lon="-1.512418035417795">
        <ele>1384.876</ele>
        <time>2019-07-30T08:06:31Z</time>
      </trkpt>
      <trkpt lat="40.456613022834063" lon="-1.512649040669203">
        <ele>1388.913</ele>
        <time>2019-07-30T08:07:14Z</time>
      </trkpt>
      <trkpt lat="40.457620024681091" lon="-1.512717017903924">
        <ele>1399.4079999999999</ele>
        <time>2019-07-30T08:08:35Z</time>
      </trkpt>
      <trkpt lat="40.457987990230322" lon="-1.512977024540305">
        <ele>1398.675</ele>
        <time>2019-07-30T08:08:51Z</time>
      </trkpt>
      <trkpt lat="40.459403023123741" lon="-1.513019017875195">
        <ele>1412.0119999999999</ele>
        <time>2019-07-30T08:10:18Z</time>
      </trkpt>
      <trkpt lat="40.461060041561723" lon="-1.51356803253293">
        <ele>1425.2439999999999</ele>
        <time>2019-07-30T08:11:59Z</time>
      </trkpt>
      <trkpt lat="40.465948032215238" lon="-1.513961981981993">
        <ele>1468.4380000000001</ele>
        <time>2019-07-30T08:17:03Z</time>
      </trkpt>
      <trkpt lat="40.467862961813807" lon="-1.51459900662303">
        <ele>1490.2919999999999</ele>
        <time>2019-07-30T08:19:22Z</time>
      </trkpt>
      <trkpt lat="40.468565030023456" lon="-1.514633959159255">
        <ele>1499.0229999999999</ele>
        <time>2019-07-30T08:20:19Z</time>
      </trkpt>
      <trkpt lat="40.470656985417008" lon="-1.515568038448691">
        <ele>1522.2550000000001</ele>
        <time>2019-07-30T08:23:00Z</time>
      </trkpt>
      <trkpt lat="40.471387971192598" lon="-1.515513975173235">
        <ele>1523.2429999999999</ele>
        <time>2019-07-30T08:26:14Z</time>
      </trkpt>
      <trkpt lat="40.473072985187173" lon="-1.515915971249342">
        <ele>1507.183</ele>
        <time>2019-07-30T08:27:03Z</time>
      </trkpt>
      <trkpt lat="40.475023034960032" lon="-1.516887014731765">
        <ele>1504.5250000000001</ele>
        <time>2019-07-30T08:28:02Z</time>
      </trkpt>
      <trkpt lat="40.475586969405413" lon="-1.518148994073272">
        <ele>1503.4169999999999</ele>
        <time>2019-07-30T08:28:41Z</time>
      </trkpt>
      <trkpt lat="40.476390961557627" lon="-1.519008977338672">
        <ele>1492.308</ele>
        <time>2019-07-30T08:29:09Z</time>
      </trkpt>
      <trkpt lat="40.47725697979331" lon="-1.520439013838768">
        <ele>1479.922</ele>
        <time>2019-07-30T08:29:51Z</time>
      </trkpt>
      <trkpt lat="40.477761989459395" lon="-1.523084007203579">
        <ele>1469.549</ele>
        <time>2019-07-30T08:30:57Z</time>
      </trkpt>
      <trkpt lat="40.477160001173615" lon="-1.523379972204566">
        <ele>1476.1110000000001</ele>
        <time>2019-07-30T08:31:42Z</time>
      </trkpt>
      <trkpt lat="40.475152032449841" lon="-1.525695975869894">
        <ele>1501.1849999999999</ele>
        <time>2019-07-30T08:34:50Z</time>
      </trkpt>
      <trkpt lat="40.474952040240169" lon="-1.526299975812435">
        <ele>1504.489</ele>
        <time>2019-07-30T08:35:18Z</time>
      </trkpt>
      <trkpt lat="40.475018005818129" lon="-1.526905987411737">
        <ele>1507.9100000000001</ele>
        <time>2019-07-30T08:35:46Z</time>
      </trkpt>
      <trkpt lat="40.474174031987786" lon="-1.529197013005614">
        <ele>1512.7619999999999</ele>
        <time>2019-07-30T08:37:12Z</time>
      </trkpt>
      <trkpt lat="40.472059026360512" lon="-1.532392026856542">
        <ele>1532.1800000000001</ele>
        <time>2019-07-30T08:40:24Z</time>
      </trkpt>
      <trkpt lat="40.471870014443994" lon="-1.533145979046822">
        <ele>1538.9590000000001</ele>
        <time>2019-07-30T08:41:22Z</time>
      </trkpt>
      <trkpt lat="40.471994988620281" lon="-1.53353095985949">
        <ele>1541.903</ele>
        <time>2019-07-30T08:41:46Z</time>
      </trkpt>
      <trkpt lat="40.472411988303065" lon="-1.533905966207385">
        <ele>1544.923</ele>
        <time>2019-07-30T08:48:21Z</time>
      </trkpt>
      <trkpt lat="40.472510978579521" lon="-1.534572998061776">
        <ele>1547.008</ele>
        <time>2019-07-30T08:48:53Z</time>
      </trkpt>
      <trkpt lat="40.473054964095354" lon="-1.534962002187967">
        <ele>1543.8689999999999</ele>
        <time>2019-07-30T08:49:12Z</time>
      </trkpt>
      <trkpt lat="40.475432993844151" lon="-1.534830993041396">
        <ele>1548.1859999999999</ele>
        <time>2019-07-30T08:50:53Z</time>
      </trkpt>
      <trkpt lat="40.475915959104896" lon="-1.535277999937534">
        <ele>1544.768</ele>
        <time>2019-07-30T08:51:04Z</time>
      </trkpt>
      <trkpt lat="40.477582029998302" lon="-1.536188023164868">
        <ele>1540.3420000000001</ele>
        <time>2019-07-30T08:51:45Z</time>
      </trkpt>
      <trkpt lat="40.477766012772918" lon="-1.536885984241962">
        <ele>1543.546</ele>
        <time>2019-07-30T08:52:11Z</time>
      </trkpt>
      <trkpt lat="40.479364022612572" lon="-1.538651967421174">
        <ele>1556.9469999999999</ele>
        <time>2019-07-30T08:53:55Z</time>
      </trkpt>
      <trkpt lat="40.479585975408554" lon="-1.539584035053849">
        <ele>1563.1990000000001</ele>
        <time>2019-07-30T08:54:40Z</time>
      </trkpt>
      <trkpt lat="40.481115002185106" lon="-1.54252901673317">
        <ele>1557.597</ele>
        <time>2019-07-30T08:56:31Z</time>
      </trkpt>
      <trkpt lat="40.482488963752985" lon="-1.543751014396548">
        <ele>1533.2249999999999</ele>
        <time>2019-07-30T08:57:26Z</time>
      </trkpt>
      <trkpt lat="40.483149960637093" lon="-1.544101964682341">
        <ele>1524.826</ele>
        <time>2019-07-30T08:57:40Z</time>
      </trkpt>
      <trkpt lat="40.483857979997993" lon="-1.545854033902288">
        <ele>1516.2080000000001</ele>
        <time>2019-07-30T08:58:09Z</time>
      </trkpt>
      <trkpt lat="40.484394002705812" lon="-1.546442024409771">
        <ele>1520.6079999999999</ele>
        <time>2019-07-30T08:58:34Z</time>
      </trkpt>
      <trkpt lat="40.485159019008279" lon="-1.54684703797102">
        <ele>1530.1859999999999</ele>
        <time>2019-07-30T08:59:24Z</time>
      </trkpt>
      <trkpt lat="40.486114975064993" lon="-1.548452004790306">
        <ele>1524.163</ele>
        <time>2019-07-30T09:00:08Z</time>
      </trkpt>
      <trkpt lat="40.486395014449954" lon="-1.550728026777506">
        <ele>1508.865</ele>
        <time>2019-07-30T09:00:34Z</time>
      </trkpt>
      <trkpt lat="40.486585032194853" lon="-1.551106972619891">
        <ele>1507.299</ele>
        <time>2019-07-30T09:00:39Z</time>
      </trkpt>
      <trkpt lat="40.488810008391738" lon="-1.553389029577375">
        <ele>1512.933</ele>
        <time>2019-07-30T09:02:04Z</time>
      </trkpt>
      <trkpt lat="40.494502997025847" lon="-1.556971035897732">
        <ele>1508.9839999999999</ele>
        <time>2019-07-30T09:04:40Z</time>
      </trkpt>
      <trkpt lat="40.498329000547528" lon="-1.560480035841465">
        <ele>1523.1859999999999</ele>
        <time>2019-07-30T09:07:12Z</time>
      </trkpt>
      <trkpt lat="40.499054035171866" lon="-1.560956966131926">
        <ele>1531.8240000000001</ele>
        <time>2019-07-30T09:08:07Z</time>
      </trkpt>
      <trkpt lat="40.499899014830589" lon="-1.561882998794317">
        <ele>1539.056</ele>
        <time>2019-07-30T09:09:07Z</time>
      </trkpt>
      <trkpt lat="40.501395016908646" lon="-1.566046038642526">
        <ele>1550.059</ele>
        <time>2019-07-30T09:11:22Z</time>
      </trkpt>
      <trkpt lat="40.501441033557057" lon="-1.567536005750299">
        <ele>1552.7139999999999</ele>
        <time>2019-07-30T09:12:07Z</time>
      </trkpt>
      <trkpt lat="40.501678995788097" lon="-1.568882977589965">
        <ele>1554.308</ele>
        <time>2019-07-30T09:12:40Z</time>
      </trkpt>
      <trkpt lat="40.501499036327004" lon="-1.570126013830304">
        <ele>1555.1489999999999</ele>
        <time>2019-07-30T09:13:08Z</time>
      </trkpt>
      <trkpt lat="40.502086021006107" lon="-1.572589036077261">
        <ele>1559.066</ele>
        <time>2019-07-30T09:14:05Z</time>
      </trkpt>
      <trkpt lat="40.503669027239084" lon="-1.576401963829994">
        <ele>1552.3679999999999</ele>
        <time>2019-07-30T09:15:30Z</time>
      </trkpt>
      <trkpt lat="40.503521002829075" lon="-1.577053992077708">
        <ele>1549.222</ele>
        <time>2019-07-30T09:15:39Z</time>
      </trkpt>
      <trkpt lat="40.502336975187063" lon="-1.577829988673329">
        <ele>1541.2660000000001</ele>
        <time>2019-07-30T09:16:02Z</time>
      </trkpt>
      <trkpt lat="40.502302022650838" lon="-1.578285964205861">
        <ele>1539.877</ele>
        <time>2019-07-30T09:16:11Z</time>
      </trkpt>
      <trkpt lat="40.504291970282793" lon="-1.579211996868253">
        <ele>1535.249</ele>
        <time>2019-07-30T09:16:52Z</time>
      </trkpt>
      <trkpt lat="40.504581984132528" lon="-1.580169964581728">
        <ele>1532.4870000000001</ele>
        <time>2019-07-30T09:17:07Z</time>
      </trkpt>
      <trkpt lat="40.505157988518476" lon="-1.580433994531632">
        <ele>1535.2570000000001</ele>
        <time>2019-07-30T09:17:29Z</time>
      </trkpt>
      <trkpt lat="40.507349018007517" lon="-1.584563003852963">
        <ele>1558.9000000000001</ele>
        <time>2019-07-30T09:20:39Z</time>
      </trkpt>
      <trkpt lat="40.507574994117022" lon="-1.584735000506043">
        <ele>1559.52</ele>
        <time>2019-07-30T09:26:45Z</time>
      </trkpt>
      <trkpt lat="40.507911024615169" lon="-1.585745019838214">
        <ele>1560.4079999999999</ele>
        <time>2019-07-30T09:31:33Z</time>
      </trkpt>
      <trkpt lat="40.509046018123627" lon="-1.587172038853169">
        <ele>1559.8989999999999</ele>
        <time>2019-07-30T09:32:21Z</time>
      </trkpt>
      <trkpt lat="40.509446002542973" lon="-1.587193999439478">
        <ele>1558.9860000000001</ele>
        <time>2019-07-30T09:32:32Z</time>
      </trkpt>
      <trkpt lat="40.509771974757314" lon="-1.587771009653807">
        <ele>1563.3679999999999</ele>
        <time>2019-07-30T09:32:56Z</time>
      </trkpt>
      <trkpt lat="40.511614987626672" lon="-1.586616989225149">
        <ele>1557.242</ele>
        <time>2019-07-30T09:34:07Z</time>
      </trkpt>
      <trkpt lat="40.512028969824314" lon="-1.586581030860543">
        <ele>1553.0360000000001</ele>
        <time>2019-07-30T09:34:18Z</time>
      </trkpt>
      <trkpt lat="40.513110989704728" lon="-1.587532963603735">
        <ele>1539.6669999999999</ele>
        <time>2019-07-30T09:34:40Z</time>
      </trkpt>
      <trkpt lat="40.513810962438583" lon="-1.587782995775342">
        <ele>1531.059</ele>
        <time>2019-07-30T09:34:53Z</time>
      </trkpt>
      <trkpt lat="40.515014017000794" lon="-1.588746998459101">
        <ele>1520.867</ele>
        <time>2019-07-30T09:35:24Z</time>
      </trkpt>
      <trkpt lat="40.515482984483242" lon="-1.589585021138191">
        <ele>1525.154</ele>
        <time>2019-07-30T09:35:53Z</time>
      </trkpt>
      <trkpt lat="40.516242971643806" lon="-1.590256998315454">
        <ele>1532.9559999999999</ele>
        <time>2019-07-30T09:36:46Z</time>
      </trkpt>
      <trkpt lat="40.517086023464799" lon="-1.591505985707045">
        <ele>1524.9110000000001</ele>
        <time>2019-07-30T09:37:16Z</time>
      </trkpt>
      <trkpt lat="40.517807034775615" lon="-1.592180980369449">
        <ele>1517.4079999999999</ele>
        <time>2019-07-30T09:37:34Z</time>
      </trkpt>
      <trkpt lat="40.518306009471416" lon="-1.59364202991128">
        <ele>1509.5889999999999</ele>
        <time>2019-07-30T09:37:58Z</time>
      </trkpt>
      <trkpt lat="40.519905025139451" lon="-1.595014985650778">
        <ele>1498.366</ele>
        <time>2019-07-30T09:38:34Z</time>
      </trkpt>
      <trkpt lat="40.520534003153443" lon="-1.595785031095147">
        <ele>1491.788</ele>
        <time>2019-07-30T09:38:48Z</time>
      </trkpt>
      <trkpt lat="40.523653998970985" lon="-1.597763998433948">
        <ele>1484.2719999999999</ele>
        <time>2019-07-30T09:40:06Z</time>
      </trkpt>
      <trkpt lat="40.52544797770679" lon="-1.600245041772723">
        <ele>1478.636</ele>
        <time>2019-07-30T09:41:04Z</time>
      </trkpt>
      <trkpt lat="40.525736985728145" lon="-1.601079041138291">
        <ele>1476.4469999999999</ele>
        <time>2019-07-30T09:41:16Z</time>
      </trkpt>
      <trkpt lat="40.527720982208848" lon="-1.60273103043437">
        <ele>1474.489</ele>
        <time>2019-07-30T09:42:04Z</time>
      </trkpt>
      <trkpt lat="40.531759969890118" lon="-1.607407964766026">
        <ele>1469.837</ele>
        <time>2019-07-30T09:44:12Z</time>
      </trkpt>
      <trkpt lat="40.535828964784741" lon="-1.611718023195863">
        <ele>1456.075</ele>
        <time>2019-07-30T09:45:58Z</time>
      </trkpt>
      <trkpt lat="40.536431036889553" lon="-1.61263600923121">
        <ele>1453.2280000000001</ele>
        <time>2019-07-30T09:46:17Z</time>
      </trkpt>
      <trkpt lat="40.53683202713728" lon="-1.614178027957678">
        <ele>1449.02</ele>
        <time>2019-07-30T09:46:41Z</time>
      </trkpt>
      <trkpt lat="40.537634007632732" lon="-1.615634970366955">
        <ele>1443.7080000000001</ele>
        <time>2019-07-30T09:47:04Z</time>
      </trkpt>
      <trkpt lat="40.538808982819319" lon="-1.616607019677758">
        <ele>1438.751</ele>
        <time>2019-07-30T09:47:30Z</time>
      </trkpt>
      <trkpt lat="40.53958598524332" lon="-1.618063962087035">
        <ele>1441.258</ele>
        <time>2019-07-30T09:48:05Z</time>
      </trkpt>
      <trkpt lat="40.540590975433588" lon="-1.621118998154998">
        <ele>1434.3499999999999</ele>
        <time>2019-07-30T09:48:59Z</time>
      </trkpt>
      <trkpt lat="40.540501959621906" lon="-1.621836991980672">
        <ele>1432.124</ele>
        <time>2019-07-30T09:49:11Z</time>
      </trkpt>
      <trkpt lat="40.541449030861259" lon="-1.62335897795856">
        <ele>1425.9780000000001</ele>
        <time>2019-07-30T09:49:36Z</time>
      </trkpt>
      <trkpt lat="40.542690977454185" lon="-1.624673008918762">
        <ele>1422.239</ele>
        <time>2019-07-30T09:50:06Z</time>
      </trkpt>
      <trkpt lat="40.543840974569321" lon="-1.626456007361412">
        <ele>1418.441</ele>
        <time>2019-07-30T09:50:48Z</time>
      </trkpt>
      <trkpt lat="40.545605029910803" lon="-1.630744021385908">
        <ele>1416.9190000000001</ele>
        <time>2019-07-30T09:52:19Z</time>
      </trkpt>
      <trkpt lat="40.546354036778212" lon="-1.632070038467646">
        <ele>1421.5820000000001</ele>
        <time>2019-07-30T09:53:05Z</time>
      </trkpt>
      <trkpt lat="40.546656036749482" lon="-1.633700989186764">
        <ele>1423.7429999999999</ele>
        <time>2019-07-30T09:53:46Z</time>
      </trkpt>
      <trkpt lat="40.547171020880342" lon="-1.635031029582024">
        <ele>1422.9169999999999</ele>
        <time>2019-07-30T09:54:13Z</time>
      </trkpt>
      <trkpt lat="40.54781399667263" lon="-1.637535961344838">
        <ele>1422.6079999999999</ele>
        <time>2019-07-30T09:55:01Z</time>
      </trkpt>
      <trkpt lat="40.549227017909288" lon="-1.638688975945115">
        <ele>1415.5119999999999</ele>
        <time>2019-07-30T09:55:32Z</time>
      </trkpt>
      <trkpt lat="40.550267966464162" lon="-1.63996797055006">
        <ele>1411.989</ele>
        <time>2019-07-30T09:56:00Z</time>
      </trkpt>
      <trkpt lat="40.551129039376974" lon="-1.640582028776407">
        <ele>1420.221</ele>
        <time>2019-07-30T09:56:56Z</time>
      </trkpt>
      <trkpt lat="40.551561964675784" lon="-1.642540963366628">
        <ele>1421.855</ele>
        <time>2019-07-30T09:58:34Z</time>
      </trkpt>
      <trkpt lat="40.551041029393673" lon="-1.645946027711034">
        <ele>1423.249</ele>
        <time>2019-07-30T10:01:11Z</time>
      </trkpt>
      <trkpt lat="40.551003981381655" lon="-1.64722996763885">
        <ele>1424.0699999999999</ele>
        <time>2019-07-30T10:01:39Z</time>
      </trkpt>
      <trkpt lat="40.549545027315617" lon="-1.649364000186324">
        <ele>1425.5519999999999</ele>
        <time>2019-07-30T10:02:50Z</time>
      </trkpt>
      <trkpt lat="40.549547038972378" lon="-1.650636037811637">
        <ele>1427.27</ele>
        <time>2019-07-30T10:10:55Z</time>
      </trkpt>
      <trkpt lat="40.549545027315617" lon="-1.649701958522201">
        <ele>1427.335</ele>
        <time>2019-07-30T10:12:25Z</time>
      </trkpt>
      <trkpt lat="40.549241015687585" lon="-1.649714028462768">
        <ele>1421.7860000000001</ele>
        <time>2019-07-30T11:18:39Z</time>
      </trkpt>
      <trkpt lat="40.549475960433483" lon="-1.649733977392316">
        <ele>1424.414</ele>
        <time>2019-07-30T11:27:41Z</time>
      </trkpt>
      <trkpt lat="40.549527006223798" lon="-1.650646012276411">
        <ele>1425.308</ele>
        <time>2019-07-30T11:29:26Z</time>
      </trkpt>
      <trkpt lat="40.54972599260509" lon="-1.650642994791269">
        <ele>1428.1469999999999</ele>
        <time>2019-07-30T11:29:43Z</time>
      </trkpt>
      <trkpt lat="40.550008965656161" lon="-1.652339994907379">
        <ele>1433.2339999999999</ele>
        <time>2019-07-30T11:31:03Z</time>
      </trkpt>
      <trkpt lat="40.549705037847161" lon="-1.654228018596768">
        <ele>1436.5360000000001</ele>
        <time>2019-07-30T11:32:10Z</time>
      </trkpt>
      <trkpt lat="40.549739990383387" lon="-1.655092025175691">
        <ele>1437.74</ele>
        <time>2019-07-30T11:32:37Z</time>
      </trkpt>
      <trkpt lat="40.549023002386093" lon="-1.657361006364226">
        <ele>1439.9839999999999</ele>
        <time>2019-07-30T11:33:48Z</time>
      </trkpt>
      <trkpt lat="40.548906996846199" lon="-1.659158002585173">
        <ele>1440.7149999999999</ele>
        <time>2019-07-30T11:35:50Z</time>
      </trkpt>
      <trkpt lat="40.548139968886971" lon="-1.660646963864565">
        <ele>1442.837</ele>
        <time>2019-07-30T11:36:37Z</time>
      </trkpt>
      <trkpt lat="40.547777032479644" lon="-1.663639973849058">
        <ele>1451.3150000000001</ele>
        <time>2019-07-30T11:38:12Z</time>
      </trkpt>
      <trkpt lat="40.547389034181833" lon="-1.664614034816623">
        <ele>1457.4369999999999</ele>
        <time>2019-07-30T11:39:01Z</time>
      </trkpt>
      <trkpt lat="40.548258991912007" lon="-1.666877986863256">
        <ele>1464.6489999999999</ele>
        <time>2019-07-30T11:40:26Z</time>
      </trkpt>
      <trkpt lat="40.547925978899002" lon="-1.668617986142635">
        <ele>1468.5129999999999</ele>
        <time>2019-07-30T11:41:16Z</time>
      </trkpt>
      <trkpt lat="40.548384971916676" lon="-1.669945009052753">
        <ele>1468.9079999999999</ele>
        <time>2019-07-30T11:41:54Z</time>
      </trkpt>
      <trkpt lat="40.548452027142048" lon="-1.67380403727293">
        <ele>1469.567</ele>
        <time>2019-07-30T11:43:25Z</time>
      </trkpt>
      <trkpt lat="40.547433961182833" lon="-1.67763196863234">
        <ele>1480.9939999999999</ele>
        <time>2019-07-30T11:45:26Z</time>
      </trkpt>
      <trkpt lat="40.545725980773568" lon="-1.68055297806859">
        <ele>1488.836</ele>
        <time>2019-07-30T11:47:16Z</time>
      </trkpt>
      <trkpt lat="40.545054003596306" lon="-1.682439995929599">
        <ele>1488.9100000000001</ele>
        <time>2019-07-30T11:48:05Z</time>
      </trkpt>
      <trkpt lat="40.543855978175998" lon="-1.684306981042028">
        <ele>1490.4839999999999</ele>
        <time>2019-07-30T11:49:12Z</time>
      </trkpt>
      <trkpt lat="40.544163007289171" lon="-1.685165958479047">
        <ele>1494.4449999999999</ele>
        <time>2019-07-30T11:49:53Z</time>
      </trkpt>
      <trkpt lat="40.543445013463497" lon="-1.686401031911373">
        <ele>1497.297</ele>
        <time>2019-07-30T11:50:43Z</time>
      </trkpt>
      <trkpt lat="40.543139996007085" lon="-1.68824496679008">
        <ele>1508.875</ele>
        <time>2019-07-30T11:52:03Z</time>
      </trkpt>
      <trkpt lat="40.544414967298508" lon="-1.691019963473082">
        <ele>1533.6220000000001</ele>
        <time>2019-07-30T11:55:00Z</time>
      </trkpt>
      <trkpt lat="40.544485962018371" lon="-1.692072981968522">
        <ele>1542.962</ele>
        <time>2019-07-30T11:56:06Z</time>
      </trkpt>
      <trkpt lat="40.544907990843058" lon="-1.693326998502016">
        <ele>1554.2080000000001</ele>
        <time>2019-07-30T11:57:28Z</time>
      </trkpt>
      <trkpt lat="40.545163974165916" lon="-1.694806991145015">
        <ele>1569.1079999999999</ele>
        <time>2019-07-30T11:59:29Z</time>
      </trkpt>
      <trkpt lat="40.545476032420993" lon="-1.695126006379724">
        <ele>1570.7860000000001</ele>
        <time>2019-07-30T12:01:09Z</time>
      </trkpt>
      <trkpt lat="40.545740984380245" lon="-1.695093987509608">
        <ele>1570.3430000000001</ele>
        <time>2019-07-30T12:01:23Z</time>
      </trkpt>
      <trkpt lat="40.547238998115063" lon="-1.699011018499732">
        <ele>1561.7750000000001</ele>
        <time>2019-07-30T12:02:27Z</time>
      </trkpt>
      <trkpt lat="40.547831011936069" lon="-1.700178030878305">
        <ele>1555.1890000000001</ele>
        <time>2019-07-30T12:02:37Z</time>
      </trkpt>
      <trkpt lat="40.548911020159721" lon="-1.701196013018489">
        <ele>1549.5329999999999</ele>
        <time>2019-07-30T12:02:50Z</time>
      </trkpt>
      <trkpt lat="40.551839992403984" lon="-1.702079968526959">
        <ele>1537.0940000000001</ele>
        <time>2019-07-30T12:03:20Z</time>
      </trkpt>
      <trkpt lat="40.552376015111804" lon="-1.702534016221762">
        <ele>1534.2760000000001</ele>
        <time>2019-07-30T12:03:26Z</time>
      </trkpt>
      <trkpt lat="40.55301496759057" lon="-1.70373204164207">
        <ele>1530.194</ele>
        <time>2019-07-30T12:03:36Z</time>
      </trkpt>
      <trkpt lat="40.5534209869802" lon="-1.706867041066289">
        <ele>1516.597</ele>
        <time>2019-07-30T12:03:57Z</time>
      </trkpt>
      <trkpt lat="40.554148033261299" lon="-1.709556039422751">
        <ele>1510.223</ele>
        <time>2019-07-30T12:04:17Z</time>
      </trkpt>
      <trkpt lat="40.554604008793831" lon="-1.712751975283027">
        <ele>1504.125</ele>
        <time>2019-07-30T12:04:42Z</time>
      </trkpt>
      <trkpt lat="40.555445970967412" lon="-1.715860990807414">
        <ele>1500.2080000000001</ele>
        <time>2019-07-30T12:05:10Z</time>
      </trkpt>
      <trkpt lat="40.55488396435976" lon="-1.721205040812492">
        <ele>1494.623</ele>
        <time>2019-07-30T12:06:01Z</time>
      </trkpt>
      <trkpt lat="40.554960994049907" lon="-1.72199796885252">
        <ele>1494.24</ele>
        <time>2019-07-30T12:06:09Z</time>
      </trkpt>
      <trkpt lat="40.555413030087948" lon="-1.723123993724585">
        <ele>1493.192</ele>
        <time>2019-07-30T12:06:23Z</time>
      </trkpt>
      <trkpt lat="40.55653695948422" lon="-1.724774977192283">
        <ele>1491.7860000000001</ele>
        <time>2019-07-30T12:06:57Z</time>
      </trkpt>
      <trkpt lat="40.55679302662611" lon="-1.725790025666356">
        <ele>1490.77</ele>
        <time>2019-07-30T12:07:14Z</time>
      </trkpt>
      <trkpt lat="40.556234959512949" lon="-1.726796021685004">
        <ele>1487.971</ele>
        <time>2019-07-30T12:07:30Z</time>
      </trkpt>
      <trkpt lat="40.556652965024114" lon="-1.730627976357937">
        <ele>1484.2329999999999</ele>
        <time>2019-07-30T12:08:22Z</time>
      </trkpt>
      <trkpt lat="40.55655799806118" lon="-1.73104296438396">
        <ele>1484.1210000000001</ele>
        <time>2019-07-30T12:08:28Z</time>
      </trkpt>
      <trkpt lat="40.555794993415475" lon="-1.732150968164206">
        <ele>1484.5640000000001</ele>
        <time>2019-07-30T12:08:50Z</time>
      </trkpt>
      <trkpt lat="40.556013006716967" lon="-1.733588967472315">
        <ele>1483.7059999999999</ele>
        <time>2019-07-30T12:09:12Z</time>
      </trkpt>
      <trkpt lat="40.557145988568664" lon="-1.735608000308275">
        <ele>1478.0160000000001</ele>
        <time>2019-07-30T12:09:41Z</time>
      </trkpt>
      <trkpt lat="40.560853974893689" lon="-1.73942000605166">
        <ele>1466.7080000000001</ele>
        <time>2019-07-30T12:10:42Z</time>
      </trkpt>
      <trkpt lat="40.562242018058896" lon="-1.741175008937717">
        <ele>1464.4400000000001</ele>
        <time>2019-07-30T12:11:03Z</time>
      </trkpt>
      <trkpt lat="40.563974976539612" lon="-1.742222998291254">
        <ele>1463.367</ele>
        <time>2019-07-30T12:11:29Z</time>
      </trkpt>
      <trkpt lat="40.565468966960907" lon="-1.744622988626361">
        <ele>1460.3789999999999</ele>
        <time>2019-07-30T12:12:03Z</time>
      </trkpt>
      <trkpt lat="40.567821012809873" lon="-1.747105959802866">
        <ele>1452.433</ele>
        <time>2019-07-30T12:12:45Z</time>
      </trkpt>
      <trkpt lat="40.568528026342392" lon="-1.747301006689668">
        <ele>1451.7570000000001</ele>
        <time>2019-07-30T12:12:56Z</time>
      </trkpt>
      <trkpt lat="40.569179970771074" lon="-1.747042005881667">
        <ele>1452.588</ele>
        <time>2019-07-30T12:13:09Z</time>
      </trkpt>
      <trkpt lat="40.569724040105939" lon="-1.747088022530079">
        <ele>1452.28</ele>
        <time>2019-07-30T12:13:19Z</time>
      </trkpt>
      <trkpt lat="40.571171008050442" lon="-1.748268026858568">
        <ele>1449.3779999999999</ele>
        <time>2019-07-30T12:13:48Z</time>
      </trkpt>
      <trkpt lat="40.571811972185969" lon="-1.749252984300256">
        <ele>1445.7249999999999</ele>
        <time>2019-07-30T12:14:04Z</time>
      </trkpt>
      <trkpt lat="40.573952039703727" lon="-1.74960502423346">
        <ele>1442.0260000000001</ele>
        <time>2019-07-30T12:14:34Z</time>
      </trkpt>
      <trkpt lat="40.574157983064651" lon="-1.749955974519253">
        <ele>1441.808</ele>
        <time>2019-07-30T12:14:39Z</time>
      </trkpt>
      <trkpt lat="40.57423803023994" lon="-1.751313004642725">
        <ele>1441.1079999999999</ele>
        <time>2019-07-30T12:14:55Z</time>
      </trkpt>
      <trkpt lat="40.574670033529401" lon="-1.751853972673416">
        <ele>1438.576</ele>
        <time>2019-07-30T12:15:04Z</time>
      </trkpt>
      <trkpt lat="40.57509901933372" lon="-1.751865036785603">
        <ele>1437.163</ele>
        <time>2019-07-30T12:15:10Z</time>
      </trkpt>
      <trkpt lat="40.575880967080593" lon="-1.751405959948897">
        <ele>1433.865</ele>
        <time>2019-07-30T12:15:23Z</time>
      </trkpt>
      <trkpt lat="40.576641038060188" lon="-1.751949023455381">
        <ele>1433.3789999999999</ele>
        <time>2019-07-30T12:15:36Z</time>
      </trkpt>
      <trkpt lat="40.577522981911898" lon="-1.752067040652037">
        <ele>1432.913</ele>
        <time>2019-07-30T12:15:49Z</time>
      </trkpt>
      <trkpt lat="40.577806960791349" lon="-1.752481022849679">
        <ele>1431.9639999999999</ele>
        <time>2019-07-30T12:15:55Z</time>
      </trkpt>
      <trkpt lat="40.578337032347918" lon="-1.754624024033546">
        <ele>1427.146</ele>
        <time>2019-07-30T12:16:19Z</time>
      </trkpt>
      <trkpt lat="40.578626962378621" lon="-1.755005987361074">
        <ele>1426.164</ele>
        <time>2019-07-30T12:16:25Z</time>
      </trkpt>
      <trkpt lat="40.579865975305438" lon="-1.755652986466885">
        <ele>1422.8389999999999</ele>
        <time>2019-07-30T12:16:44Z</time>
      </trkpt>
      <trkpt lat="40.582710960879922" lon="-1.755178989842534">
        <ele>1420.001</ele>
        <time>2019-07-30T12:17:32Z</time>
      </trkpt>
      <trkpt lat="40.583581002429128" lon="-1.756084989756346">
        <ele>1418.921</ele>
        <time>2019-07-30T12:17:52Z</time>
      </trkpt>
      <trkpt lat="40.584156000986695" lon="-1.757421987131238">
        <ele>1416.7080000000001</ele>
        <time>2019-07-30T12:18:11Z</time>
      </trkpt>
      <trkpt lat="40.585107011720538" lon="-1.758217010647059">
        <ele>1414.367</ele>
        <time>2019-07-30T12:18:28Z</time>
      </trkpt>
      <trkpt lat="40.5851970333606" lon="-1.759214960038662">
        <ele>1412.394</ele>
        <time>2019-07-30T12:18:40Z</time>
      </trkpt>
      <trkpt lat="40.585744958370924" lon="-1.760173011571169">
        <ele>1410.2460000000001</ele>
        <time>2019-07-30T12:18:54Z</time>
      </trkpt>
      <trkpt lat="40.586521038785577" lon="-1.760450033470988">
        <ele>1411.6900000000001</ele>
        <time>2019-07-30T12:19:08Z</time>
      </trkpt>
      <trkpt lat="40.586869977414608" lon="-1.760857980698347">
        <ele>1413.2739999999999</ele>
        <time>2019-07-30T12:19:19Z</time>
      </trkpt>
      <trkpt lat="40.586834019050002" lon="-1.761543033644557">
        <ele>1415.425</ele>
        <time>2019-07-30T12:19:33Z</time>
      </trkpt>
      <trkpt lat="40.58601301163435" lon="-1.763200974091888">
        <ele>1420.367</ele>
        <time>2019-07-30T12:20:17Z</time>
      </trkpt>
      <trkpt lat="40.586023991927505" lon="-1.76455800421536">
        <ele>1424.2750000000001</ele>
        <time>2019-07-30T12:20:51Z</time>
      </trkpt>
      <trkpt lat="40.586574012413621" lon="-1.765900030732155">
        <ele>1428.443</ele>
        <time>2019-07-30T12:21:30Z</time>
      </trkpt>
      <trkpt lat="40.588273024186492" lon="-1.767205009236932">
        <ele>1426.364</ele>
        <time>2019-07-30T12:22:12Z</time>
      </trkpt>
      <trkpt lat="40.588860008865595" lon="-1.768537983298302">
        <ele>1422.51</ele>
        <time>2019-07-30T12:22:28Z</time>
      </trkpt>
      <trkpt lat="40.588857997208834" lon="-1.769252959638834">
        <ele>1420.008</ele>
        <time>2019-07-30T12:22:36Z</time>
      </trkpt>
      <trkpt lat="40.588142015039921" lon="-1.771552031859756">
        <ele>1418.1579999999999</ele>
        <time>2019-07-30T12:23:05Z</time>
      </trkpt>
      <trkpt lat="40.588351981714368" lon="-1.773836016654968">
        <ele>1412.5250000000001</ele>
        <time>2019-07-30T12:23:33Z</time>
      </trkpt>
      <trkpt lat="40.589831974357367" lon="-1.774663981050253">
        <ele>1407.3969999999999</ele>
        <time>2019-07-30T12:23:55Z</time>
      </trkpt>
      <trkpt lat="40.591154973953962" lon="-1.775922020897269">
        <ele>1397.6510000000001</ele>
        <time>2019-07-30T12:24:13Z</time>
      </trkpt>
      <trkpt lat="40.591295035555959" lon="-1.776779992505908">
        <ele>1395.9349999999999</ele>
        <time>2019-07-30T12:24:21Z</time>
      </trkpt>
      <trkpt lat="40.590631021186709" lon="-1.777978017926216">
        <ele>1390.1959999999999</ele>
        <time>2019-07-30T12:24:33Z</time>
      </trkpt>
      <trkpt lat="40.590803017839789" lon="-1.778385965153575">
        <ele>1388.288</ele>
        <time>2019-07-30T12:24:37Z</time>
      </trkpt>
      <trkpt lat="40.591280031949282" lon="-1.778702968731523">
        <ele>1386.046</ele>
        <time>2019-07-30T12:24:43Z</time>
      </trkpt>
      <trkpt lat="40.591253964230418" lon="-1.779349967837334">
        <ele>1383.029</ele>
        <time>2019-07-30T12:24:49Z</time>
      </trkpt>
      <trkpt lat="40.590229025110602" lon="-1.779810972511768">
        <ele>1376.5</ele>
        <time>2019-07-30T12:25:00Z</time>
      </trkpt>
      <trkpt lat="40.588824972510338" lon="-1.781514007598162">
        <ele>1367.4200000000001</ele>
        <time>2019-07-30T12:25:18Z</time>
      </trkpt>
      <trkpt lat="40.587984016165137" lon="-1.782019017264247">
        <ele>1362.9079999999999</ele>
        <time>2019-07-30T12:25:27Z</time>
      </trkpt>
      <trkpt lat="40.587844038382173" lon="-1.782505000010133">
        <ele>1360.796</ele>
        <time>2019-07-30T12:25:31Z</time>
      </trkpt>
      <trkpt lat="40.588105972856283" lon="-1.783432038500905">
        <ele>1358.3530000000001</ele>
        <time>2019-07-30T12:25:39Z</time>
      </trkpt>
      <trkpt lat="40.58809700421989" lon="-1.784133017063141">
        <ele>1357.865</ele>
        <time>2019-07-30T12:25:46Z</time>
      </trkpt>
      <trkpt lat="40.588103039190173" lon="-1.783844009041786">
        <ele>1359.3989999999999</ele>
        <time>2019-07-30T12:26:29Z</time>
      </trkpt>
      <trkpt lat="40.587892988696694" lon="-1.783882984891534">
        <ele>1359.913</ele>
        <time>2019-07-30T12:26:45Z</time>
      </trkpt>
      <trkpt lat="40.586953964084387" lon="-1.784988977015019">
        <ele>1368.3440000000001</ele>
        <time>2019-07-30T12:27:58Z</time>
      </trkpt>
      <trkpt lat="40.586464963853359" lon="-1.785109005868435">
        <ele>1371.116</ele>
        <time>2019-07-30T12:28:26Z</time>
      </trkpt>
      <trkpt lat="40.586278969421983" lon="-1.786614982411265">
        <ele>1375.5239999999999</ele>
        <time>2019-07-30T12:29:21Z</time>
      </trkpt>
      <trkpt lat="40.585701959207654" lon="-1.787776965647936">
        <ele>1382.4929999999999</ele>
        <time>2019-07-30T12:30:19Z</time>
      </trkpt>
      <trkpt lat="40.585270039737225" lon="-1.788030015304685">
        <ele>1382.665</ele>
        <time>2019-07-30T12:30:42Z</time>
      </trkpt>
      <trkpt lat="40.584913976490498" lon="-1.788774998858571">
        <ele>1381.6210000000001</ele>
        <time>2019-07-30T12:31:04Z</time>
      </trkpt>
      <trkpt lat="40.58564898557961" lon="-1.789304986596108">
        <ele>1372.808</ele>
        <time>2019-07-30T12:41:06Z</time>
      </trkpt>
      <trkpt lat="40.585871022194624" lon="-1.789952991530299">
        <ele>1372.413</ele>
        <time>2019-07-30T12:50:12Z</time>
      </trkpt>
    </trkseg>
  </trk>
</gpx>
